[[{"header":{"parameterUnit":"m.s-1","parameterCategory":1,"la1":31.0,"la2":29.5877,"lo1":-88.7671,"lo2":-86.6584,"dy":0.0162,"dx":0.0185,"nx":115,"ny":88,"refTime":"2023-05-14T06:00:00:Z","depth":0,"parameterNumber":2,"parameterNumberName":"U-component_of_WINDS"},"data":[0.0,0.0,0.0,0.0,0.0,0.0,0.0,0.0,0.0,0.0,0.0,0.0,0.0,0.0,0.0,0.0,0.0,0.0,0.0,0.0,0.0,0.0,0.0,0.0,0.0,0.0,0.0,0.0,0.0,0.0,0.0,0.0,0.0,0.0,0.0,0.0,0.0,0.0,0.0,0.0,0.0,0.0,0.0,0.0,0.0,0.0,0.0,0.0,0.0,0.0,0.0,0.0,0.0,0.0,0.0,0.0,0.0,0.0,0.0,0.0,0.0,0.0,0.0,0.0,0.0,0.0,0.0,0.0,0.0,0.0,0.0,0.0,0.0,0.0,0.0,0.0,0.0,0.0,0.0,0.0,0.0,0.0,0.0,0.0,0.0,0.0,0.0,0.0,0.0,0.0,0.0,0.0,0.0,0.0,0.0,0.0,0.0,0.0,0.0,0.0,0.0,0.0,0.0,0.0,0.0,0.0,0.0,0.0,0.0,0.0,0.0,0.0,0.0,0.0,0.0,0.0,0.0,0.0,0.0,0.0,0.0,0.0,0.0,0.0,0.0,0.0,0.0,0.0,0.0,0.0,0.0,0.0,0.0,0.0,0.0,0.0,0.0,0.0,0.0,0.0,0.0,0.0,0.0,0.0,0.0,0.0,0.0,0.0,0.0,0.0,0.0,0.0,0.0,0.0,0.0,0.0,0.0,0.0,0.0,0.0,0.0,0.0,0.0,0.0,0.0,0.0,0.0,0.0,0.0,0.0,0.0,0.0,0.0,0.0,0.0,0.0,0.0,0.0,0.0,0.0,0.0,0.0,0.0,0.0,0.0,0.0,0.0,0.0,0.0,0.0,0.0,0.0,0.0,0.0,0.0,0.0,0.0,0.0,0.0,0.0,0.0,0.0,0.0,0.0,0.0,0.0,0.0,0.0,0.0,0.0,0.0,0.0,0.0,0.0,0.0,0.0,0.0,0.0,0.0,0.0,0.0,0.0,0.0,0.0,0.0,0.0,0.0,0.0,0.0,0.0,0.0,0.0,0.0,0.0,0.0,0.0,0.0,0.0,0.0,0.0,0.0,0.0,0.0,0.0,0.0,0.0,0.0,0.0,0.0,0.0,0.0,0.0,0.0,0.0,0.0,0.0,0.0,0.0,0.0,0.0,0.0,0.0,0.0,0.0,0.0,0.0,0.0,0.0,0.0,0.0,0.0,0.0,0.0,0.0,0.0,0.0,0.0,0.0,0.0,0.0,0.0,0.0,0.0,0.0,0.0,0.0,0.0,0.0,0.0,0.0,0.0,0.0,0.0,0.0,0.0,0.0,0.0,0.0,0.0,0.0,0.0,0.0,0.0,0.0,0.0,0.0,0.0,0.0,0.0,0.0,0.0,0.0,0.0,0.0,0.0,0.0,0.0,0.0,0.0,0.0,0.0,0.0,0.0,0.0,0.0,0.0,0.0,0.0,0.0,0.0,0.0,0.0,0.0,0.0,0.0,0.0,0.0,0.0,0.0,0.0,0.0,0.0,0.0,0.0,0.0,0.0,0.0,0.0,0.0,0.0,0.0,0.0,0.0,0.0,0.0,0.0,0.0,0.0,0.0,0.0,0.0,0.0,0.0,0.0,0.0,0.0,0.0,0.0,0.0,0.0,0.0,0.0,0.0,0.0,0.0,0.0,0.0,0.0,0.0,0.0,0.0,0.0,0.0,0.0,0.0,0.0,0.0,0.0,0.0,0.0,0.0,0.0,0.0,0.0,0.0,0.0,0.0,0.0,0.0,0.0,0.0,0.0,0.0,0.0,0.0,0.0,0.0,0.0,0.0,0.0,0.0,0.0,0.0,0.0,0.0,0.0,0.0,0.0,0.0,0.0,0.0,0.0,0.0,0.0,0.0,0.0,0.0,0.0,0.0,0.0,0.0,0.0,0.0,0.0,0.0,0.0,0.0,0.0,0.0,0.0,0.0,0.0,0.0,0.0,0.0,0.0,0.0,0.0,0.0,0.0,0.0,0.0,0.0,0.0,0.0,0.0,0.0,0.0,0.0,0.0,0.0,0.0,0.0,0.0,0.0,0.0,0.0,0.0,0.0,0.0,0.0,0.0,0.0,0.0,0.0,0.0,0.0,0.0,0.0,0.0,0.0,0.0,0.0,0.0,0.0,0.0,0.0,0.0,0.0,0.0,0.0,0.0,0.0,0.0,0.0,0.0,0.0,0.0,0.0,0.0,0.0,0.0,0.0,0.0,0.0,0.0,0.0,0.0,0.0,0.0,0.0,0.0,0.0,0.0,0.0,0.0,0.0,0.0,0.0,0.0,0.0,0.0,0.0,0.0,0.0,0.0,0.0,0.0,0.0,0.0,0.0,0.0,0.0,0.0,0.0,0.0,0.0,0.0,0.0,0.0,0.0,0.0,0.0,0.0,0.0,0.0,0.0,0.0,0.0,0.0,0.0,0.0,0.0,0.0,0.0,0.0,0.0,0.0,0.0,0.0,0.0,0.0,0.0,0.0,0.0,0.0,0.0,0.0,0.0,0.0,0.0,0.0,0.0,0.0,0.0,0.0,0.0,0.0,0.0,0.0,0.0,0.0,0.0,0.0,0.0,0.0,0.0,0.0,0.0,0.0,0.0,0.0,0.0,0.0,0.0,0.0,0.0,0.0,0.0,0.0,0.0,0.0,0.0,0.0,0.0,0.0,0.0,0.0,0.0,0.0,0.0,0.0,0.0,0.0,0.0,0.0,0.0,0.0,0.0,0.0,0.0,0.0,0.0,0.0,0.0,0.0,0.0,0.0,0.0,0.0,0.0,0.0,0.0,0.0,0.0,0.0,0.0,0.0,0.0,0.0,0.0,0.0,0.0,0.0,0.0,0.0,0.0,0.0,0.0,0.0,0.0,0.0,0.0,0.0,0.0,0.0,0.0,0.0,0.0,0.0,0.0,0.0,0.0,0.0,0.0,0.0,0.0,0.0,0.0,0.0,0.0,0.0,0.0,0.0,0.0,0.0,0.0,0.0,0.0,0.0,0.0,0.0,0.0,0.0,0.0,0.0,0.0,0.0,0.0,0.0,0.0,0.0,0.0,0.0,0.0,0.0,0.0,0.0,0.0,0.0,0.0,0.0,0.0,0.0,0.0,0.0,0.0,0.0,0.0,0.0,0.0,0.0,0.0,0.0,0.0,0.0,0.0,0.0,0.0,0.0,0.0,0.0,0.0,0.0,0.0,0.0,0.0,0.0,0.0,0.0,0.0,0.0,0.0,0.0,0.0,0.0,0.0,0.0,0.0,0.0,0.0,0.0,0.0,0.0,0.0,0.0,0.0,0.0,0.0,0.0,0.0,0.0,0.0,0.0,0.0,0.0,0.0,0.0,0.0,0.0,0.0,0.0,0.0,0.0,0.0,0.0,0.0,0.0,0.0,0.0,0.0,0.0,0.0,0.0,0.0,0.0,0.0,0.0,0.0,0.0,0.0,0.0,0.0,0.0,0.0,0.0,0.0,0.0,0.0,0.0,0.0,0.0,0.0,0.0,0.0,0.0,0.0,0.0,0.0,0.0,0.0,0.0,0.0,0.0,0.0,0.0,0.0,0.0,0.0,0.0,0.0,0.0,0.0,0.0,0.0,0.0,0.0,0.0,0.0,0.0,0.0,0.0,0.0,0.0,0.0,0.0,0.0,0.0,0.0,0.0,0.0,0.0,0.0,0.0,0.0,0.0,0.0,0.0,0.0,0.0,0.0,0.0,0.0,0.0,0.0,0.0,0.0,0.0,0.0,0.0,0.0,0.0,0.0,0.0,0.0,0.0,0.0,0.0,0.0,0.0,0.0,0.0,0.0,0.0,0.0,0.0,0.0,0.0,0.0,0.0,0.0,0.0,0.0,0.0,0.0,0.0,0.0,0.0,0.0,0.0,0.0,0.0,0.0,0.0,0.0,0.0,0.0,0.0,0.0,0.0,0.0,0.0,0.0,0.0,0.0,0.0,0.0,0.0,0.0,0.0,0.0,0.0,0.0,0.0,0.0,0.0,0.0,0.0,0.0,0.0,0.0,0.0,0.0,0.0,0.0,0.0,0.0,0.0,0.0,0.0,0.0,0.0,0.0,0.0,0.0,0.0,0.0,0.0,0.0,0.0,0.0,0.0,0.0,0.0,0.0,0.0,0.0,0.0,0.0,0.0,0.0,0.0,0.0,0.0,0.0,0.0,0.0,0.0,0.0,0.0,0.0,0.0,0.0,0.0,0.0,0.0,0.0,0.0,0.0,0.0,0.0,0.0,0.0,0.0,0.0,0.0,-1.3312,0.0,0.0,0.0,0.0,0.0,0.0,0.0,0.0,0.0,0.0,0.0,0.0,0.0,0.0,0.0,0.0,0.0,0.0,0.0,0.0,0.0,0.0,0.0,0.0,0.0,0.0,0.0,0.0,0.0,0.0,0.0,0.0,0.0,0.0,0.0,0.0,0.0,0.0,0.0,0.0,0.0,0.0,0.0,0.0,0.0,0.0,0.0,0.0,0.0,0.0,0.0,0.0,0.0,0.0,0.0,0.0,0.0,0.0,0.0,0.0,0.0,0.0,0.0,0.0,0.0,0.0,0.0,0.0,0.0,0.0,0.0,0.0,0.0,0.0,0.0,0.0,0.0,0.0,0.0,0.0,0.0,0.0,0.0,0.0,0.0,0.0,0.0,0.0,0.0,0.0,0.0,0.0,0.0,0.0,0.0,0.0,0.0,0.0,0.0,0.0,0.0,0.0,0.0,0.0,0.0,0.0,0.0,0.0,0.0,0.0,-1.3544,-1.3345,-1.326,-1.3277,-1.3346,0.0,0.0,0.0,0.0,0.0,0.0,0.0,0.0,0.0,0.0,0.0,0.0,0.0,0.0,0.0,0.0,0.0,0.0,0.0,0.0,0.0,0.0,0.0,0.0,0.0,0.0,0.0,0.0,0.0,0.0,0.0,0.0,0.0,0.0,0.0,0.0,0.0,0.0,0.0,0.0,0.0,0.0,0.0,0.0,0.0,0.0,0.0,0.0,0.0,0.0,0.0,0.0,0.0,0.0,0.0,0.0,0.0,0.0,0.0,0.0,0.0,0.0,0.0,0.0,0.0,0.0,0.0,0.0,0.0,0.0,0.0,0.0,0.0,0.0,0.0,0.0,0.0,0.0,0.0,0.0,0.0,0.0,0.0,0.0,0.0,0.0,0.0,0.0,0.0,0.0,0.0,0.0,0.0,0.0,0.0,0.0,0.0,0.0,0.0,0.0,0.0,0.0,0.0,0.0,0.0,0.0,0.0,0.0,0.0,0.0,0.0,0.0,-1.3172,-1.3155,-1.3209,0.0,0.0,0.0,0.0,0.0,0.0,0.0,0.0,0.0,0.0,0.0,0.0,0.0,0.0,0.0,0.0,0.0,0.0,0.0,0.0,0.0,0.0,0.0,0.0,0.0,0.0,0.0,0.0,0.0,0.0,0.0,0.0,0.0,0.0,0.0,0.0,0.0,0.0,0.0,0.0,0.0,0.0,0.0,0.0,0.0,0.0,0.0,0.0,0.0,0.0,0.0,0.0,0.0,0.0,0.0,0.0,0.0,0.0,0.0,0.0,0.0,0.0,0.0,0.0,0.0,0.0,0.0,0.0,0.0,0.0,0.0,0.0,0.0,0.0,0.0,0.0,0.0,0.0,0.0,0.0,0.0,0.0,0.0,0.0,0.0,0.0,0.0,0.0,0.0,0.0,0.0,0.0,0.0,0.0,0.0,0.0,0.0,0.0,0.0,0.0,0.0,0.0,0.0,0.0,0.0,0.0,0.0,0.0,0.0,0.0,-1.3345,-1.3379,-1.3034,0.0,-1.3015,0.0,0.0,0.0,0.0,0.0,0.0,0.0,0.0,0.0,0.0,0.0,0.0,0.0,0.0,0.0,0.0,0.0,0.0,0.0,0.0,0.0,0.0,0.0,0.0,0.0,0.0,0.0,0.0,0.0,0.0,0.0,0.0,0.0,0.0,0.0,0.0,0.0,0.0,0.0,0.0,0.0,0.0,0.0,0.0,0.0,0.0,0.0,0.0,0.0,0.0,0.0,0.0,0.0,0.0,0.0,0.0,0.0,0.0,0.0,0.0,0.0,0.0,0.0,0.0,0.0,0.0,0.0,0.0,0.0,0.0,0.0,0.0,0.0,0.0,0.0,0.0,0.0,0.0,0.0,0.0,0.0,0.0,0.0,0.0,0.0,0.0,0.0,0.0,0.0,0.0,0.0,0.0,0.0,0.0,0.0,0.0,0.0,0.0,0.0,0.0,0.0,0.0,0.0,0.0,0.0,0.0,0.0,0.0,0.0,0.0,-1.3158,-1.3226,-1.3119,-1.3013,0.0,0.0,0.0,0.0,0.0,0.0,0.0,0.0,0.0,0.0,0.0,0.0,0.0,0.0,0.0,0.0,0.0,0.0,0.0,0.0,0.0,0.0,0.0,0.0,0.0,0.0,0.0,0.0,0.0,0.0,0.0,0.0,0.0,0.0,0.0,0.0,0.0,0.0,0.0,0.0,0.0,0.0,0.0,0.0,0.0,0.0,0.0,0.0,0.0,0.0,0.0,0.0,0.0,0.0,0.0,0.0,0.0,0.0,0.0,0.0,0.0,0.0,0.0,0.0,0.0,0.0,0.0,0.0,0.0,0.0,0.0,0.0,0.0,0.0,0.0,0.0,0.0,0.0,0.0,0.0,0.0,0.0,0.0,0.0,0.0,0.0,0.0,0.0,0.0,0.0,0.0,0.0,0.0,0.0,0.0,0.0,0.0,0.0,0.0,0.0,0.0,0.0,0.0,0.0,0.0,0.0,0.0,0.0,0.0,0.0,-1.2947,-1.2855,-1.2832,-1.2993,-1.2959,-1.2722,0.0,0.0,0.0,0.0,0.0,0.0,0.0,0.0,0.0,0.0,0.0,0.0,0.0,0.0,0.0,0.0,0.0,0.0,0.0,0.0,0.0,0.0,0.0,0.0,0.0,0.0,0.0,0.0,0.0,0.0,0.0,0.0,0.0,0.0,0.0,0.0,0.0,0.0,0.0,0.0,0.0,0.0,0.0,0.0,0.0,0.0,0.0,0.0,0.0,0.0,0.0,0.0,0.0,0.0,0.0,0.0,0.0,0.0,0.0,0.0,0.0,0.0,0.0,0.0,0.0,0.0,0.0,0.0,0.0,0.0,0.0,0.0,0.0,0.0,0.0,0.0,0.0,0.0,0.0,0.0,0.0,0.0,0.0,0.0,0.0,0.0,0.0,0.0,0.0,0.0,0.0,0.0,0.0,0.0,0.0,0.0,0.0,0.0,0.0,0.0,0.0,0.0,0.0,0.0,0.0,0.0,0.0,0.0,-1.2722,-1.2604,-1.2392,-1.2169,-1.2585,-1.2642,0.0,0.0,0.0,0.0,0.0,0.0,0.0,0.0,0.0,0.0,0.0,0.0,0.0,0.0,0.0,0.0,0.0,0.0,0.0,0.0,0.0,0.0,0.0,0.0,0.0,0.0,0.0,0.0,0.0,0.0,0.0,0.0,0.0,0.0,0.0,0.0,0.0,0.0,0.0,0.0,0.0,0.0,0.0,0.0,0.0,0.0,0.0,0.0,0.0,0.0,0.0,0.0,0.0,0.0,0.0,0.0,0.0,0.0,0.0,0.0,0.0,0.0,0.0,0.0,0.0,0.0,0.0,0.0,0.0,0.0,0.0,0.0,0.0,0.0,0.0,0.0,0.0,0.0,0.0,0.0,0.0,0.0,0.0,0.0,0.0,0.0,0.0,0.0,0.0,0.0,0.0,0.0,0.0,0.0,0.0,0.0,0.0,0.0,0.0,0.0,0.0,0.0,0.0,0.0,0.0,0.0,0.0,0.0,0.0,-1.2467,-1.2388,-1.2107,-1.163,-1.2195,-1.2392,0.0,0.0,0.0,0.0,0.0,0.0,0.0,0.0,0.0,0.0,0.0,0.0,0.0,0.0,0.0,0.0,0.0,0.0,0.0,0.0,0.0,0.0,0.0,0.0,0.0,0.0,0.0,0.0,0.0,0.0,0.0,0.0,0.0,0.0,0.0,0.0,0.0,0.0,0.0,0.0,0.0,0.0,0.0,0.0,0.0,0.0,0.0,0.0,0.0,0.0,0.0,0.0,0.0,0.0,0.0,0.0,0.0,0.0,0.0,0.0,0.0,0.0,0.0,0.0,0.0,0.0,0.0,0.0,0.0,0.0,0.0,0.0,0.0,0.0,0.0,0.0,0.0,0.0,0.0,0.0,0.0,0.0,0.0,0.0,0.0,0.0,0.0,0.0,0.0,0.0,0.0,0.0,0.0,0.0,0.0,0.0,0.0,0.0,0.0,0.0,0.0,0.0,0.0,0.0,0.0,0.0,0.0,0.0,0.0,-1.2003,0.0,-1.1753,-1.1341,-1.1955,-1.219,0.0,0.0,0.0,0.0,0.0,0.0,0.0,0.0,0.0,0.0,0.0,0.0,0.0,0.0,0.0,0.0,0.0,0.0,0.0,0.0,0.0,0.0,0.0,0.0,0.0,0.0,0.0,0.0,0.0,0.0,0.0,0.0,0.0,0.0,0.0,0.0,0.0,0.0,0.0,0.0,0.0,0.0,0.0,0.0,0.0,0.0,0.0,0.0,0.0,0.0,0.0,0.0,0.0,0.0,0.0,0.0,0.0,0.0,0.0,0.0,0.0,0.0,0.0,0.0,0.0,0.0,0.0,0.0,0.0,0.0,0.0,0.0,0.0,0.0,0.0,0.0,0.0,0.0,0.0,0.0,0.0,0.0,0.0,0.0,0.0,0.0,0.0,0.0,0.0,0.0,0.0,0.0,0.0,0.0,0.0,0.0,0.0,0.0,0.0,0.0,0.0,0.0,0.0,0.0,0.0,0.0,0.0,0.0,-1.1768,-1.1355,-1.1302,-1.1316,-1.1296,-1.1805,-1.1991,0.0,0.0,0.0,0.0,0.0,0.0,0.0,0.0,0.0,0.0,0.0,0.0,0.0,0.0,0.0,0.0,0.0,0.0,0.0,0.0,0.0,0.0,0.0,0.0,0.0,0.0,0.0,0.0,0.0,0.0,0.0,0.0,0.0,0.0,0.0,0.0,0.0,0.0,0.0,0.0,0.0,0.0,0.0,0.0,0.0,0.0,0.0,0.0,0.0,0.0,0.0,0.0,0.0,0.0,0.0,0.0,0.0,0.0,0.0,0.0,0.0,0.0,0.0,0.0,0.0,0.0,0.0,0.0,0.0,0.0,0.0,0.0,0.0,0.0,0.0,0.0,0.0,0.0,0.0,0.0,0.0,0.0,0.0,0.0,0.0,0.0,0.0,0.0,0.0,0.0,0.0,0.0,0.0,0.0,0.0,0.0,0.0,0.0,0.0,0.0,0.0,0.0,0.0,0.0,0.0,0.0,0.0,0.0,0.0,-1.1681,-1.1164,-1.092,-1.0954,-1.1339,-1.149,0.0,0.0,0.0,0.0,0.0,0.0,0.0,0.0,0.0,0.0,0.0,0.0,0.0,0.0,0.0,0.0,0.0,0.0,0.0,0.0,0.0,0.0,0.0,0.0,0.0,0.0,0.0,0.0,0.0,0.0,0.0,0.0,0.0,0.0,0.0,0.0,0.0,0.0,0.0,0.0,0.0,0.0,0.0,0.0,0.0,0.0,0.0,0.0,0.0,0.0,0.0,0.0,0.0,0.0,0.0,0.0,0.0,0.0,0.0,0.0,0.0,0.0,0.0,0.0,0.0,0.0,0.0,0.0,0.0,0.0,0.0,0.0,0.0,0.0,0.0,0.0,0.0,0.0,0.0,0.0,0.0,0.0,0.0,0.0,0.0,0.0,0.0,0.0,0.0,0.0,0.0,0.0,0.0,0.0,0.0,0.0,0.0,0.0,0.0,0.0,0.0,0.0,0.0,0.0,0.0,0.0,0.0,0.0,0.0,-1.1328,-1.1028,-1.088,-1.0942,-1.1374,-1.1485,-1.1259,0.0,0.0,0.0,0.0,0.0,0.0,0.0,0.0,0.0,0.0,0.0,0.0,0.0,0.0,0.0,0.0,0.0,0.0,0.0,0.0,0.0,0.0,0.0,0.0,0.0,0.0,0.0,0.0,0.0,0.0,0.0,0.0,0.0,0.0,0.0,0.0,0.0,0.0,0.0,0.0,0.0,0.0,0.0,0.0,0.0,0.0,0.0,0.0,0.0,0.0,0.0,0.0,0.0,0.0,0.0,0.0,0.0,0.0,0.0,0.0,0.0,0.0,0.0,0.0,0.0,0.0,0.0,0.0,0.0,0.0,0.0,0.0,0.0,0.0,0.0,0.0,0.0,0.0,0.0,0.0,0.0,0.0,0.0,0.0,0.0,0.0,0.0,0.0,0.0,0.0,0.0,0.0,0.0,0.0,0.0,0.0,0.0,0.0,0.0,0.0,0.0,0.0,0.0,0.0,0.0,0.0,0.0,0.0,-1.0416,-1.0858,-1.1131,-1.1214,-1.1743,-1.1816,0.0,0.0,0.0,0.0,0.0,0.0,0.0,0.0,0.0,0.0,0.0,0.0,0.0,0.0,0.0,0.0,0.0,0.0,0.0,0.0,0.0,0.0,0.0,0.0,0.0,0.0,0.0,0.0,0.0,0.0,0.0,0.0,0.0,0.0,0.0,0.0,0.0,0.0,0.0,0.0,0.0,0.0,0.0,0.0,0.0,0.0,0.0,0.0,0.0,0.0,0.0,0.0,0.0,0.0,0.0,0.0,0.0,0.0,0.0,0.0,0.0,0.0,0.0,0.0,0.0,0.0,0.0,0.0,0.0,0.0,0.0,0.0,0.0,0.0,0.0,0.0,0.0,0.0,0.0,0.0,0.0,0.0,0.0,0.0,0.0,0.0,0.0,0.0,0.0,0.0,0.0,0.0,0.0,0.0,0.0,0.0,0.0,0.0,0.0,0.0,0.0,0.0,0.0,0.0,0.0,0.0,0.0,0.0,0.0,-1.0598,-1.0975,-1.1207,-1.1316,-1.1345,-1.1452,0.0,0.0,0.0,0.0,0.0,0.0,0.0,0.0,0.0,0.0,0.0,0.0,0.0,0.0,0.0,0.0,0.0,0.0,0.0,0.0,0.0,0.0,0.0,0.0,0.0,0.0,0.0,0.0,0.0,0.0,0.0,0.0,0.0,0.0,0.0,0.0,0.0,0.0,0.0,0.0,0.0,0.0,0.0,0.0,0.0,0.0,0.0,0.0,0.0,0.0,0.0,0.0,0.0,0.0,0.0,0.0,0.0,0.0,0.0,0.0,0.0,0.0,0.0,0.0,0.0,0.0,0.0,0.0,0.0,0.0,0.0,0.0,0.0,0.0,0.0,0.0,0.0,0.0,0.0,0.0,0.0,0.0,0.0,0.0,0.0,0.0,0.0,0.0,0.0,0.0,0.0,0.0,0.0,0.0,0.0,0.0,0.0,0.0,0.0,0.0,0.0,0.0,0.0,0.0,0.0,0.0,0.0,0.0,-1.0344,-1.0155,-1.0749,-1.1268,-1.172,-1.1417,-1.1316,0.0,0.0,0.0,0.0,0.0,0.0,0.0,0.0,0.0,0.0,0.0,0.0,0.0,0.0,0.0,0.0,0.0,0.0,0.0,0.0,0.0,0.0,0.0,0.0,0.0,0.0,0.0,0.0,0.0,0.0,0.0,0.0,0.0,0.0,0.0,0.0,0.0,0.0,0.0,0.0,0.0,0.0,0.0,0.0,0.0,0.0,0.0,0.0,0.0,0.0,0.0,0.0,0.0,0.0,0.0,0.0,0.0,0.0,0.0,0.0,0.0,0.0,0.0,0.0,0.0,0.0,0.0,0.0,0.0,0.0,0.0,0.0,0.0,0.0,0.0,0.0,0.0,0.0,0.0,0.0,0.0,0.0,0.0,0.0,0.0,0.0,0.0,0.0,0.0,0.0,0.0,0.0,0.0,0.0,0.0,0.0,0.0,0.0,0.0,0.0,0.0,0.0,0.0,0.0,0.0,0.0,0.0,0.0,-1.0211,-0.9599,-1.0463,-1.1404,-1.2131,-1.1728,-1.1433,0.0,0.0,0.0,0.0,0.0,0.0,0.0,0.0,0.0,0.0,0.0,0.0,0.0,0.0,0.0,0.0,0.0,0.0,0.0,0.0,0.0,0.0,0.0,0.0,0.0,0.0,0.0,0.0,0.0,0.0,0.0,0.0,0.0,0.0,0.0,0.0,0.0,0.0,0.0,0.0,0.0,0.0,0.0,0.0,0.0,0.0,0.0,0.0,0.0,0.0,0.0,0.0,0.0,0.0,0.0,0.0,0.0,0.0,0.0,0.0,0.0,0.0,0.0,0.0,0.0,0.0,0.0,0.0,0.0,0.0,0.0,0.0,0.0,0.0,0.0,0.0,0.0,0.0,0.0,0.0,0.0,0.0,0.0,0.0,0.0,0.0,0.0,0.0,0.0,0.0,0.0,0.0,0.0,0.0,0.0,0.0,0.0,0.0,0.0,0.0,0.0,0.0,0.0,0.0,0.0,0.0,0.0,0.0,-1.0114,-1.0572,-1.1157,-1.1725,-1.2268,-1.1581,-1.1781,0.0,0.0,0.0,0.0,0.0,0.0,0.0,0.0,0.0,0.0,0.0,0.0,0.0,0.0,0.0,0.0,0.0,0.0,0.0,0.0,0.0,0.0,0.0,0.0,0.0,0.0,0.0,0.0,0.0,0.0,0.0,0.0,0.0,0.0,0.0,0.0,0.0,0.0,0.0,0.0,0.0,0.0,0.0,0.0,0.0,0.0,0.0,0.0,-1.9225,0.0,0.0,0.0,0.0,0.0,0.0,0.0,0.0,0.0,0.0,0.0,0.0,0.0,0.0,0.0,0.0,0.0,0.0,0.0,0.0,0.0,0.0,0.0,0.0,0.0,0.0,0.0,0.0,0.0,0.0,0.0,0.0,0.0,0.0,0.0,0.0,0.0,0.0,0.0,0.0,0.0,0.0,0.0,0.0,0.0,0.0,0.0,0.0,0.0,0.0,0.0,0.0,0.0,0.0,0.0,0.0,0.0,0.0,0.0,-1.1204,-1.1476,-1.2167,-1.2751,-1.3211,-1.2627,-1.2506,0.0,0.0,0.0,0.0,0.0,0.0,0.0,0.0,0.0,0.0,0.0,0.0,0.0,0.0,0.0,0.0,0.0,0.0,0.0,0.0,0.0,0.0,0.0,0.0,0.0,0.0,0.0,0.0,0.0,0.0,0.0,0.0,0.0,0.0,0.0,0.0,0.0,0.0,0.0,0.0,0.0,0.0,0.0,0.0,0.0,0.0,0.0,0.0,0.0,0.0,0.0,0.0,0.0,0.0,0.0,0.0,0.0,0.0,0.0,0.0,0.0,0.0,0.0,0.0,0.0,0.0,0.0,0.0,0.0,0.0,0.0,0.0,0.0,0.0,0.0,0.0,0.0,0.0,0.0,0.0,0.0,0.0,0.0,0.0,0.0,0.0,0.0,0.0,0.0,0.0,0.0,0.0,0.0,0.0,0.0,0.0,0.0,0.0,0.0,0.0,0.0,0.0,0.0,0.0,0.0,0.0,0.0,-1.1511,-1.2364,-1.2383,-1.3137,-1.3844,-1.4386,-1.3864,-1.3365,-1.2935,0.0,0.0,0.0,0.0,0.0,0.0,0.0,0.0,0.0,0.0,0.0,0.0,0.0,0.0,0.0,0.0,0.0,0.0,0.0,0.0,0.0,0.0,0.0,0.0,0.0,0.0,0.0,0.0,0.0,0.0,0.0,0.0,0.0,0.0,0.0,0.0,0.0,0.0,-1.9824,-1.9317,0.0,0.0,0.0,0.0,0.0,0.0,0.0,0.0,-1.9033,0.0,0.0,0.0,0.0,0.0,0.0,0.0,0.0,0.0,0.0,0.0,0.0,0.0,0.0,0.0,0.0,0.0,0.0,0.0,0.0,0.0,0.0,0.0,0.0,0.0,0.0,0.0,0.0,0.0,0.0,0.0,0.0,0.0,0.0,0.0,0.0,0.0,0.0,0.0,0.0,0.0,0.0,0.0,0.0,0.0,0.0,0.0,0.0,0.0,0.0,0.0,0.0,0.0,0.0,0.0,0.0,-1.1012,-1.1279,-1.2077,-1.3332,-1.3501,-1.4003,-1.4852,-1.4074,-1.3972,-1.4699,0.0,0.0,0.0,0.0,0.0,0.0,0.0,0.0,0.0,0.0,0.0,0.0,0.0,0.0,0.0,0.0,0.0,0.0,0.0,0.0,0.0,0.0,0.0,0.0,0.0,0.0,0.0,0.0,0.0,0.0,0.0,0.0,0.0,0.0,0.0,0.0,0.0,0.0,0.0,-1.9715,-1.956,0.0,0.0,0.0,0.0,0.0,0.0,0.0,0.0,-2.0639,0.0,0.0,0.0,0.0,0.0,0.0,0.0,0.0,0.0,0.0,0.0,0.0,0.0,0.0,0.0,0.0,0.0,0.0,0.0,0.0,0.0,0.0,0.0,0.0,0.0,0.0,0.0,0.0,0.0,0.0,0.0,0.0,0.0,0.0,0.0,0.0,0.0,0.0,0.0,0.0,0.0,0.0,0.0,0.0,0.0,0.0,0.0,0.0,0.0,0.0,0.0,0.0,0.0,0.0,0.0,-1.1275,-1.2052,-1.2814,-1.3663,-1.4042,-1.459,-1.5295,-1.4666,-1.4707,0.0,0.0,0.0,0.0,0.0,0.0,0.0,0.0,0.0,0.0,0.0,0.0,0.0,0.0,0.0,0.0,0.0,0.0,0.0,0.0,0.0,0.0,0.0,0.0,0.0,0.0,0.0,0.0,0.0,0.0,0.0,0.0,0.0,0.0,0.0,0.0,0.0,0.0,0.0,0.0,-2.0296,-2.0053,-2.072,0.0,0.0,0.0,0.0,0.0,0.0,-2.0963,-2.085,0.0,0.0,0.0,0.0,0.0,0.0,0.0,0.0,0.0,0.0,0.0,0.0,0.0,0.0,0.0,0.0,0.0,0.0,0.0,0.0,0.0,0.0,0.0,0.0,0.0,0.0,0.0,0.0,0.0,0.0,0.0,0.0,0.0,0.0,0.0,0.0,0.0,0.0,0.0,0.0,0.0,0.0,0.0,0.0,0.0,0.0,0.0,0.0,0.0,0.0,0.0,0.0,0.0,0.0,0.0,-1.155,-1.2868,-1.3629,-1.3717,-1.4469,-1.5069,-1.5488,-1.4978,-1.5057,0.0,0.0,0.0,0.0,0.0,0.0,0.0,0.0,0.0,0.0,0.0,0.0,0.0,0.0,0.0,0.0,0.0,0.0,0.0,0.0,0.0,0.0,0.0,0.0,0.0,0.0,0.0,0.0,0.0,0.0,0.0,0.0,0.0,0.0,0.0,0.0,0.0,0.0,0.0,0.0,0.0,-2.0596,-2.1201,-2.0842,0.0,0.0,0.0,0.0,-2.0926,-2.1069,0.0,0.0,0.0,0.0,0.0,0.0,0.0,0.0,0.0,0.0,0.0,0.0,0.0,0.0,0.0,0.0,0.0,0.0,0.0,0.0,0.0,0.0,0.0,0.0,0.0,0.0,0.0,0.0,0.0,0.0,0.0,0.0,0.0,0.0,0.0,0.0,0.0,0.0,0.0,0.0,0.0,0.0,0.0,0.0,0.0,0.0,0.0,0.0,0.0,0.0,0.0,0.0,0.0,0.0,0.0,0.0,-1.2364,-1.3077,-1.3512,-1.3708,-1.435,-1.4824,-1.5001,-1.4194,-1.4354,0.0,0.0,0.0,0.0,0.0,0.0,0.0,0.0,0.0,0.0,0.0,0.0,0.0,0.0,0.0,0.0,0.0,0.0,0.0,0.0,0.0,0.0,0.0,0.0,0.0,0.0,0.0,0.0,0.0,0.0,0.0,0.0,0.0,0.0,0.0,0.0,0.0,0.0,0.0,0.0,0.0,-2.1046,-2.1648,-2.1476,-2.1193,0.0,0.0,-2.2086,-2.1665,-2.2074,0.0,0.0,0.0,0.0,0.0,0.0,0.0,0.0,0.0,0.0,0.0,0.0,0.0,0.0,0.0,0.0,0.0,0.0,0.0,0.0,0.0,0.0,0.0,0.0,0.0,0.0,0.0,0.0,0.0,0.0,0.0,0.0,0.0,0.0,0.0,0.0,0.0,0.0,0.0,0.0,0.0,0.0,0.0,0.0,0.0,0.0,0.0,0.0,0.0,0.0,0.0,0.0,0.0,0.0,0.0,-1.1733,-1.2214,-1.2513,-1.2695,-1.2826,-1.339,-1.3872,-1.4222,-1.3811,-1.4261,0.0,0.0,0.0,0.0,0.0,0.0,0.0,0.0,0.0,0.0,0.0,0.0,0.0,0.0,0.0,0.0,0.0,0.0,0.0,0.0,0.0,0.0,0.0,0.0,0.0,0.0,0.0,0.0,0.0,0.0,0.0,0.0,0.0,0.0,0.0,0.0,0.0,0.0,0.0,0.0,0.0,0.0,-2.1756,-2.1812,0.0,0.0,0.0,-2.2493,-2.1957,0.0,0.0,0.0,0.0,0.0,0.0,0.0,0.0,0.0,0.0,0.0,0.0,0.0,0.0,0.0,0.0,0.0,0.0,0.0,0.0,0.0,0.0,0.0,0.0,0.0,0.0,0.0,0.0,0.0,0.0,0.0,0.0,0.0,0.0,0.0,0.0,0.0,0.0,0.0,0.0,0.0,0.0,0.0,0.0,0.0,0.0,0.0,0.0,0.0,0.0,0.0,0.0,0.0,0.0,0.0,0.0,0.0,-1.196,-1.2126,-1.2182,-1.212,-1.2797,-1.3277,-1.3502,-1.3612,0.0,0.0,0.0,0.0,0.0,0.0,0.0,0.0,0.0,0.0,0.0,0.0,0.0,0.0,0.0,0.0,0.0,0.0,0.0,0.0,0.0,0.0,0.0,0.0,0.0,0.0,0.0,-2.1565,0.0,0.0,0.0,0.0,0.0,0.0,0.0,0.0,0.0,0.0,0.0,0.0,0.0,0.0,-2.2254,-2.1786,-2.1918,-2.2033,0.0,0.0,-2.2634,-2.2232,-2.3168,-2.3686,0.0,0.0,0.0,0.0,0.0,0.0,0.0,0.0,0.0,0.0,0.0,0.0,0.0,0.0,0.0,0.0,0.0,0.0,0.0,0.0,0.0,0.0,0.0,0.0,0.0,0.0,0.0,0.0,0.0,0.0,0.0,0.0,0.0,0.0,0.0,0.0,0.0,0.0,0.0,0.0,0.0,0.0,0.0,0.0,0.0,0.0,0.0,0.0,0.0,0.0,0.0,0.0,0.0,0.0,-1.1784,-1.1809,-1.223,-1.2343,-1.212,-1.2972,-1.3329,-1.3033,-1.3535,-1.396,0.0,0.0,0.0,0.0,0.0,0.0,0.0,0.0,0.0,0.0,0.0,0.0,0.0,0.0,0.0,0.0,0.0,0.0,0.0,0.0,0.0,0.0,0.0,0.0,0.0,0.0,0.0,0.0,0.0,0.0,0.0,0.0,0.0,0.0,0.0,0.0,0.0,0.0,0.0,0.0,0.0,-2.2178,-2.1747,-2.1629,-2.1654,0.0,-2.2239,-2.2478,-2.2541,-2.3514,-2.398,-2.3027,0.0,0.0,0.0,0.0,0.0,0.0,0.0,0.0,0.0,0.0,0.0,0.0,0.0,0.0,0.0,0.0,0.0,0.0,0.0,0.0,0.0,0.0,0.0,0.0,0.0,0.0,0.0,0.0,0.0,0.0,0.0,0.0,0.0,0.0,0.0,0.0,0.0,0.0,0.0,0.0,0.0,0.0,0.0,0.0,0.0,0.0,0.0,0.0,0.0,0.0,0.0,0.0,0.0,-1.1205,-1.1784,-1.1759,-1.1794,-1.1809,-1.2613,-1.2972,-1.2674,-1.3427,-1.383,0.0,0.0,0.0,0.0,0.0,0.0,0.0,0.0,0.0,0.0,0.0,0.0,0.0,0.0,0.0,0.0,0.0,0.0,0.0,0.0,0.0,0.0,0.0,0.0,0.0,0.0,0.0,0.0,-2.2713,-2.2629,-2.2128,0.0,0.0,0.0,0.0,0.0,0.0,0.0,0.0,0.0,0.0,-2.2063,-2.228,-2.2218,0.0,0.0,-2.2722,-2.3094,-2.2446,-2.3491,-2.4037,-2.2857,-2.2683,0.0,0.0,0.0,0.0,0.0,0.0,0.0,0.0,0.0,0.0,0.0,0.0,0.0,0.0,0.0,0.0,0.0,0.0,0.0,0.0,0.0,0.0,0.0,0.0,0.0,0.0,0.0,0.0,0.0,0.0,0.0,0.0,0.0,0.0,0.0,0.0,0.0,0.0,0.0,0.0,0.0,0.0,0.0,0.0,0.0,0.0,0.0,0.0,0.0,0.0,0.0,0.0,-1.0515,-1.1551,-1.1466,-1.156,-1.1809,-1.2544,-1.292,-1.2842,-1.3549,-1.3912,0.0,0.0,0.0,0.0,0.0,0.0,0.0,0.0,0.0,0.0,0.0,0.0,0.0,0.0,0.0,0.0,0.0,0.0,0.0,0.0,0.0,0.0,0.0,0.0,0.0,0.0,0.0,0.0,-2.2464,-2.2315,-2.2061,0.0,0.0,0.0,0.0,0.0,0.0,0.0,0.0,0.0,0.0,-2.1828,-2.2155,-2.2159,-2.2076,-2.1924,-2.2661,-2.3054,-2.2496,-2.3317,-2.3677,-2.2763,0.0,0.0,0.0,0.0,0.0,0.0,0.0,0.0,0.0,0.0,0.0,0.0,0.0,0.0,0.0,0.0,0.0,0.0,0.0,0.0,0.0,0.0,0.0,0.0,0.0,0.0,0.0,-2.2448,0.0,0.0,-2.3114,0.0,0.0,0.0,0.0,0.0,0.0,0.0,0.0,0.0,0.0,0.0,0.0,0.0,0.0,0.0,0.0,0.0,0.0,0.0,0.0,0.0,0.0,-0.9914,-1.0978,-1.1458,-1.1926,-1.2243,-1.2903,-1.3329,-1.345,-1.4001,-1.4344,-1.442,0.0,0.0,0.0,0.0,0.0,0.0,0.0,0.0,0.0,0.0,0.0,0.0,0.0,0.0,0.0,0.0,0.0,0.0,0.0,0.0,0.0,0.0,0.0,0.0,0.0,0.0,-2.0478,-2.1174,-2.1843,0.0,0.0,0.0,0.0,0.0,0.0,0.0,0.0,0.0,-2.0315,-2.0961,-2.1384,-2.1104,-2.1167,-2.1344,-2.165,-2.1812,-2.2074,-2.2738,-2.2885,-2.2921,0.0,0.0,0.0,0.0,0.0,0.0,0.0,0.0,0.0,0.0,0.0,0.0,0.0,0.0,0.0,0.0,0.0,0.0,0.0,0.0,0.0,0.0,0.0,0.0,0.0,0.0,0.0,-2.1365,-2.4734,0.0,0.0,0.0,0.0,0.0,0.0,0.0,0.0,0.0,0.0,0.0,0.1686,0.1028,0.0,0.0,0.0,0.0,0.0,0.0,0.0,0.0,0.0,0.0,0.0,0.0,-0.8872,-1.0422,-1.0974,-1.1365,-1.1685,-1.2834,-1.339,-1.3398,-1.435,-1.4917,-1.4978,0.0,0.0,0.0,0.0,0.0,0.0,0.0,0.0,0.0,0.0,0.0,0.0,0.0,0.0,0.0,0.0,0.0,0.0,0.0,0.0,0.0,0.0,0.0,0.0,0.0,-2.1576,0.0,0.0,0.0,0.0,0.0,0.0,0.0,0.0,0.0,0.0,-2.04,-2.0371,-2.0335,-2.038,-2.0563,-2.0905,-2.0893,-2.1064,0.0,0.0,0.0,0.0,0.0,0.0,0.0,0.0,0.0,0.0,0.0,0.0,0.0,0.0,-2.1938,-2.0616,-2.0576,-2.0753,-2.0542,0.0,0.0,0.0,0.0,0.0,0.0,0.0,0.0,0.0,0.0,0.0,0.0,0.0,0.0,-2.0619,-2.3689,-2.0938,0.0,0.0,0.0,0.0,0.0,0.0,0.0,0.0,-0.1322,0.0988,0.3363,0.2865,0.2309,0.1749,0.1175,0.0,0.0,0.0,0.0,0.0,0.0,0.0,0.0,0.0,-0.7817,-0.9557,-1.0295,-1.0912,-1.1538,-1.2642,-1.339,-1.364,-1.4697,-1.5379,-1.5644,-1.6356,-1.6658,0.0,0.0,0.0,0.0,0.0,0.0,0.0,0.0,0.0,0.0,0.0,0.0,0.0,0.0,0.0,0.0,0.0,0.0,0.0,0.0,0.0,0.0,0.0,-2.0977,0.0,0.0,0.0,0.0,0.0,0.0,0.0,0.0,0.0,-1.9968,-2.0171,-2.0316,-2.0438,-2.0754,-2.1026,-2.1197,0.0,0.0,0.0,0.0,0.0,0.0,0.0,-2.2253,-2.2087,-2.2386,-2.2869,-2.3616,-2.3851,-2.3799,-2.3345,0.0,0.0,-2.099,-2.1118,-2.1304,-2.0795,-2.0595,-2.0526,-2.0526,-2.0308,-2.0088,0.0,0.0,0.0,0.0,-2.5358,0.0,0.0,0.0,-2.1741,-1.9647,0.0,-1.3367,0.0,0.0,0.0,0.0,-1.6163,-0.6478,0.0,0.0,0.4056,0.5853,0.4877,0.4931,0.4359,0.3153,0.281,0.203,0.0861,-0.0859,0.0,0.0,0.0,0.0,0.0,0.0,-0.6818,-0.8581,-0.9494,-1.0577,-1.1888,-1.2512,-1.3321,-1.4327,-1.5069,-1.5738,-1.6291,-1.6613,-1.7213,-1.8133,-1.7903,0.0,0.0,0.0,0.0,0.0,0.0,0.0,0.0,0.0,0.0,0.0,0.0,0.0,0.0,0.0,0.0,0.0,0.0,0.0,0.0,-1.9908,0.0,0.0,0.0,0.0,0.0,0.0,0.0,0.0,0.0,-1.9181,-1.9182,-1.9976,-2.0579,-2.0607,0.0,0.0,0.0,0.0,-2.2643,-2.1562,-2.2079,-2.2506,-2.2233,-2.2777,-2.3244,-2.3447,0.0,0.0,-2.4506,-2.4303,-2.3892,-2.3273,-2.3295,-2.2946,-2.1336,-2.135,-2.135,-2.0531,-2.0135,-1.9889,-1.9819,-1.9602,-1.9083,-2.1131,0.0,0.0,0.0,0.0,-2.074,-1.9123,-1.6355,-1.5625,-1.5027,-1.4127,-0.5328,0.0,0.0,0.0,0.0,0.0,0.0,0.0201,0.3666,0.5581,0.6125,0.5676,0.5274,0.4686,0.3969,0.354,0.2807,0.1767,0.098,-0.0692,-0.3103,0.0,0.0,0.0,0.0,-0.6531,-0.8165,-0.9017,-0.9812,-1.0577,-1.212,-1.3768,-1.542,-1.6036,-1.6482,-1.6652,-1.7521,-1.7967,-1.793,-1.8277,0.0,0.0,0.0,0.0,0.0,0.0,0.0,0.0,0.0,0.0,0.0,0.0,0.0,0.0,0.0,0.0,0.0,0.0,0.0,-1.9912,-2.0324,-2.0586,0.0,0.0,0.0,0.0,0.0,0.0,0.0,0.0,0.0,-1.9523,-1.9747,-2.0127,0.0,0.0,-2.0946,-2.114,-2.1643,-2.2134,-2.2598,-2.2628,0.0,-2.3698,-2.3603,-2.3492,-2.3774,-2.4258,-2.4507,-2.4221,-2.419,-2.416,-2.3958,-2.3366,-2.2668,-2.2163,-2.2066,-2.1862,-2.1143,-2.0834,-2.0772,-2.0772,-2.0597,-2.0421,-2.1105,-2.139,-1.9197,-1.8565,-1.9027,-1.9223,-1.7944,-1.5624,-1.446,-1.3777,-1.2773,-0.2244,-0.0466,-0.5184,-0.2229,0.0,0.0,0.0,0.3645,0.6744,0.6944,0.6883,0.6535,0.6465,0.5935,0.5014,0.4938,0.414,0.2744,0.2452,0.0962,-0.1706,0.0,-0.296,-0.4814,-0.4908,-0.5779,-0.7519,-0.8488,-0.925,-1.0021,-1.2181,-1.4016,-1.541,-1.6093,-1.6436,-1.6436,-1.7611,-1.8116,-1.778,-1.8406,-1.8656,0.0,0.0,0.0,0.0,0.0,0.0,0.0,0.0,0.0,0.0,0.0,-2.0747,-2.1161,0.0,0.0,0.0,-1.9964,-1.9958,-1.9471,-2.0078,0.0,0.0,0.0,0.0,0.0,0.0,0.0,-2.0159,-2.0003,-1.9952,-1.9961,-1.9781,-1.9924,-2.0777,-2.1055,-2.1343,-2.1648,0.0,-2.2918,-2.3335,-2.3551,-2.3883,-2.4464,-2.4652,-2.4663,-2.4725,-2.4783,-2.4845,-2.4504,-2.4283,-2.4221,-2.4118,-2.3195,-2.2359,-2.2137,-2.1889,-2.1639,-2.1285,-2.1106,-2.0892,-2.0764,-2.0764,-2.0635,-1.7584,-1.2676,-1.5956,-1.7836,-1.8812,-1.9287,-1.9507,-1.9368,-1.5521,-1.3757,-1.2576,-0.213,0.2538,0.2478,0.4504,0.0,0.005,0.5229,0.7843,0.8511,0.8247,0.7787,0.733,0.8122,0.7727,0.6272,0.6593,0.5793,0.3936,0.3651,0.2315,-0.0064,-0.0451,-0.1649,-0.3625,-0.4031,-0.4981,-0.6647,-0.7899,-0.9116,-1.0301,-1.2645,-1.4219,-1.4877,-1.5625,-1.6042,-1.609,-1.7164,-1.7779,-1.7767,-1.8417,-1.8744,-1.8722,0.0,0.0,0.0,0.0,0.0,0.0,0.0,0.0,0.0,0.0,0.0,0.0,0.0,0.0,0.0,-1.9219,0.0,-1.9214,-1.9534,0.0,0.0,0.0,-2.0408,-2.0979,-1.9773,-1.9257,-2.0242,0.0,0.0,-2.0286,-1.9865,-1.9913,-2.108,-2.214,-2.2913,-2.2938,-2.3806,-2.4385,-2.3737,-2.4583,-2.5179,-2.5003,-2.5692,-2.6061,-2.5598,-2.5314,-2.4867,-2.4741,-2.4381,-2.4073,-2.4015,-2.2907,-2.1928,-2.169,-2.1037,-2.0613,-2.1031,-2.0839,-2.0506,-2.0366,-2.0237,-1.9966,-1.3507,-1.1831,-0.8291,-0.7113,-0.7959,-1.2547,-0.9671,-0.237,-0.5582,-0.4556,-0.0058,0.242,0.4025,0.4893,0.5952,0.6038,0.5417,0.7239,0.8189,0.8511,0.87,0.8501,0.7977,0.8317,0.8047,0.7381,0.7391,0.6662,0.52,0.4713,0.3733,0.225,0.1967,0.0323,-0.2707,-0.4061,-0.5355,-0.6612,-0.811,-1.0082,-1.2505,-1.4115,-1.5305,-1.623,-1.6838,-1.7195,-1.7195,-1.791,-1.8327,-1.8316,-1.8918,-1.8861,-1.7922,-1.9308,0.0,0.0,0.0,0.0,0.0,0.0,0.0,0.0,0.0,-1.9739,-2.0035,0.0,-1.8572,0.0,-1.877,-1.9257,-2.0015,-2.029,0.0,0.0,-2.0579,-2.0746,-2.0643,-2.0645,-2.0377,-1.9784,-1.9828,-1.9814,-1.9633,-1.9459,-1.9592,-2.0301,-2.1162,-2.1975,-2.2871,-2.3568,-2.4123,-2.436,-2.497,-2.5692,-2.5977,-2.606,-2.5683,-2.4724,-2.4408,-2.4163,-2.3662,-2.3484,-2.3305,-2.3245,-2.2249,-2.1491,-2.1553,-2.0473,-1.9911,-2.0506,-2.0646,-2.07,-2.0892,-2.0495,-2.0031,-0.6465,-0.8175,-0.3453,-0.0579,0.0345,-0.5924,-0.4961,0.0459,-0.3031,-0.2772,0.047,0.3262,0.5446,0.692,0.7125,0.7451,0.7842,0.8166,0.8624,0.9092,0.9087,0.9017,0.8689,0.8641,0.8441,0.8042,0.7982,0.5657,0.1709,0.4322,0.1829,-0.5648,-0.2624,-0.3698,-0.8603,-0.4893,-0.3573,-0.5057,-0.8138,-1.1185,-1.4302,-1.5839,-1.6825,-1.7266,-1.762,-1.7645,-1.7336,-1.7926,-1.8311,-1.8416,-1.9056,-1.9095,-1.851,-1.9288,-1.9595,0.0,0.0,0.0,0.0,0.0,0.0,0.0,0.0,0.0,0.0,0.0,-1.8302,-1.8827,-1.9101,-1.9517,-2.0237,-2.0404,-2.0446,-2.0385,-2.0596,-2.0722,-2.0531,-2.0481,-2.0279,-1.9817,-1.9791,-1.9766,-1.9639,-1.9394,-1.9415,-2.0009,-2.0483,-2.1187,-2.2375,-2.3057,-2.3638,-2.4255,-2.4942,-2.5439,-2.5849,-2.5453,-2.4865,-2.4234,-2.3577,-2.31,-2.2677,-2.2384,-2.2199,-2.2137,-2.1376,-2.0677,-2.0869,-1.9966,-1.933,-1.9639,-1.9846,-1.9977,-2.0172,-1.9901,-1.9507,0.2282,-0.1597,0.1105,0.4195,0.6794,0.0843,-0.1824,-0.2036,-0.2664,-0.3082,-0.296,0.2977,0.663,0.838,0.8158,0.8252,0.8608,0.8678,0.9075,0.967,0.9472,0.9402,0.9402,0.9022,0.8286,0.7297,0.7991,0.3666,-0.476,0.2181,-0.1883,-1.5764,-1.0059,-1.0188,-1.6191,-0.7067,-0.3176,-0.5192,-0.9479,-1.3192,-1.6122,-1.7727,-1.8408,-1.8184,-1.8115,-1.7813,-1.7205,-1.769,-1.8079,-1.832,-1.8887,-1.931,-1.9556,-1.9175,-1.9409,0.0,-1.9481,0.0,0.0,0.0,0.0,0.0,0.0,0.0,0.0,-1.8992,-1.8768,-1.9797,-1.9828,-1.9958,-2.0323,-2.0393,-2.0476,-2.0607,-2.0592,-2.0556,-2.0598,-1.9977,-1.9671,-1.9966,-1.9462,-1.933,-1.9694,-1.9396,-1.933,-1.9704,-1.9933,-2.0437,-2.1569,-2.2335,-2.2952,-2.3636,-2.4195,-2.4443,-2.4513,-2.4124,-2.38,-2.3564,-2.2774,-2.199,-2.199,-2.1491,-2.1135,-2.106,-2.0613,-2.0161,-2.0096,-1.9584,-1.9054,-1.8911,-1.9054,-1.9121,-1.9044,-1.8967,-1.8442,1.1327,1.0401,1.0718,1.1361,1.1696,0.8701,0.6641,0.5516,0.5382,0.4821,0.4196,0.6169,0.7468,0.8364,0.9548,0.9431,0.8361,0.9268,0.953,0.9145,0.9664,0.9919,1.004,0.9344,0.6071,0.1277,0.6191,0.1655,-1.1669,-0.4239,-0.5535,-1.4923,-1.345,-1.3726,-1.5816,0.0,0.0,0.0,-1.7389,-1.8306,-1.87,-1.9437,-1.9564,-1.9086,-1.8814,0.0,-1.8224,-1.8202,-1.8262,-1.8311,-1.8962,0.0,0.0,0.0,0.0,0.0,0.0,0.0,0.0,0.0,0.0,0.0,-2.102,-2.1006,-2.0398,-1.9869,-1.9946,-2.08,-2.0522,-2.0496,-2.0961,-2.0985,-2.1156,-2.1424,-2.0934,-2.0587,-2.059,-1.9977,-1.9539,-1.9341,-1.9131,-1.9008,-1.8731,-1.8875,-1.8942,-1.8731,-1.8998,-1.9584,-2.0355,-2.1112,-2.1479,-2.1678,-2.2311,-2.2566,-2.2566,-2.2518,-2.2299,-2.1779,-2.1553,-2.1313,-2.125,-2.1187,-2.1071,-2.1071,-2.0549,-2.0096,-2.0096,-1.9584,-1.8998,-1.8834,-1.8834,-1.8834,-1.8834,-1.8499,-1.8104,1.4438,0.8622,1.4515,1.5735,0.0,1.2716,1.1978,1.1313,0.8821,0.8473,0.9633,0.9212,0.9593,1.0731,1.0731,1.0312,0.9716,0.9655,0.9789,1.0055,0.9995,1.0327,1.0752,0.5964,0.2145,-0.0807,-0.1797,-0.785,-1.789,-1.1284,-1.3506,-2.4537,-2.0809,-2.0773,-2.4437,-2.3269,-2.1158,-1.824,-1.9624,-2.0459,-2.0641,-2.1906,-2.2198,-2.1244,-2.1083,0.0,0.0,0.0,0.0,0.0,0.0,0.0,0.0,-2.0958,0.0,-2.2034,-2.1267,-2.0998,-2.1321,-2.0967,-2.0618,-2.0445,-2.0985,-2.1102,-2.0556,-2.0653,-2.0897,-2.1185,-2.1008,-2.0996,-2.1198,-2.1233,-2.1285,-2.1411,-2.1094,-2.0828,-2.0549,-2.0172,-1.9726,-1.9407,-1.9198,-1.8875,-1.8405,-1.8529,-1.8607,-1.8337,-1.8539,-1.8931,-1.9528,-2.0172,-2.0677,-2.106,-2.1353,-2.1581,-2.1581,-2.1581,-2.1444,-2.1123,-2.0805,-2.0613,-2.0613,-2.0355,-2.0107,-2.0107,-1.9846,-1.9584,-1.9518,-1.9131,-1.8607,-1.8182,-1.7668,-1.7385,-1.7472,-1.7696,-1.7765,1.7434,0.7938,1.7739,1.9587,1.604,1.5918,1.5736,1.5324,1.1153,0.0,0.0,1.2305,1.2269,1.315,1.1792,1.1211,1.1217,1.0176,1.0176,1.1086,1.0604,1.0811,1.118,0.2571,-0.1916,-0.2856,-0.9868,-1.766,-2.5212,-1.842,-2.1672,-3.3156,-2.8508,-2.8152,-3.3075,-3.1933,-2.7403,-2.033,-2.1351,-2.2403,-2.2872,-2.442,-2.4654,-2.3334,-2.3279,-2.2792,-2.1869,-2.1801,-2.1579,-2.1087,-2.0949,-2.0779,-2.0601,-2.1296,-2.201,-2.2435,-2.0795,-1.9969,-2.0419,-1.9957,-1.9745,-2.0074,-2.0613,-2.0905,-2.084,-2.1295,-2.1463,-2.1232,-2.1227,-2.1198,-2.1221,-2.1233,-2.1233,-2.1233,-2.1094,-2.0828,-2.0571,-2.0172,-1.9726,-1.9462,-1.9008,-1.8664,-1.8066,-1.793,-1.7998,-1.8066,-1.8124,-1.8327,-1.8942,-1.9518,-2.0031,-2.0484,-2.0613,-2.0666,-2.0741,-2.0677,-2.0741,-2.0613,-2.0226,-1.9977,-1.9846,-1.9462,-1.9131,-1.9065,-1.8942,-1.8942,-1.8798,-1.8462,-1.793,-1.7373,-1.6428,-1.5649,-1.5903,-1.6455,-1.6793,2.6475,2.5875,2.5925,2.4675,2.247,2.0712,1.8385,1.5894,1.5272,1.4854,1.4574,1.5604,1.499,1.3209,1.2778,1.2296,1.173,1.1614,1.1354,1.0798,1.1423,1.1908,1.1715,0.3034,-0.4175,-0.9546,-1.1869,-1.9834,-3.1042,-2.5113,-2.5847,-3.3455,-3.329,-3.2812,-3.3169,-3.2692,-3.1284,-2.8951,-2.7987,-2.7174,-2.6589,-2.6181,-2.528,-2.3891,-2.3609,-2.2977,-2.2021,-2.1911,-2.1635,-2.1288,-2.0802,-2.0361,-1.9924,-2.134,-2.1655,-2.0634,-2.0466,-2.0295,-1.9922,-1.9684,-1.9727,-2.0096,-2.0161,-2.0707,-2.1868,-2.1365,-2.1146,-2.1353,-2.0921,-2.0752,-2.1094,-2.1169,-2.1169,-2.1169,-2.0624,-2.0237,-2.0237,-1.966,-1.9208,-1.8808,-1.8192,-1.7774,-1.7245,-1.6881,-1.6862,-1.7235,-1.7491,-1.7833,-1.8462,-1.8942,-1.9131,-1.9198,-1.9264,-1.9407,-1.9386,-1.9396,-1.9462,-1.9396,-1.9396,-1.933,-1.933,-1.9131,-1.8931,-1.8539,-1.8405,-1.8202,-1.7852,-1.7588,-1.7304,-1.6811,-1.6018,-1.5376,-1.5188,-1.4824,-1.4601,3.0498,3.1813,2.9934,2.7904,2.5935,2.4811,2.2994,2.085,2.0076,1.8177,1.5687,1.648,1.5904,1.4425,1.5217,1.4698,1.3001,1.2579,1.2232,1.1604,0.7499,0.5788,0.4971,-0.6719,-1.4316,-1.7644,-2.2348,-2.8096,-3.3907,-3.0844,-3.1049,-3.4617,-3.4223,-3.3747,-3.3432,-3.3021,-3.2592,-3.2066,-3.0603,-2.9258,-2.8135,-2.7627,-2.6927,-2.5979,-2.5625,-2.5085,-2.4232,-2.4177,-2.3683,-2.2681,-2.2528,-2.1935,-2.0899,-2.1789,-2.197,-2.1012,-2.0819,-2.0484,-1.9879,-1.8988,-1.8798,-1.9562,-1.9573,-1.9966,-2.1008,-2.0688,-2.0602,-2.0864,-2.0719,-2.0688,-2.0764,-2.1083,-2.1083,-2.0624,-2.0302,-2.0291,-2.0495,-1.9922,-1.9396,-1.9264,-1.8499,-1.7687,-1.7028,-1.6306,-1.5956,-1.6315,-1.6862,-1.7619,-1.8259,-1.825,-1.8162,-1.8104,-1.8259,-1.8327,-1.8037,-1.8385,-1.8596,-1.8674,-1.8942,-1.9065,-1.9065,-1.8865,-1.8607,-1.8337,-1.8066,-1.7725,-1.7373,-1.7166,-1.689,-1.6603,-1.5675,-1.5029,-1.4673,-1.3818,-1.3382,3.2256,3.3557,3.2307,3.0476,2.842,2.7753,2.6794,2.5554,2.4285,2.1474,1.7909,1.6645,1.5961,1.5956,1.7423,1.5644,1.1895,1.2742,1.1179,0.7306,0.2657,-0.0184,-0.2715,-1.5972,-2.2512,-2.3571,-3.0735,-3.4607,-3.4732,-3.4626,-3.4668,-3.4831,-3.4255,-3.3882,-3.3721,-3.3346,-3.3183,-3.3198,-3.1969,-3.0706,-2.9507,-2.9178,-2.8685,-2.8015,-2.76,-2.7041,-2.6428,-2.6229,-2.5563,-2.4323,-2.4216,-2.3603,-2.2372,-2.2543,-2.2445,-2.1892,-2.1227,-2.0484,-1.9683,-1.8519,-1.8259,-1.9121,-1.8911,-1.8988,-1.9507,-1.9639,-1.9814,-2.0202,-2.0322,-2.0302,-2.0226,-2.0741,-2.0805,-1.9966,-1.9835,-2.0042,-2.0635,-1.9933,-1.9462,-1.9639,-1.867,-1.7522,-1.6784,-1.5745,-1.5251,-1.5675,-1.6576,-1.7482,-1.7988,-1.7765,-1.7491,-1.7139,-1.7364,-1.7432,-1.701,-1.7354,-1.7852,-1.8066,-1.8327,-1.8519,-1.8519,-1.8327,-1.791,-1.7638,-1.7217,-1.6881,-1.6811,-1.6455,-1.6175,-1.6035,-1.5392,-1.4601,-1.4163,-1.3011,-1.2291,3.2579,3.2571,3.335,3.2656,3.0537,2.8903,2.7976,2.7488,2.6998,2.5095,2.1795,1.6322,1.5329,1.725,1.7794,1.2558,0.5009,1.1248,0.6479,-0.5599,-0.1454,-0.2249,-0.9408,-1.8423,-2.2473,-2.3665,-3.073,-3.4476,-3.4647,-3.4498,-3.4498,-3.4604,-3.4498,-3.4321,-3.4062,-3.3935,-3.3797,-3.3569,-3.3067,-3.2403,-3.1576,-3.0899,-3.0043,-2.8919,-2.8417,-2.7834,-2.7136,-2.6573,-2.6,-2.5453,-2.4908,-2.4434,-2.3878,-2.3484,-2.2932,-2.2309,-2.1262,-2.0215,-1.932,-1.9075,-1.8865,-1.8808,-1.8405,-1.8134,-1.8212,-1.8212,-1.8654,-1.9497,-1.933,-1.9187,-1.9441,-2.0096,-2.015,-1.9441,-1.9243,-1.9243,-1.9726,-1.9054,-1.8643,-1.8875,-1.793,-1.6757,-1.6167,-1.4911,-1.4482,-1.5666,-1.6507,-1.7285,-1.7862,-1.7794,-1.7226,-1.6306,-1.6237,-1.6515,-1.6655,-1.6576,-1.6862,-1.7295,-1.7295,-1.7354,-1.7569,-1.751,-1.7157,-1.6437,-1.5728,-1.5596,-1.5321,-1.4966,-1.4966,-1.5259,-1.4903,-1.4466,-1.3295,-1.2211,-1.1626,3.1891,3.1653,3.2061,3.2062,3.1662,3.1533,3.0798,2.9662,2.9467,2.8073,2.5462,2.0767,1.8639,1.7816,0.7026,0.5023,1.1059,0.4231,-0.0057,-0.3455,-0.8792,-1.4028,-1.7909,-2.5324,-2.92,-2.9755,-3.2815,-3.4409,-3.4771,-3.487,-3.4889,-3.4889,-3.4831,-3.4752,-3.4674,-3.442,-3.4298,-3.4338,-3.3787,-3.3183,-3.2598,-3.1551,-3.0666,-2.9919,-2.9377,-2.8795,-2.829,-2.7769,-2.7232,-2.6582,-2.5972,-2.5161,-2.4137,-2.3787,-2.3148,-2.2099,-2.1049,-2.0462,-2.0537,-1.9344,-1.8566,-1.8432,-1.8046,-1.7716,-1.7442,-1.7725,-1.8202,-1.8596,-1.8854,-1.9044,-1.9441,-1.977,-1.9824,-1.9639,-1.9299,-1.9375,-2.0442,-1.9846,-1.9441,-1.9187,-1.8345,-1.7239,-1.6298,-1.5188,-1.5125,-1.6158,-1.6724,-1.7148,-1.7794,-1.7226,-1.6446,-1.5807,-1.5525,-1.5251,-1.5313,-1.5675,-1.5886,-1.6237,-1.6446,-1.6655,-1.6872,-1.6446,-1.5948,-1.5587,-1.51,-1.4752,-1.4553,-1.441,-1.441,-1.4553,-1.4042,-1.3462,-1.2959,-1.215,-1.1558,3.1027,3.1021,3.1247,3.1638,3.2119,3.3197,3.2737,3.1413,3.1465,3.054,2.8645,2.6099,2.3473,1.8393,0.04,-0.0823,0.8329,-0.2673,-0.8452,-0.7872,-1.7544,-2.3048,-2.6075,-3.0915,-3.4023,-3.4542,-3.4269,-3.4508,-3.5053,-3.5187,-3.52,-3.5098,-3.5035,-3.4982,-3.4944,-3.4675,-3.4666,-3.4736,-3.4271,-3.3797,-3.3299,-3.2494,-3.17,-3.1077,-3.0435,-2.9956,-2.9548,-2.9009,-2.8418,-2.7724,-2.7063,-2.6212,-2.5038,-2.4486,-2.3526,-2.2163,-2.1467,-2.1141,-2.1342,-1.9651,-1.8556,-1.8355,-1.8046,-1.7638,-1.7364,-1.751,-1.7657,-1.7716,-1.8182,-1.8499,-1.8834,-1.8957,-1.9023,-1.9233,-1.89,-1.9299,-2.0313,-2.0042,-1.9507,-1.9462,-1.8355,-1.7385,-1.6289,-1.5675,-1.5745,-1.6655,-1.6932,-1.7157,-1.7725,-1.7079,-1.6376,-1.6097,-1.5587,-1.5037,-1.4338,-1.476,-1.518,-1.5251,-1.5534,-1.5737,-1.6245,-1.5534,-1.5092,-1.51,-1.4617,-1.4553,-1.4768,-1.4625,-1.441,-1.4266,-1.376,-1.3105,-1.3105,-1.2291,-1.1855,3.0094,3.0594,3.1989,3.208,3.1712,3.2802,3.2851,3.202,3.2778,3.2255,3.1016,3.1459,2.949,2.4044,0.4943,-0.5193,-0.5881,-0.7684,-1.6391,-2.7629,-2.4684,-2.6253,-3.3389,-3.3938,-3.4232,-3.4695,-3.4597,-3.4775,-3.5268,-3.5364,-3.5288,-3.5114,-3.5072,-3.4889,-3.4734,-3.4773,-3.4693,-3.458,-3.4577,-3.4298,-3.3884,-3.3936,-3.3418,-3.2431,-3.1775,-3.1206,-3.0813,-3.0128,-2.9456,-2.8949,-2.8225,-2.757,-2.6968,-2.5699,-2.4231,-2.282,-2.2857,-2.2421,-2.1095,-2.0182,-1.9441,-1.8854,-1.8395,-1.7998,-1.7872,-1.7432,-1.707,-1.6932,-1.6991,-1.7139,-1.7354,-1.7531,-1.7531,-1.7765,-1.8046,-1.8576,-1.9131,-1.8921,-1.871,-1.8834,-1.7872,-1.6775,-1.5807,-1.5807,-1.6367,-1.6932,-1.7079,-1.7226,-1.7794,-1.7862,-1.7442,-1.6941,-1.6585,-1.6167,-1.4625,-1.4474,-1.4689,-1.4625,-1.4553,-1.4482,-1.4776,-1.4999,-1.4832,-1.4816,-1.476,-1.4911,-1.5259,-1.5259,-1.5117,-1.4689,-1.389,-1.3382,-1.3317,-1.2439,-1.2003,2.8184,2.8761,3.0289,3.0634,3.0317,3.1661,3.1903,3.1419,3.237,3.2466,3.216,3.299,3.1259,2.6995,1.7501,0.9001,0.1434,-0.9828,-1.9194,-2.5578,-2.8068,-3.1263,-3.402,-3.4141,-3.4389,-3.495,-3.4812,-3.4883,-3.5273,-3.5411,-3.5449,-3.5416,-3.53,-3.5171,-3.5086,-3.5088,-3.5001,-3.4791,-3.4866,-3.4682,-3.4227,-3.4179,-3.3957,-3.3505,-3.2606,-3.1917,-3.1456,-3.087,-3.0319,-2.9793,-2.9134,-2.8275,-2.7309,-2.5859,-2.4799,-2.4231,-2.3722,-2.3144,-2.2494,-2.1141,-2.0193,-1.9879,-1.9212,-1.8674,-1.8319,-1.7725,-1.6964,-1.6096,-1.6,-1.6237,-1.6585,-1.6932,-1.7619,-1.8643,-1.8509,-1.8365,-1.8747,-1.8824,-1.8767,-1.8277,-1.7609,-1.7276,-1.7217,-1.7285,-1.7501,-1.792,-1.791,-1.7988,-1.8066,-1.7852,-1.7432,-1.7276,-1.7001,-1.6507,-1.5587,-1.4816,-1.4545,-1.4129,-1.3992,-1.4346,-1.4641,-1.4633,-1.4537,-1.4752,-1.4903,-1.4617,-1.4752,-1.4903,-1.4903,-1.4681,-1.3882,-1.3528,-1.3455,-1.2586,-1.2224,2.696,2.747,2.8837,2.9166,2.891,3.0442,3.0681,3.0123,3.1346,3.1666,3.1603,3.3147,3.2026,2.8728,2.6348,1.9357,0.7612,-1.0468,-2.1442,-2.554,-3.1229,-3.418,-3.4717,-3.4459,-3.4661,-3.5245,-3.5124,-3.5143,-3.5405,-3.5538,-3.5589,-3.5601,-3.5483,-3.5397,-3.5355,-3.5304,-3.5179,-3.502,-3.5003,-3.4846,-3.4558,-3.4394,-3.4279,-3.4105,-3.3441,-3.2737,-3.2092,-3.1681,-3.121,-3.0535,-2.9935,-2.9009,-2.7648,-2.6622,-2.5926,-2.5562,-2.4842,-2.4275,-2.4,-2.2662,-2.1475,-2.0825,-2.0298,-1.9672,-1.8936,-1.791,-1.6867,-1.6087,-1.5632,-1.5816,-1.6167,-1.6811,-1.7706,-1.8643,-1.8297,-1.7939,-1.791,-1.7988,-1.7726,-1.7326,-1.7696,-1.8056,-1.8202,-1.8144,-1.8212,-1.8482,-1.8414,-1.8347,-1.8212,-1.7862,-1.7432,-1.7569,-1.7423,-1.701,-1.6367,-1.5799,-1.5376,-1.4966,-1.4346,-1.4489,-1.4625,-1.4474,-1.4474,-1.4752,-1.4609,-1.425,-1.4178,-1.4402,-1.4402,-1.4394,-1.4034,-1.3608,-1.3244,-1.2732,-1.2291,2.6466,2.6732,2.7777,2.7939,2.7743,2.9163,2.9194,2.8478,2.9842,2.9867,2.9408,3.2224,3.1367,2.8984,2.7832,2.251,0.9345,-0.9274,-2.3107,-3.1424,-3.3543,-3.4546,-3.5284,-3.4948,-3.5032,-3.5582,-3.557,-3.56,-3.5669,-3.5726,-3.5708,-3.5611,-3.5546,-3.5512,-3.5495,-3.534,-3.5209,-3.5108,-3.502,-3.4869,-3.4807,-3.4647,-3.4476,-3.4316,-3.4203,-3.3715,-3.2809,-3.2583,-3.2074,-3.1312,-3.0764,-2.9751,-2.8498,-2.8148,-2.7773,-2.6909,-2.6404,-2.5898,-2.5232,-2.4412,-2.3178,-2.2019,-2.1478,-2.0997,-1.9966,-1.8247,-1.7406,-1.7784,-1.6444,-1.5632,-1.5826,-1.6549,-1.707,-1.6811,-1.7189,-1.7248,-1.6567,-1.5948,-1.5683,-1.6245,-1.756,-1.8462,-1.8279,-1.8347,-1.8607,-1.8617,-1.8414,-1.8269,-1.8347,-1.8144,-1.8008,-1.8008,-1.7862,-1.751,-1.7148,-1.6853,-1.6428,-1.6009,-1.5251,-1.4911,-1.4966,-1.4887,-1.4736,-1.4807,-1.4163,-1.3803,-1.3875,-1.4027,-1.4171,-1.4091,-1.3818,-1.3455,-1.2945,-1.2358,-1.199,2.57,2.6119,2.6784,2.6747,2.6304,2.7125,2.6994,2.6379,2.7609,2.7891,2.7762,2.86,2.8164,2.5901,2.2486,1.7187,1.0049,-0.5594,-1.7299,-2.4668,-3.1467,-3.4904,-3.5292,-3.5191,-3.5303,-3.5667,-3.5725,-3.5749,-3.5757,-3.5799,-3.5721,-3.5631,-3.5631,-3.564,-3.562,-3.5523,-3.5438,-3.5297,-3.5119,-3.5012,-3.4981,-3.4756,-3.4574,-3.4498,-3.4335,-3.3917,-3.3382,-3.3178,-3.2759,-3.2092,-3.1605,-3.0801,-2.9811,-2.9345,-2.8934,-2.834,-2.778,-2.6967,-2.5923,-2.5259,-2.4538,-2.3658,-2.3106,-2.2774,-2.2309,-2.09,-2.0295,-2.0429,-1.7379,-1.4811,-1.5189,-1.5283,-1.5644,-1.5913,-1.6507,-1.6706,-1.607,-1.6298,-1.6724,-1.7079,-1.7988,-1.8414,-1.8539,-1.8808,-1.9208,-1.9208,-1.9142,-1.9075,-1.9008,-1.8607,-1.8279,-1.8347,-1.8144,-1.8202,-1.8037,-1.7677,-1.7189,-1.648,-1.5658,-1.4958,-1.5013,-1.4657,-1.4577,-1.4219,-1.3578,-1.3361,-1.3498,-1.3571,-1.3578,-1.3506,-1.3142,-1.2785,-1.2425,-1.2057,-1.1613,2.4765,2.5119,2.5356,2.5232,2.484,2.5094,2.4997,2.466,2.5051,2.5126,2.4959,2.5238,2.5056,2.3654,1.9763,1.6503,1.2532,-0.0426,-1.0241,-1.7957,-2.9525,-3.4839,-3.5509,-3.547,-3.556,-3.5772,-3.5777,-3.5786,-3.582,-3.5791,-3.5755,-3.5725,-3.5729,-3.5737,-3.5729,-3.5631,-3.5549,-3.5434,-3.5297,-3.521,-3.5178,-3.5032,-3.487,-3.4772,-3.4524,-3.4255,-3.3968,-3.3715,-3.3296,-3.2677,-3.2092,-3.1476,-3.0977,-3.0344,-2.9848,-2.9625,-2.9023,-2.8293,-2.73,-2.6937,-2.6146,-2.5411,-2.4869,-2.4617,-2.4306,-2.3283,-2.2816,-2.2702,-2.0171,-1.7135,-1.6232,-1.5788,-1.5162,-1.3641,-1.5756,-1.6358,-1.593,-1.6289,-1.6991,-1.7482,-1.824,-1.8721,-1.9264,-1.9528,-1.9922,-1.9933,-1.9857,-1.9791,-1.966,-1.932,-1.9121,-1.9065,-1.9065,-1.9054,-1.8988,-1.8499,-1.7939,-1.6954,-1.5913,-1.5201,-1.4767,-1.3708,-1.3215,-1.2771,-1.2198,-1.2124,-1.2198,-1.2492,-1.2565,-1.2485,-1.2405,-1.1964,-1.1527,-1.1607,-1.1236,2.3747,2.3806,2.3526,2.3475,2.3475,2.3372,2.3196,2.3022,2.2513,2.2092,2.1813,2.2477,2.2472,2.1843,2.0035,1.8835,1.6543,0.4102,-0.4289,-1.2823,-2.5134,-3.4145,-3.552,-3.5603,-3.5664,-3.5806,-3.5728,-3.574,-3.5809,-3.581,-3.5845,-3.5856,-3.5811,-3.5811,-3.5791,-3.5682,-3.5611,-3.5553,-3.5491,-3.5449,-3.5425,-3.5403,-3.5334,-3.5102,-3.4813,-3.4651,-3.4524,-3.425,-3.3733,-3.2978,-3.2347,-3.2039,-3.1862,-3.115,-3.0771,-3.0747,-3.0225,-2.9569,-2.918,-2.8639,-2.8066,-2.6732,-2.6562,-2.6526,-2.5931,-2.5307,-2.497,-2.5364,-2.3526,-2.1284,-1.8699,-1.7714,-1.5811,-1.2453,-1.4928,-1.6227,-1.5534,-1.6018,-1.7179,-1.791,-1.8603,-1.9299,-2.0085,-2.0409,-2.0549,-2.0537,-2.0473,-2.059,-2.0451,-2.0386,-2.015,-2.002,-1.9824,-1.932,-1.9044,-1.9309,-1.8603,-1.7133,-1.6365,-1.5931,-1.4814,-1.3621,-1.31,-1.2524,-1.1736,-1.1452,-1.1452,-1.2098,-1.197,-1.1613,-1.131,-1.0932,-1.1081,-1.1385,-1.1459,2.2482,2.2847,2.2335,2.2335,2.2592,2.2115,2.1806,2.1581,2.106,2.0681,2.0595,2.0459,1.9954,1.9041,1.6712,1.7532,1.6265,0.3892,-0.1121,-0.2519,-2.0416,-3.1235,-3.4662,-3.522,-3.5346,-3.5597,-3.5588,-3.5542,-3.555,-3.5742,-3.5857,-3.584,-3.5876,-3.5896,-3.591,-3.586,-3.5807,-3.5812,-3.583,-3.5788,-3.5663,-3.548,-3.5329,-3.5243,-3.499,-3.4851,-3.4793,-3.4588,-3.4111,-3.3335,-3.2985,-3.2553,-3.2265,-3.2039,-3.1823,-3.1483,-3.0988,-3.0278,-2.9472,-2.8979,-2.829,-2.7605,-2.7746,-2.7799,-2.7783,-2.7937,-2.8062,-2.7705,-2.5112,-2.264,-2.1931,-2.052,-1.8627,-1.7273,-1.6522,-1.5851,-1.5852,-1.7142,-1.866,-1.9727,-1.9114,-1.9454,-2.0353,-2.1181,-2.1506,-2.1557,-2.1856,-2.2213,-2.2017,-2.146,-2.1272,-2.0546,-2.0182,-1.9486,-1.9177,-1.9573,-1.9058,-1.7445,-1.6949,-1.7067,-1.5687,-1.4244,-1.4332,-1.4426,-1.3165,-1.2601,-1.2608,-1.2891,-1.2065,-1.1588,-1.1662,-1.1931,-1.1822,-1.199,-1.199,2.1741,2.2051,2.1302,2.1164,2.129,2.0473,2.0291,2.0344,1.9323,1.8971,1.9017,1.815,1.7241,1.6078,1.343,1.3689,1.4715,0.3261,-0.1834,-0.5,-1.9498,-2.9283,-3.3222,-3.4485,-3.5075,-3.532,-3.5369,-3.5426,-3.5509,-3.5645,-3.5752,-3.5838,-3.5879,-3.5918,-3.5957,-3.5948,-3.5923,-3.5947,-3.5977,-3.5951,-3.5831,-3.5627,-3.5514,-3.5427,-3.5181,-3.5015,-3.4908,-3.4711,-3.4344,-3.3899,-3.3515,-3.3176,-3.2921,-3.2651,-3.247,-3.2196,-3.166,-3.0982,-3.0336,-2.9821,-2.9383,-2.9082,-2.9154,-2.9463,-2.9809,-3.022,-3.048,-3.0166,-2.7731,-2.6166,-2.4496,-2.2282,-2.0519,-1.9587,-1.8758,-1.7174,-1.5323,-1.5948,-1.73,-1.8272,-1.8955,-1.9391,-2.0722,-2.187,-2.2639,-2.3059,-2.3416,-2.3696,-2.38,-2.2997,-2.225,-2.1599,-2.1498,-2.1237,-2.0692,-2.0842,-2.0406,-1.8802,-1.7937,-1.8051,-1.6482,-1.5047,-1.5339,-1.5428,-1.4441,-1.3678,-1.3415,-1.3359,-1.3509,-1.3179,-1.3122,-1.2933,-1.2809,-1.2204,-1.2278,2.106,2.1123,2.0226,1.9966,1.9901,1.8787,1.8921,1.9299,1.7522,1.7042,1.7229,1.5877,1.472,1.3368,1.1765,1.0215,0.9341,0.2494,-0.4377,-1.0989,-2.0709,-2.7599,-3.1263,-3.3393,-3.4372,-3.484,-3.5053,-3.52,-3.5328,-3.5407,-3.5601,-3.5778,-3.5845,-3.5888,-3.5927,-3.5957,-3.5976,-3.5996,-3.601,-3.5979,-3.5926,-3.5833,-3.5749,-3.563,-3.5406,-3.5184,-3.5018,-3.4772,-3.4583,-3.452,-3.3993,-3.3698,-3.3671,-3.2988,-3.2716,-3.2603,-3.2127,-3.1605,-3.1329,-3.0965,-3.0784,-3.0434,-3.0459,-3.0931,-3.1219,-3.1445,-3.1685,-3.1705,-3.1917,-2.9878,-2.7471,-2.3708,-2.2051,-2.1781,-2.2485,-1.9726,-1.6186,-1.4755,-1.5452,-1.651,-1.8942,-1.9469,-2.1346,-2.26,-2.3897,-2.3566,-2.416,-2.4786,-2.4885,-2.445,-2.358,-2.267,-2.2887,-2.341,-2.2817,-2.2226,-2.1475,-2.0475,-1.9511,-1.8903,-1.7118,-1.6085,-1.6255,-1.6014,-1.4969,-1.4167,-1.3509,-1.3724,-1.4206,-1.3517,-1.2642,-1.3122,-1.3603,-1.2656,-1.2318,1.8834,1.9628,1.8499,1.8777,1.9704,1.8317,1.7988,1.8452,1.6341,1.586,1.5939,1.4673,1.3288,1.187,1.1397,1.1051,0.8846,0.1219,-0.7368,-1.5059,-1.926,-2.3928,-2.7683,-3.0664,-3.2985,-3.3979,-3.4461,-3.4642,-3.4842,-3.5081,-3.5321,-3.5667,-3.5735,-3.5797,-3.589,-3.5903,-3.595,-3.5984,-3.6013,-3.5996,-3.5976,-3.5952,-3.5875,-3.5762,-3.5599,-3.547,-3.5326,-3.5035,-3.485,-3.4693,-3.4367,-3.4009,-3.3817,-3.3549,-3.3262,-3.287,-3.2368,-3.1899,-3.1647,-3.1219,-3.0751,-3.0824,-3.1043,-3.1038,-3.0948,-3.1861,-3.2092,-3.2074,-3.2092,-3.1725,-3.054,-2.7454,-2.5973,-2.549,-2.3789,-2.197,-2.0618,-1.983,-2.0819,-2.2621,-2.056,-1.8757,-2.3013,-2.3026,-2.3712,-2.394,-2.4774,-2.5656,-2.5683,-2.5518,-2.4426,-2.3211,-2.2976,-2.3132,-2.2921,-2.2528,-2.2371,-2.2055,-2.1416,-2.0945,-1.9168,-1.757,-1.7948,-1.6968,-1.5446,-1.4722,-1.4095,-1.4095,-1.4576,-1.3338,-1.243,-1.3143,-1.3497,-1.2802,-1.2298,1.7774,1.8307,1.7647,1.7978,1.8499,1.7354,1.7088,1.7217,1.5666,1.4958,1.4816,1.3882,1.2405,1.0622,1.0738,1.0551,0.8064,0.0306,-0.7582,-1.3414,-1.7191,-2.0819,-2.456,-2.767,-3.0343,-3.2733,-3.3532,-3.3864,-3.4298,-3.4756,-3.5128,-3.5458,-3.5582,-3.569,-3.5768,-3.5831,-3.5888,-3.5958,-3.6001,-3.601,-3.6013,-3.5971,-3.5875,-3.5735,-3.5641,-3.5574,-3.5451,-3.5203,-3.5051,-3.4963,-3.4713,-3.4335,-3.4042,-3.387,-3.3643,-3.3375,-3.2908,-3.2595,-3.2331,-3.2039,-3.1774,-3.1645,-3.1862,-3.1861,-3.186,-3.2369,-3.257,-3.257,-3.2636,-3.2669,-3.2681,-3.1553,-3.0248,-3.0024,-2.8319,-2.7101,-2.692,-2.4473,-2.2711,-2.4941,-2.3228,-2.3311,-2.4437,-2.4821,-2.6086,-2.7427,-2.5857,-2.653,-2.5796,-2.5416,-2.4334,-2.3322,-2.277,-2.2546,-2.2524,-2.2633,-2.309,-2.3221,-2.3398,-2.3313,-2.2727,-2.1176,-1.983,-1.8486,-1.7129,-1.5489,-1.4952,-1.4952,-1.5249,-1.452,-1.4112,-1.3833,-1.4415,-1.5842,-1.4501,1.7245,1.7304,1.7097,1.7166,1.7157,1.6254,1.6105,1.6446,1.5054,1.4178,1.3795,1.3222,1.1601,0.9884,0.9669,0.9616,0.6714,0.0692,-0.6746,-1.1033,-1.4283,-1.8117,-2.1823,-2.4626,-2.7364,-3.081,-3.2231,-3.3034,-3.3864,-3.4398,-3.4775,-3.5132,-3.5387,-3.5549,-3.5602,-3.571,-3.5801,-3.5864,-3.5958,-3.6003,-3.5989,-3.5956,-3.5853,-3.5716,-3.5646,-3.5621,-3.5523,-3.5345,-3.5216,-3.5178,-3.5016,-3.4711,-3.4363,-3.4055,-3.3895,-3.3842,-3.3419,-3.3243,-3.3093,-3.297,-3.2862,-3.2898,-3.277,-3.2705,-3.2621,-3.257,-3.2734,-3.288,-3.2961,-3.3055,-3.3316,-3.3089,-3.3351,-3.3515,-3.3542,-3.3732,-3.2839,-2.8433,-2.6551,-2.5594,-2.536,-2.5107,-2.6745,-2.785,-2.9412,-3.0287,-2.8582,-2.7238,-2.6549,-2.6099,-2.5516,-2.4703,-2.4361,-2.3274,-2.3038,-2.2506,-2.3013,-2.3942,-2.4552,-2.4716,-2.4858,-2.3498,-2.1657,-2.0446,-1.9021,-1.776,-1.7438,-1.8306,-1.8041,-1.6629,-1.6787,-1.7696,-1.8566,-1.9457,-1.7366,1.6351,1.6682,1.5903,1.6105,1.6664,1.548,1.5117,1.5384,1.4027,1.3382,1.3157,1.2352,1.0708,0.92,0.9362,0.8318,0.522,-0.0386,-0.5296,-0.916,-1.2263,-1.5573,-1.9178,-2.1975,-2.4477,-2.7197,-3.0019,-3.2252,-3.3284,-3.3792,-3.4308,-3.4884,-3.5127,-3.5292,-3.5485,-3.566,-3.5676,-3.5718,-3.5869,-3.5947,-3.5926,-3.593,-3.5914,-3.5806,-3.5761,-3.5728,-3.5666,-3.5458,-3.5295,-3.5254,-3.503,-3.485,-3.4607,-3.4353,-3.4043,-3.3788,-3.3671,-3.3569,-3.3502,-3.3309,-3.3001,-3.2731,-3.2619,-3.2335,-3.2214,-3.2282,-3.2619,-3.2702,-3.2975,-3.319,-3.322,-3.3707,-3.3972,-3.4055,-3.4154,-3.4288,-3.4245,-3.312,-3.1601,-3.0783,-2.8511,-2.6639,-2.8851,-3.0252,-3.072,-3.126,-3.0354,-2.9162,-2.8424,-2.8357,-2.8354,-2.7439,-2.6493,-2.5101,-2.3842,-2.3011,-2.2847,-2.4115,-2.476,-2.4854,-2.4871,-2.4575,-2.3536,-2.3206,-2.2495,-2.1541,-2.1571,-2.1659,-2.1326,-2.0351,-2.1055,-2.186,-2.1773,-2.1643,-2.2031,1.5497,1.5488,1.5062,1.5046,1.51,1.4322,1.3818,1.373,1.2865,1.2211,1.1916,1.1323,1.004,0.8604,0.8627,0.7411,0.421,-0.0233,-0.4799,-0.8656,-1.1175,-1.3899,-1.7502,-2.033,-2.3225,-2.5992,-2.8722,-3.0801,-3.2206,-3.3263,-3.3806,-3.4259,-3.4639,-3.494,-3.5151,-3.5322,-3.5442,-3.5512,-3.571,-3.5827,-3.58,-3.5869,-3.5868,-3.5855,-3.5818,-3.5806,-3.5749,-3.5624,-3.5524,-3.5514,-3.5403,-3.5191,-3.4961,-3.4718,-3.4392,-3.4018,-3.3895,-3.386,-3.378,-3.3625,-3.3447,-3.3184,-3.3001,-3.2908,-3.2749,-3.2844,-3.2781,-3.2876,-3.3024,-3.3386,-3.3606,-3.3876,-3.4049,-3.4148,-3.4269,-3.4483,-3.4714,-3.4793,-3.4699,-3.4567,-3.2655,-3.1256,-3.1818,-3.2551,-3.2187,-3.1948,-3.1796,-3.1157,-3.0369,-2.9872,-2.9822,-2.9157,-2.8068,-2.7314,-2.6003,-2.5171,-2.4526,-2.5346,-2.5829,-2.5907,-2.6136,-2.6407,-2.6998,-2.7228,-2.6355,-2.4454,-2.3782,-2.3288,-2.3617,-2.3947,-2.375,-2.3655,-2.3701,-2.384,-2.4622,1.4848,1.4569,1.4497,1.4122,1.36,1.3237,1.2725,1.2204,1.1922,1.1409,1.0812,1.0507,0.9518,0.8084,0.7261,0.6187,0.3692,-0.0936,-0.506,-0.8865,-1.0628,-1.2992,-1.6415,-1.9532,-2.2281,-2.4417,-2.6971,-2.8971,-3.1049,-3.2305,-3.314,-3.3729,-3.4228,-3.4532,-3.4697,-3.4988,-3.5132,-3.5335,-3.5493,-3.5616,-3.5709,-3.5768,-3.5806,-3.5819,-3.5801,-3.5833,-3.5845,-3.5761,-3.5743,-3.5742,-3.5694,-3.5551,-3.5325,-3.5191,-3.4884,-3.4449,-3.4279,-3.4105,-3.3998,-3.3895,-3.3762,-3.3578,-3.3605,-3.3577,-3.352,-3.3327,-3.3316,-3.3368,-3.3455,-3.3587,-3.3823,-3.4049,-3.4148,-3.4221,-3.4298,-3.4394,-3.4651,-3.4793,-3.4944,-3.4921,-3.5062,-3.4871,-3.4391,-3.4262,-3.3771,-3.37,-3.3536,-3.3218,-3.2281,-3.0516,-3.0144,-2.9959,-2.9497,-2.9283,-2.8613,-2.8123,-2.7773,-2.8132,-2.8368,-2.8404,-2.87,-2.8994,-2.9252,-2.8913,-2.7743,-2.597,-2.5413,-2.5627,-2.6842,-2.7132,-2.6039,-2.6035,-2.7067,-2.8012,-2.8861,1.4641,1.4569,1.4281,1.3825,1.3237,1.2813,1.2298,1.17,1.1552,1.1335,1.0513,0.9976,0.9074,0.7791,0.5951,0.3521,0.0469,-0.2031,-0.5535,-0.9423,-1.0196,-1.2111,-1.525,-1.7638,-2.0425,-2.2858,-2.5202,-2.8047,-3.0202,-3.1162,-3.2139,-3.3092,-3.3658,-3.4035,-3.4342,-3.4659,-3.5016,-3.5184,-3.5295,-3.5474,-3.5702,-3.5775,-3.5788,-3.5848,-3.5882,-3.5893,-3.5915,-3.5882,-3.5864,-3.586,-3.571,-3.5624,-3.562,-3.5579,-3.5268,-3.4865,-3.4478,-3.4197,-3.4148,-3.4099,-3.3972,-3.3868,-3.378,-3.3633,-3.3651,-3.3633,-3.3577,-3.3577,-3.3726,-3.3842,-3.3979,-3.4197,-3.4316,-3.4367,-3.4435,-3.4548,-3.4713,-3.4812,-3.4963,-3.5069,-3.5136,-3.5425,-3.5347,-3.5372,-3.5342,-3.5324,-3.5207,-3.4752,-3.3887,-3.1938,-3.051,-3.0337,-3.0297,-3.0124,-2.9344,-2.9122,-2.9027,-2.9701,-2.9467,-2.9485,-2.9125,-2.8772,-2.939,-2.8877,-2.7779,-2.7529,-2.7454,-2.8282,-3.0202,-3.0154,-2.8869,-2.9756,-3.1318,-3.2088,-3.1903,1.3324,1.392,1.3477,1.2886,1.2291,1.1781,1.0956,1.0126,0.9976,0.975,0.9221,0.8528,0.754,0.6083,0.407,0.133,-0.1565,-0.3132,-0.6009,-0.9185,-1.0051,-1.1685,-1.5047,-1.7331,-1.9415,-2.1713,-2.3945,-2.6255,-2.8632,-3.0509,-3.1653,-3.2393,-3.3135,-3.3643,-3.3913,-3.4269,-3.4591,-3.4813,-3.5011,-3.5206,-3.5442,-3.5562,-3.5648,-3.5768,-3.578,-3.5817,-3.5854,-3.5864,-3.5859,-3.5877,-3.5806,-3.5786,-3.5779,-3.5649,-3.5368,-3.5254,-3.4832,-3.4567,-3.4454,-3.4454,-3.4321,-3.4173,-3.4117,-3.4136,-3.3979,-3.3862,-3.3844,-3.3954,-3.4016,-3.4062,-3.4105,-3.434,-3.4431,-3.452,-3.4502,-3.463,-3.4733,-3.4831,-3.4945,-3.5072,-3.5223,-3.5449,-3.5639,-3.5543,-3.5427,-3.5435,-3.5212,-3.4791,-3.3973,-3.2615,-3.1468,-3.0729,-3.0733,-3.0749,-2.9691,-2.8938,-2.8151,-2.8289,-2.738,-2.7429,-2.7576,-2.7654,-2.7805,-2.7701,-2.6561,-2.7037,-2.8499,-2.9309,-2.9729,-3.0645,-3.1596,-3.1229,-3.09,-3.1765,-3.1776,1.2077,1.2973,1.2599,1.2003,1.1409,1.0887,0.9911,0.8699,0.8542,0.8237,0.7774,0.7242,0.6005,0.3748,0.1877,-0.047,-0.3136,-0.3999,-0.663,-0.878,-1.0126,-1.1838,-1.4632,-1.6943,-1.8674,-2.1311,-2.2698,-2.4554,-2.6695,-2.8873,-3.0537,-3.1591,-3.2497,-3.3027,-3.3372,-3.3742,-3.4099,-3.4508,-3.4717,-3.4975,-3.5228,-3.5364,-3.55,-3.5621,-3.5693,-3.5741,-3.578,-3.5797,-3.5834,-3.5857,-3.5906,-3.5918,-3.5916,-3.5675,-3.5491,-3.5405,-3.5163,-3.4973,-3.4832,-3.4772,-3.4691,-3.4586,-3.4498,-3.448,-3.4218,-3.4117,-3.4087,-3.4161,-3.4282,-3.4255,-3.425,-3.4381,-3.4404,-3.4431,-3.4458,-3.4628,-3.4772,-3.4908,-3.4963,-3.5035,-3.5165,-3.529,-3.5411,-3.5403,-3.5405,-3.5451,-3.5198,-3.4757,-3.3675,-3.2446,-3.1029,-2.9864,-2.9494,-2.9287,-2.8297,-2.7592,-2.7195,-2.676,-2.5852,-2.5558,-2.5854,-2.5441,-2.5087,-2.4861,-2.4734,-2.4682,-2.505,-2.7052,-2.8887,-2.8737,-2.8737,-2.916,-2.9403,-3.0311,-3.1055,1.1254,1.1781,1.1781,1.1403,1.0812,1.0443,0.9528,0.8228,0.8008,0.7468,0.6773,0.6641,0.4927,0.2112,-0.0,-0.1957,-0.3754,-0.4307,-0.6692,-0.8675,-0.9943,-1.1704,-1.4157,-1.5948,-1.725,-1.9412,-2.1112,-2.2613,-2.4356,-2.7006,-2.9074,-3.0897,-3.1756,-3.2213,-3.2727,-3.3237,-3.3723,-3.4134,-3.4392,-3.4699,-3.5009,-3.5224,-3.5361,-3.5488,-3.5601,-3.5733,-3.578,-3.5762,-3.5755,-3.5777,-3.5875,-3.5939,-3.5894,-3.574,-3.5603,-3.5535,-3.5491,-3.533,-3.5196,-3.5047,-3.4908,-3.487,-3.4812,-3.4697,-3.4388,-3.4639,-3.4598,-3.4326,-3.4439,-3.4367,-3.4293,-3.4245,-3.4409,-3.4476,-3.4607,-3.4732,-3.487,-3.5018,-3.507,-3.5034,-3.5117,-3.5288,-3.5344,-3.5366,-3.5385,-3.5425,-3.4439,-3.3944,-3.2607,-3.1288,-2.9617,-2.8372,-2.7722,-2.7051,-2.5821,-2.5354,-2.5406,-2.5093,-2.4356,-2.4226,-2.4386,-2.3696,-2.2683,-2.2322,-2.2201,-2.186,-2.197,-2.3912,-2.5317,-2.5525,-2.592,-2.6766,-2.7025,-2.7412,-2.8404,0.9604,0.983,0.9825,1.0062,1.0363,0.9609,0.8461,0.7383,0.708,0.6237,0.5234,0.5562,0.4307,0.1409,-0.1565,-0.3132,-0.391,-0.4535,-0.6612,-0.8147,-0.9437,-1.1199,-1.3404,-1.5067,-1.6166,-1.8562,-1.9998,-2.1587,-2.3754,-2.5474,-2.72,-2.9074,-3.07,-3.1773,-3.2366,-3.289,-3.3411,-3.3715,-3.3988,-3.4232,-3.4658,-3.4851,-3.5009,-3.5244,-3.5287,-3.5335,-3.5379,-3.5499,-3.5553,-3.5646,-3.5779,-3.5844,-3.5873,-3.5767,-3.5703,-3.5664,-3.5635,-3.556,-3.5482,-3.5365,-3.5297,-3.5111,-3.4996,-3.4832,-3.4623,-3.4736,-3.4728,-3.4623,-3.4607,-3.452,-3.4293,-3.4458,-3.4691,-3.4711,-3.4772,-3.487,-3.498,-3.5117,-3.5205,-3.5143,-3.5218,-3.5346,-3.5359,-3.5364,-3.5376,-3.5321,-3.4155,-3.2963,-3.159,-3.0118,-2.843,-2.7021,-2.637,-2.564,-2.4536,-2.4138,-2.3793,-2.3255,-2.2708,-2.2575,-2.2322,-2.144,-2.0542,-2.0127,-1.9987,-2.0094,-2.0456,-2.1202,-2.2213,-2.3451,-2.4283,-2.4929,-2.4957,-2.4696,-2.5776,0.8627,0.8542,0.8313,0.8851,0.9533,0.8694,0.7544,0.6468,0.6083,0.5234,0.4079,0.4709,0.3684,0.1017,-0.1486,-0.3365,-0.3908,-0.4996,-0.6696,-0.808,-0.9372,-1.0932,-1.2771,-1.4363,-1.5615,-1.79,-1.9048,-2.0467,-2.2396,-2.4072,-2.5781,-2.7546,-2.9364,-3.0694,-3.1861,-3.2568,-3.3032,-3.3243,-3.3494,-3.3752,-3.4218,-3.4467,-3.4595,-3.485,-3.4956,-3.504,-3.5089,-3.5196,-3.5328,-3.5418,-3.553,-3.5668,-3.571,-3.5734,-3.5731,-3.5717,-3.5683,-3.5623,-3.5611,-3.5606,-3.5563,-3.5411,-3.5264,-3.5162,-3.5047,-3.4944,-3.4983,-3.4906,-3.4829,-3.467,-3.4416,-3.4691,-3.4831,-3.4831,-3.4926,-3.5053,-3.5124,-3.522,-3.5258,-3.5268,-3.5321,-3.5302,-3.4995,-3.4865,-3.4338,-3.4072,-3.2956,-3.1729,-3.0465,-2.8963,-2.724,-2.5987,-2.4984,-2.4309,-2.3573,-2.2673,-2.1723,-2.1191,-2.071,-2.0362,-1.9944,-1.9267,-1.8736,-1.8449,-1.8382,-1.8536,-1.8772,-1.9107,-2.0527,-2.2189,-2.2551,-2.2611,-2.225,-2.2092,-2.3495,0.8466,0.8228,0.7544,0.7778,0.847,0.7625,0.678,0.6009,0.516,0.4387,0.3765,0.3927,0.2902,0.094,-0.1329,-0.2813,-0.4219,-0.5535,-0.7076,-0.8466,-0.9387,-1.1031,-1.2505,-1.3875,-1.4996,-1.6835,-1.8123,-1.9312,-2.0835,-2.3183,-2.4735,-2.6117,-2.7944,-2.9729,-3.0982,-3.1637,-3.2144,-3.2533,-3.2983,-3.3354,-3.3768,-3.4104,-3.4269,-3.4427,-3.46,-3.4699,-3.4756,-3.4905,-3.5026,-3.5108,-3.5247,-3.5407,-3.5572,-3.5374,-3.5436,-3.5678,-3.5621,-3.5584,-3.5597,-3.5654,-3.5663,-3.5655,-3.5488,-3.5449,-3.5449,-3.5399,-3.5254,-3.5072,-3.5035,-3.4999,-3.4926,-3.4907,-3.4923,-3.4958,-3.5076,-3.5168,-3.5229,-3.5263,-3.5302,-3.5171,-3.5208,-3.5174,-3.4728,-3.4247,-3.3409,-3.2657,-3.1663,-3.0506,-2.9263,-2.7845,-2.6199,-2.4538,-2.3431,-2.2673,-2.1784,-2.0598,-1.9683,-1.9212,-1.8936,-1.8736,-1.8536,-1.8133,-1.7599,-1.701,-1.7001,-1.7257,-1.707,-1.6793,-1.8368,-1.9684,-1.9889,-1.9846,-1.9444,-1.9803,-2.1369,0.7165,0.6853,0.6391,0.6314,0.6546,0.6318,0.5777,0.5162,0.4384,0.3684,0.3217,0.3456,0.2115,-0.0156,-0.2109,-0.3595,-0.4686,-0.6314,-0.7859,-0.8699,-0.9539,-1.1111,-1.2445,-1.3462,-1.4593,-1.6428,-1.7716,-1.8859,-2.0537,-2.2504,-2.3825,-2.5094,-2.717,-2.9039,-3.0344,-3.124,-3.1841,-3.2248,-3.2586,-3.2921,-3.3458,-3.3733,-3.3935,-3.4043,-3.4176,-3.4274,-3.4297,-3.4473,-3.4658,-3.4775,-3.4927,-3.5131,-3.5255,-3.5089,-3.5129,-3.5377,-3.5394,-3.5533,-3.5561,-3.565,-3.5701,-3.5685,-3.5682,-3.559,-3.5521,-3.5393,-3.5264,-3.5136,-3.5082,-3.5002,-3.4855,-3.4963,-3.5016,-3.5016,-3.5105,-3.5206,-3.5271,-3.5298,-3.527,-3.5014,-3.4944,-3.3344,-3.2477,-3.1691,-3.0976,-3.0525,-2.9525,-2.8988,-2.7978,-2.6688,-2.5149,-2.3145,-2.1749,-2.0946,-2.0052,-1.9145,-1.8623,-1.8325,-1.7988,-1.7668,-1.7404,-1.7051,-1.6715,-1.6175,-1.6044,-1.5974,-1.5974,-1.6044,-1.6245,-1.6904,-1.7512,-1.8055,-1.8123,-1.8583,-1.9641,0.6479,0.6163,0.5547,0.5315,0.5315,0.5315,0.4929,0.4311,0.3684,0.2979,0.2668,0.2824,0.1409,-0.125,-0.3519,-0.4535,-0.5237,-0.6865,-0.794,-0.878,-0.9614,-1.1037,-1.2224,-1.3105,-1.453,-1.6149,-1.7267,-1.8345,-1.9901,-2.1471,-2.3103,-2.4901,-2.6814,-2.8181,-2.9371,-3.0252,-3.1278,-3.1677,-3.2039,-3.2419,-3.2777,-3.3027,-3.3225,-3.3382,-3.3533,-3.3688,-3.3768,-3.3975,-3.4237,-3.4398,-3.4548,-3.4751,-3.4812,-3.4813,-3.4754,-3.4821,-3.4904,-3.5072,-3.5198,-3.5248,-3.5201,-3.5061,-3.5406,-3.5572,-3.5488,-3.5392,-3.529,-3.5185,-3.5083,-3.5029,-3.4999,-3.5143,-3.5041,-3.5038,-3.4933,-3.504,-3.4885,-3.4862,-3.402,-3.3892,-3.2743,-3.1227,-2.9892,-2.8966,-2.8124,-2.7748,-2.733,-2.6808,-2.6243,-2.5087,-2.3644,-2.1616,-2.0028,-1.9162,-1.8552,-1.7988,-1.758,-1.7366,-1.7033,-1.6627,-1.6298,-1.5939,-1.5675,-1.5551,-1.548,-1.548,-1.5338,-1.5401,-1.5542,-1.5683,-1.5948,-1.6428,-1.6784,-1.7512,-1.8362,0.6325,0.6012,0.5087,0.4698,0.4621,0.4701,0.4309,0.3684,0.2901,0.251,0.2352,0.1645,0.0235,-0.1876,-0.4859,-0.5802,-0.5628,-0.718,-0.8097,-0.8932,-0.976,-1.1105,-1.2218,-1.3171,-1.4386,-1.5666,-1.6853,-1.7745,-1.9177,-2.0726,-2.2637,-2.4633,-2.6246,-2.736,-2.8229,-2.9297,-3.0344,-3.0874,-3.1287,-3.1645,-3.1987,-3.2213,-3.2451,-3.2645,-3.2867,-3.3051,-3.323,-3.3459,-3.3715,-3.3865,-3.3961,-3.424,-3.4352,-3.4303,-3.4153,-3.4124,-3.4235,-3.4452,-3.4642,-3.4706,-3.447,-3.4342,-3.4749,-3.5172,-3.5405,-3.5312,-3.5324,-3.53,-3.5227,-3.5251,-3.5289,-3.5125,-3.4992,-3.4832,-3.4633,-3.4496,-3.4259,-3.3639,-3.2524,-3.1464,-2.9927,-2.8523,-2.7436,-2.6421,-2.5308,-2.4476,-2.3941,-2.3171,-2.284,-2.3051,-2.1483,-1.9598,-1.8235,-1.7426,-1.6858,-1.6462,-1.6609,-1.6462,-1.5957,-1.5545,-1.5147,-1.5029,-1.4824,-1.4832,-1.4982,-1.4982,-1.4982,-1.4848,-1.4776,-1.4911,-1.5188,-1.533,-1.5886,-1.6446,-1.7229,0.4927,0.4453,0.4148,0.4075,0.4075,0.4075,0.3604,0.2901,0.2588,0.1959,0.0705,0.1173,-0.0469,-0.3361,-0.5721,-0.6338,-0.6868,-0.7476,-0.8389,-0.915,-0.9906,-1.118,-1.2218,-1.3032,-1.4106,-1.5313,-1.6437,-1.7404,-1.8643,-2.0095,-2.2066,-2.4103,-2.5287,-2.6222,-2.7375,-2.8386,-2.9116,-2.9843,-3.0303,-3.0751,-3.1181,-3.1482,-3.1737,-3.2074,-3.2298,-3.2482,-3.258,-3.2759,-3.2947,-3.3069,-3.3277,-3.3559,-3.3972,-3.4039,-3.4037,-3.4186,-3.4134,-3.4068,-3.4145,-3.396,-3.3669,-3.3401,-3.3596,-3.4101,-3.4591,-3.4918,-3.5042,-3.4923,-3.4834,-3.4722,-3.4381,-3.4187,-3.389,-3.3551,-3.3161,-3.2578,-3.2219,-3.1366,-3.026,-2.8861,-2.728,-2.6045,-2.4959,-2.3659,-2.2564,-2.1469,-2.0624,-2.0092,-1.9802,-2.0206,-1.9598,-1.7687,-1.6702,-1.6018,-1.5238,-1.4767,-1.5271,-1.5492,-1.4822,-1.4538,-1.4712,-1.4522,-1.4178,-1.4114,-1.4402,-1.4553,-1.4633,-1.4489,-1.4201,-1.4497,-1.4776,-1.4776,-1.4991,-1.5613,-1.6245,0.4148,0.4068,0.3526,0.3452,0.3684,0.345,0.2823,0.2117,0.2037,0.1096,-0.0391,-0.0,-0.1484,-0.43,-0.619,-0.6972,-0.6791,-0.7246,-0.8084,-0.9226,-0.9981,-1.1316,-1.2285,-1.3244,-1.4394,-1.5455,-1.6437,-1.7482,-1.8509,-1.9944,-2.1756,-2.3097,-2.4013,-2.5356,-2.6462,-2.7166,-2.7803,-2.8592,-2.9326,-2.9848,-3.0253,-3.062,-3.0948,-3.1329,-3.1588,-3.1771,-3.1862,-3.1968,-3.2334,-3.2484,-3.2759,-3.284,-3.2965,-3.2811,-3.2775,-3.2762,-3.266,-3.257,-3.2619,-3.2655,-3.2514,-3.2339,-3.2111,-3.22,-3.2733,-3.3142,-3.3558,-3.3805,-3.388,-3.3827,-3.3374,-3.2929,-3.2408,-3.1885,-3.1073,-3.0265,-2.9546,-2.8768,-2.7557,-2.6249,-2.4916,-2.3593,-2.2344,-2.1049,-2.0246,-1.9955,-1.9467,-1.8721,-1.8388,-1.8425,-1.7658,-1.6035,-1.5342,-1.4704,-1.3996,-1.3266,-1.3324,-1.3526,-1.3295,-1.323,-1.3845,-1.4004,-1.3578,-1.3665,-1.3905,-1.4049,-1.4201,-1.3912,-1.3768,-1.4057,-1.4281,-1.4274,-1.4489,-1.5054,-1.5683,0.3754,0.4229,0.2979,0.2743,0.337,0.2588,0.1881,0.1175,0.1018,0.0156,-0.1251,-0.1564,-0.2969,-0.5157,-0.6655,-0.7126,-0.7103,-0.7322,-0.8228,-0.9372,-0.99,-1.1168,-1.2718,-1.4027,-1.453,-1.5675,-1.6733,-1.7345,-1.8623,-1.9879,-2.0962,-2.2039,-2.3144,-2.4403,-2.5453,-2.6065,-2.6791,-2.7735,-2.8529,-2.9162,-2.9374,-2.9524,-2.9629,-3.0021,-3.0493,-3.0943,-3.1138,-3.1534,-3.2127,-3.2092,-3.2162,-3.2074,-3.1777,-3.1391,-3.1252,-3.1232,-3.142,-3.142,-3.1496,-3.1531,-3.1031,-3.076,-3.0434,-3.0323,-3.0716,-3.1403,-3.1883,-3.1828,-3.1743,-3.1365,-3.091,-3.0404,-2.9882,-2.9104,-2.8165,-2.7576,-2.6965,-2.6046,-2.484,-2.3708,-2.2872,-2.1663,-2.1116,-1.9998,-1.8655,-1.8572,-1.7813,-1.6995,-1.6408,-1.6191,-1.5747,-1.4442,-1.3939,-1.3353,-1.2771,-1.2037,-1.1428,-1.1341,-1.1403,-1.1844,-1.2444,-1.275,-1.291,-1.307,-1.3164,-1.3542,-1.3615,-1.355,-1.3477,-1.363,-1.3702,-1.3702,-1.3985,-1.4561,-1.5267,0.2508,0.2036,0.1488,0.1332,0.1331,0.1175,0.0627,-0.0235,-0.0859,-0.1641,-0.2501,-0.3591,-0.4603,-0.5774,-0.6721,-0.7188,-0.7334,-0.7706,-0.8685,-0.9669,-1.0276,-1.1248,-1.2512,-1.3673,-1.4314,-1.4958,-1.5877,-1.7276,-1.8499,-1.9486,-2.0344,-2.1302,-2.2299,-2.3225,-2.4486,-2.5093,-2.6037,-2.682,-2.7605,-2.8323,-2.8701,-2.9012,-2.9257,-2.9617,-3.0048,-3.0074,-3.0285,-3.0633,-3.0673,-3.0534,-3.106,-3.1236,-3.1298,-3.1066,-3.1107,-3.1233,-3.0723,-3.0547,-3.0473,-3.0318,-2.9894,-2.9327,-2.9006,-2.8761,-2.8889,-2.9536,-2.9722,-2.9492,-2.9257,-2.8871,-2.8314,-2.7828,-2.7223,-2.6213,-2.5286,-2.4812,-2.4434,-2.3332,-2.2152,-2.1389,-2.0696,-2.0128,-1.9672,-1.8772,-1.7436,-1.6312,-1.518,-1.4261,-1.3373,-1.3078,-1.3841,-1.2961,-1.2565,-1.2057,-1.1465,-1.0864,-1.0254,-0.9798,-0.9782,-1.0306,-1.0977,-1.1428,-1.181,-1.2117,-1.2425,-1.2725,-1.3105,-1.3411,-1.3411,-1.3339,-1.3193,-1.3193,-1.3484,-1.3985,-1.484,0.1096,0.094,0.0783,0.0705,0.0548,0.0235,-0.0235,-0.0861,-0.2419,-0.3355,-0.3752,-0.4683,-0.5616,-0.6314,-0.7026,-0.7257,-0.7561,-0.8165,-0.8993,-0.99,-1.0881,-1.1774,-1.2659,-1.3535,-1.4537,-1.518,-1.6498,-1.7745,-1.8499,-1.9386,-2.0313,-2.0996,-2.1569,-2.2213,-2.3475,-2.4433,-2.5163,-2.5793,-2.6599,-2.7229,-2.7773,-2.8033,-2.848,-2.8888,-2.915,-2.918,-2.9601,-2.9924,-3.0011,-2.9717,-2.9897,-2.9643,-2.9551,-2.9299,-2.9447,-2.9419,-2.923,-2.9157,-2.9096,-2.8883,-2.8467,-2.7786,-2.6703,-2.6064,-2.6204,-2.6679,-2.6314,-2.6158,-2.693,-2.6726,-2.5631,-2.4948,-2.4259,-2.3328,-2.2622,-2.2075,-2.191,-2.1495,-2.0359,-1.9403,-1.8675,-1.8034,-1.7581,-1.7279,-1.5922,-1.4214,-1.3021,-1.2449,-1.1426,-1.0313,-1.1003,-1.1323,-1.084,-1.064,-1.0196,-0.9669,-0.914,-0.8685,-0.8376,-0.8903,-0.9653,-1.0179,-1.0634,-1.1081,-1.1539,-1.1922,-1.2298,-1.2746,-1.2966,-1.2893,-1.2746,-1.2599,-1.3039,-1.3477,-1.4049,-0.0235,0.0235,0.0235,0.0157,0.0078,-0.0548,-0.0861,-0.133,-0.3515,-0.4688,-0.4766,-0.5384,-0.624,-0.6865,-0.7415,-0.7415,-0.7868,-0.8841,-0.9523,-1.0201,-1.0956,-1.1922,-1.2945,-1.3962,-1.4752,-1.5877,-1.7198,-1.7891,-1.8509,-1.932,-2.0118,-2.0805,-2.1239,-2.1592,-2.2542,-2.3204,-2.3839,-2.4815,-2.556,-2.6083,-2.6466,-2.6858,-2.759,-2.8046,-2.8158,-2.8321,-2.8748,-2.9241,-2.9512,-2.9271,-2.881,-2.8529,-2.8211,-2.8082,-2.7792,-2.7792,-2.7728,-2.741,-2.7121,-2.688,-2.6361,-2.5586,-2.4182,-2.3722,-2.404,-2.3721,-2.3309,-2.3256,-2.4046,-2.393,-2.2862,-2.2247,-2.1431,-2.0739,-2.0083,-1.9608,-1.9619,-1.9564,-1.8619,-1.76,-1.7036,-1.6399,-1.5765,-1.5449,-1.4134,-1.2362,-1.1267,-1.0837,-1.0107,-0.891,-0.8543,-0.8925,-0.8869,-0.8666,-0.8917,-0.8618,-0.8237,-0.8161,-0.7931,-0.8089,-0.8394,-0.8917,-0.9513,-1.0115,-1.0496,-1.0875,-1.1329,-1.1781,-1.2077,-1.2372,-1.2378,-1.2378,-1.2666,-1.3039,-1.3185,-0.1018,-0.1646,-0.1646,-0.1724,-0.1881,-0.2037,-0.2117,-0.243,-0.4068,-0.4927,-0.5312,-0.6472,-0.7249,-0.7403,-0.8008,-0.8237,-0.8618,-0.9593,-1.0351,-1.0962,-1.1558,-1.215,-1.2732,-1.36,-1.4537,-1.5807,-1.7139,-1.7901,-1.8442,-1.911,-1.9726,-2.0259,-2.0335,-2.088,-2.1779,-2.2494,-2.3297,-2.4204,-2.4954,-2.5616,-2.6019,-2.6576,-2.7289,-2.7434,-2.7246,-2.7181,-2.7369,-2.8048,-2.8161,-2.8046,-2.7799,-2.756,-2.7321,-2.7086,-2.6923,-2.6686,-2.6582,-2.6342,-2.6062,-2.5779,-2.537,-2.4266,-2.3208,-2.2613,-2.247,-2.1827,-2.116,-2.0239,-2.0625,-2.0551,-1.9824,-1.9824,-1.9259,-1.8465,-1.7775,-1.7784,-1.7716,-1.7571,-1.7083,-1.66,-1.6244,-1.5275,-1.423,-1.3452,-1.2072,-1.0456,-0.891,-0.8472,-0.8103,-0.7126,-0.6367,-0.6678,-0.7061,-0.7833,-0.8537,-0.7931,-0.7553,-0.748,-0.748,-0.7557,-0.7633,-0.7714,-0.8241,-0.8912,-0.9367,-0.975,-1.0201,-1.0881,-1.1329,-1.17,-1.2003,-1.215,-1.2372,-1.2666,-1.2893]},{"header":{"parameterUnit":"m.s-1","parameterCategory":1,"la1":31.0,"la2":29.5877,"lo1":-88.7671,"lo2":-86.6584,"dy":0.0162,"dx":0.0185,"nx":115,"ny":88,"refTime":"2023-05-14T06:00:00:Z","depth":0,"parameterNumber":3,"parameterNumberName":"V-component_of_WINDS"},"data":[0.0,0.0,0.0,0.0,0.0,0.0,0.0,0.0,0.0,0.0,0.0,0.0,0.0,0.0,0.0,0.0,0.0,0.0,0.0,0.0,0.0,0.0,0.0,0.0,0.0,0.0,0.0,0.0,0.0,0.0,0.0,0.0,0.0,0.0,0.0,0.0,0.0,0.0,0.0,0.0,0.0,0.0,0.0,0.0,0.0,0.0,0.0,0.0,0.0,0.0,0.0,0.0,0.0,0.0,0.0,0.0,0.0,0.0,0.0,0.0,0.0,0.0,0.0,0.0,0.0,0.0,0.0,0.0,0.0,0.0,0.0,0.0,0.0,0.0,0.0,0.0,0.0,0.0,0.0,0.0,0.0,0.0,0.0,0.0,0.0,0.0,0.0,0.0,0.0,0.0,0.0,0.0,0.0,0.0,0.0,0.0,0.0,0.0,0.0,0.0,0.0,0.0,0.0,0.0,0.0,0.0,0.0,0.0,0.0,0.0,0.0,0.0,0.0,0.0,0.0,0.0,0.0,0.0,0.0,0.0,0.0,0.0,0.0,0.0,0.0,0.0,0.0,0.0,0.0,0.0,0.0,0.0,0.0,0.0,0.0,0.0,0.0,0.0,0.0,0.0,0.0,0.0,0.0,0.0,0.0,0.0,0.0,0.0,0.0,0.0,0.0,0.0,0.0,0.0,0.0,0.0,0.0,0.0,0.0,0.0,0.0,0.0,0.0,0.0,0.0,0.0,0.0,0.0,0.0,0.0,0.0,0.0,0.0,0.0,0.0,0.0,0.0,0.0,0.0,0.0,0.0,0.0,0.0,0.0,0.0,0.0,0.0,0.0,0.0,0.0,0.0,0.0,0.0,0.0,0.0,0.0,0.0,0.0,0.0,0.0,0.0,0.0,0.0,0.0,0.0,0.0,0.0,0.0,0.0,0.0,0.0,0.0,0.0,0.0,0.0,0.0,0.0,0.0,0.0,0.0,0.0,0.0,0.0,0.0,0.0,0.0,0.0,0.0,0.0,0.0,0.0,0.0,0.0,0.0,0.0,0.0,0.0,0.0,0.0,0.0,0.0,0.0,0.0,0.0,0.0,0.0,0.0,0.0,0.0,0.0,0.0,0.0,0.0,0.0,0.0,0.0,0.0,0.0,0.0,0.0,0.0,0.0,0.0,0.0,0.0,0.0,0.0,0.0,0.0,0.0,0.0,0.0,0.0,0.0,0.0,0.0,0.0,0.0,0.0,0.0,0.0,0.0,0.0,0.0,0.0,0.0,0.0,0.0,0.0,0.0,0.0,0.0,0.0,0.0,0.0,0.0,0.0,0.0,0.0,0.0,0.0,0.0,0.0,0.0,0.0,0.0,0.0,0.0,0.0,0.0,0.0,0.0,0.0,0.0,0.0,0.0,0.0,0.0,0.0,0.0,0.0,0.0,0.0,0.0,0.0,0.0,0.0,0.0,0.0,0.0,0.0,0.0,0.0,0.0,0.0,0.0,0.0,0.0,0.0,0.0,0.0,0.0,0.0,0.0,0.0,0.0,0.0,0.0,0.0,0.0,0.0,0.0,0.0,0.0,0.0,0.0,0.0,0.0,0.0,0.0,0.0,0.0,0.0,0.0,0.0,0.0,0.0,0.0,0.0,0.0,0.0,0.0,0.0,0.0,0.0,0.0,0.0,0.0,0.0,0.0,0.0,0.0,0.0,0.0,0.0,0.0,0.0,0.0,0.0,0.0,0.0,0.0,0.0,0.0,0.0,0.0,0.0,0.0,0.0,0.0,0.0,0.0,0.0,0.0,0.0,0.0,0.0,0.0,0.0,0.0,0.0,0.0,0.0,0.0,0.0,0.0,0.0,0.0,0.0,0.0,0.0,0.0,0.0,0.0,0.0,0.0,0.0,0.0,0.0,0.0,0.0,0.0,0.0,0.0,0.0,0.0,0.0,0.0,0.0,0.0,0.0,0.0,0.0,0.0,0.0,0.0,0.0,0.0,0.0,0.0,0.0,0.0,0.0,0.0,0.0,0.0,0.0,0.0,0.0,0.0,0.0,0.0,0.0,0.0,0.0,0.0,0.0,0.0,0.0,0.0,0.0,0.0,0.0,0.0,0.0,0.0,0.0,0.0,0.0,0.0,0.0,0.0,0.0,0.0,0.0,0.0,0.0,0.0,0.0,0.0,0.0,0.0,0.0,0.0,0.0,0.0,0.0,0.0,0.0,0.0,0.0,0.0,0.0,0.0,0.0,0.0,0.0,0.0,0.0,0.0,0.0,0.0,0.0,0.0,0.0,0.0,0.0,0.0,0.0,0.0,0.0,0.0,0.0,0.0,0.0,0.0,0.0,0.0,0.0,0.0,0.0,0.0,0.0,0.0,0.0,0.0,0.0,0.0,0.0,0.0,0.0,0.0,0.0,0.0,0.0,0.0,0.0,0.0,0.0,0.0,0.0,0.0,0.0,0.0,0.0,0.0,0.0,0.0,0.0,0.0,0.0,0.0,0.0,0.0,0.0,0.0,0.0,0.0,0.0,0.0,0.0,0.0,0.0,0.0,0.0,0.0,0.0,0.0,0.0,0.0,0.0,0.0,0.0,0.0,0.0,0.0,0.0,0.0,0.0,0.0,0.0,0.0,0.0,0.0,0.0,0.0,0.0,0.0,0.0,0.0,0.0,0.0,0.0,0.0,0.0,0.0,0.0,0.0,0.0,0.0,0.0,0.0,0.0,0.0,0.0,0.0,0.0,0.0,0.0,0.0,0.0,0.0,0.0,0.0,0.0,0.0,0.0,0.0,0.0,0.0,0.0,0.0,0.0,0.0,0.0,0.0,0.0,0.0,0.0,0.0,0.0,0.0,0.0,0.0,0.0,0.0,0.0,0.0,0.0,0.0,0.0,0.0,0.0,0.0,0.0,0.0,0.0,0.0,0.0,0.0,0.0,0.0,0.0,0.0,0.0,0.0,0.0,0.0,0.0,0.0,0.0,0.0,0.0,0.0,0.0,0.0,0.0,0.0,0.0,0.0,0.0,0.0,0.0,0.0,0.0,0.0,0.0,0.0,0.0,0.0,0.0,0.0,0.0,0.0,0.0,0.0,0.0,0.0,0.0,0.0,0.0,0.0,0.0,0.0,0.0,0.0,0.0,0.0,0.0,0.0,0.0,0.0,0.0,0.0,0.0,0.0,0.0,0.0,0.0,0.0,0.0,0.0,0.0,0.0,0.0,0.0,0.0,0.0,0.0,0.0,0.0,0.0,0.0,0.0,0.0,0.0,0.0,0.0,0.0,0.0,0.0,0.0,0.0,0.0,0.0,0.0,0.0,0.0,0.0,0.0,0.0,0.0,0.0,0.0,0.0,0.0,0.0,0.0,0.0,0.0,0.0,0.0,0.0,0.0,0.0,0.0,0.0,0.0,0.0,0.0,0.0,0.0,0.0,0.0,0.0,0.0,0.0,0.0,0.0,0.0,0.0,0.0,0.0,0.0,0.0,0.0,0.0,0.0,0.0,0.0,0.0,0.0,0.0,0.0,0.0,0.0,0.0,0.0,0.0,0.0,0.0,0.0,0.0,0.0,0.0,0.0,0.0,0.0,0.0,0.0,0.0,0.0,0.0,0.0,0.0,0.0,0.0,0.0,0.0,0.0,0.0,0.0,0.0,0.0,0.0,0.0,0.0,0.0,0.0,0.0,0.0,0.0,0.0,0.0,0.0,0.0,0.0,0.0,0.0,0.0,0.0,0.0,0.0,0.0,0.0,0.0,0.0,0.0,0.0,0.0,0.0,0.0,0.0,0.0,0.0,0.0,0.0,0.0,0.0,0.0,0.0,0.0,0.0,0.0,0.0,0.0,0.0,0.0,0.0,0.0,0.0,0.0,0.0,0.0,0.0,0.0,0.0,0.0,0.0,0.0,0.0,0.0,0.0,0.0,0.0,0.0,0.0,0.0,0.0,0.0,0.0,0.0,0.0,0.0,0.0,0.0,0.0,0.0,0.0,0.0,0.0,0.0,0.0,0.0,0.0,0.0,0.0,0.0,0.0,0.0,0.0,0.0,0.0,0.0,0.0,0.0,0.0,0.0,0.0,0.0,0.0,0.0,0.0,0.0,0.0,0.0,0.0,0.0,0.0,0.0,0.0,0.0,0.0,0.0,0.0,0.0,0.0,0.0,0.0,0.0,0.0,0.0,0.0,0.0,0.0,0.0,0.0,0.0,0.0,0.0,0.0,0.0,0.0,0.0,0.0,0.0,0.0,0.0,0.0,0.0,0.0,0.0,0.0,0.0,0.0,0.0,0.7802,0.0,0.0,0.0,0.0,0.0,0.0,0.0,0.0,0.0,0.0,0.0,0.0,0.0,0.0,0.0,0.0,0.0,0.0,0.0,0.0,0.0,0.0,0.0,0.0,0.0,0.0,0.0,0.0,0.0,0.0,0.0,0.0,0.0,0.0,0.0,0.0,0.0,0.0,0.0,0.0,0.0,0.0,0.0,0.0,0.0,0.0,0.0,0.0,0.0,0.0,0.0,0.0,0.0,0.0,0.0,0.0,0.0,0.0,0.0,0.0,0.0,0.0,0.0,0.0,0.0,0.0,0.0,0.0,0.0,0.0,0.0,0.0,0.0,0.0,0.0,0.0,0.0,0.0,0.0,0.0,0.0,0.0,0.0,0.0,0.0,0.0,0.0,0.0,0.0,0.0,0.0,0.0,0.0,0.0,0.0,0.0,0.0,0.0,0.0,0.0,0.0,0.0,0.0,0.0,0.0,0.0,0.0,0.0,0.0,0.0,0.7392,0.7822,0.7928,0.7899,0.7744,0.0,0.0,0.0,0.0,0.0,0.0,0.0,0.0,0.0,0.0,0.0,0.0,0.0,0.0,0.0,0.0,0.0,0.0,0.0,0.0,0.0,0.0,0.0,0.0,0.0,0.0,0.0,0.0,0.0,0.0,0.0,0.0,0.0,0.0,0.0,0.0,0.0,0.0,0.0,0.0,0.0,0.0,0.0,0.0,0.0,0.0,0.0,0.0,0.0,0.0,0.0,0.0,0.0,0.0,0.0,0.0,0.0,0.0,0.0,0.0,0.0,0.0,0.0,0.0,0.0,0.0,0.0,0.0,0.0,0.0,0.0,0.0,0.0,0.0,0.0,0.0,0.0,0.0,0.0,0.0,0.0,0.0,0.0,0.0,0.0,0.0,0.0,0.0,0.0,0.0,0.0,0.0,0.0,0.0,0.0,0.0,0.0,0.0,0.0,0.0,0.0,0.0,0.0,0.0,0.0,0.0,0.0,0.0,0.0,0.0,0.0,0.0,0.8111,0.8101,0.7937,0.0,0.0,0.0,0.0,0.0,0.0,0.0,0.0,0.0,0.0,0.0,0.0,0.0,0.0,0.0,0.0,0.0,0.0,0.0,0.0,0.0,0.0,0.0,0.0,0.0,0.0,0.0,0.0,0.0,0.0,0.0,0.0,0.0,0.0,0.0,0.0,0.0,0.0,0.0,0.0,0.0,0.0,0.0,0.0,0.0,0.0,0.0,0.0,0.0,0.0,0.0,0.0,0.0,0.0,0.0,0.0,0.0,0.0,0.0,0.0,0.0,0.0,0.0,0.0,0.0,0.0,0.0,0.0,0.0,0.0,0.0,0.0,0.0,0.0,0.0,0.0,0.0,0.0,0.0,0.0,0.0,0.0,0.0,0.0,0.0,0.0,0.0,0.0,0.0,0.0,0.0,0.0,0.0,0.0,0.0,0.0,0.0,0.0,0.0,0.0,0.0,0.0,0.0,0.0,0.0,0.0,0.0,0.0,0.0,0.0,0.7666,0.7647,0.8184,0.0,0.8251,0.0,0.0,0.0,0.0,0.0,0.0,0.0,0.0,0.0,0.0,0.0,0.0,0.0,0.0,0.0,0.0,0.0,0.0,0.0,0.0,0.0,0.0,0.0,0.0,0.0,0.0,0.0,0.0,0.0,0.0,0.0,0.0,0.0,0.0,0.0,0.0,0.0,0.0,0.0,0.0,0.0,0.0,0.0,0.0,0.0,0.0,0.0,0.0,0.0,0.0,0.0,0.0,0.0,0.0,0.0,0.0,0.0,0.0,0.0,0.0,0.0,0.0,0.0,0.0,0.0,0.0,0.0,0.0,0.0,0.0,0.0,0.0,0.0,0.0,0.0,0.0,0.0,0.0,0.0,0.0,0.0,0.0,0.0,0.0,0.0,0.0,0.0,0.0,0.0,0.0,0.0,0.0,0.0,0.0,0.0,0.0,0.0,0.0,0.0,0.0,0.0,0.0,0.0,0.0,0.0,0.0,0.0,0.0,0.0,0.0,0.7945,0.7947,0.8158,0.829,0.0,0.0,0.0,0.0,0.0,0.0,0.0,0.0,0.0,0.0,0.0,0.0,0.0,0.0,0.0,0.0,0.0,0.0,0.0,0.0,0.0,0.0,0.0,0.0,0.0,0.0,0.0,0.0,0.0,0.0,0.0,0.0,0.0,0.0,0.0,0.0,0.0,0.0,0.0,0.0,0.0,0.0,0.0,0.0,0.0,0.0,0.0,0.0,0.0,0.0,0.0,0.0,0.0,0.0,0.0,0.0,0.0,0.0,0.0,0.0,0.0,0.0,0.0,0.0,0.0,0.0,0.0,0.0,0.0,0.0,0.0,0.0,0.0,0.0,0.0,0.0,0.0,0.0,0.0,0.0,0.0,0.0,0.0,0.0,0.0,0.0,0.0,0.0,0.0,0.0,0.0,0.0,0.0,0.0,0.0,0.0,0.0,0.0,0.0,0.0,0.0,0.0,0.0,0.0,0.0,0.0,0.0,0.0,0.0,0.0,0.8248,0.8428,0.8533,0.8358,0.8375,0.8662,0.0,0.0,0.0,0.0,0.0,0.0,0.0,0.0,0.0,0.0,0.0,0.0,0.0,0.0,0.0,0.0,0.0,0.0,0.0,0.0,0.0,0.0,0.0,0.0,0.0,0.0,0.0,0.0,0.0,0.0,0.0,0.0,0.0,0.0,0.0,0.0,0.0,0.0,0.0,0.0,0.0,0.0,0.0,0.0,0.0,0.0,0.0,0.0,0.0,0.0,0.0,0.0,0.0,0.0,0.0,0.0,0.0,0.0,0.0,0.0,0.0,0.0,0.0,0.0,0.0,0.0,0.0,0.0,0.0,0.0,0.0,0.0,0.0,0.0,0.0,0.0,0.0,0.0,0.0,0.0,0.0,0.0,0.0,0.0,0.0,0.0,0.0,0.0,0.0,0.0,0.0,0.0,0.0,0.0,0.0,0.0,0.0,0.0,0.0,0.0,0.0,0.0,0.0,0.0,0.0,0.0,0.0,0.0,0.8662,0.8866,0.9128,0.9422,0.8894,0.8811,0.0,0.0,0.0,0.0,0.0,0.0,0.0,0.0,0.0,0.0,0.0,0.0,0.0,0.0,0.0,0.0,0.0,0.0,0.0,0.0,0.0,0.0,0.0,0.0,0.0,0.0,0.0,0.0,0.0,0.0,0.0,0.0,0.0,0.0,0.0,0.0,0.0,0.0,0.0,0.0,0.0,0.0,0.0,0.0,0.0,0.0,0.0,0.0,0.0,0.0,0.0,0.0,0.0,0.0,0.0,0.0,0.0,0.0,0.0,0.0,0.0,0.0,0.0,0.0,0.0,0.0,0.0,0.0,0.0,0.0,0.0,0.0,0.0,0.0,0.0,0.0,0.0,0.0,0.0,0.0,0.0,0.0,0.0,0.0,0.0,0.0,0.0,0.0,0.0,0.0,0.0,0.0,0.0,0.0,0.0,0.0,0.0,0.0,0.0,0.0,0.0,0.0,0.0,0.0,0.0,0.0,0.0,0.0,0.0,0.9058,0.9166,0.9502,1.0021,0.9357,0.9128,0.0,0.0,0.0,0.0,0.0,0.0,0.0,0.0,0.0,0.0,0.0,0.0,0.0,0.0,0.0,0.0,0.0,0.0,0.0,0.0,0.0,0.0,0.0,0.0,0.0,0.0,0.0,0.0,0.0,0.0,0.0,0.0,0.0,0.0,0.0,0.0,0.0,0.0,0.0,0.0,0.0,0.0,0.0,0.0,0.0,0.0,0.0,0.0,0.0,0.0,0.0,0.0,0.0,0.0,0.0,0.0,0.0,0.0,0.0,0.0,0.0,0.0,0.0,0.0,0.0,0.0,0.0,0.0,0.0,0.0,0.0,0.0,0.0,0.0,0.0,0.0,0.0,0.0,0.0,0.0,0.0,0.0,0.0,0.0,0.0,0.0,0.0,0.0,0.0,0.0,0.0,0.0,0.0,0.0,0.0,0.0,0.0,0.0,0.0,0.0,0.0,0.0,0.0,0.0,0.0,0.0,0.0,0.0,0.0,0.9633,0.0,0.9906,1.0347,0.9724,0.9396,0.0,0.0,0.0,0.0,0.0,0.0,0.0,0.0,0.0,0.0,0.0,0.0,0.0,0.0,0.0,0.0,0.0,0.0,0.0,0.0,0.0,0.0,0.0,0.0,0.0,0.0,0.0,0.0,0.0,0.0,0.0,0.0,0.0,0.0,0.0,0.0,0.0,0.0,0.0,0.0,0.0,0.0,0.0,0.0,0.0,0.0,0.0,0.0,0.0,0.0,0.0,0.0,0.0,0.0,0.0,0.0,0.0,0.0,0.0,0.0,0.0,0.0,0.0,0.0,0.0,0.0,0.0,0.0,0.0,0.0,0.0,0.0,0.0,0.0,0.0,0.0,0.0,0.0,0.0,0.0,0.0,0.0,0.0,0.0,0.0,0.0,0.0,0.0,0.0,0.0,0.0,0.0,0.0,0.0,0.0,0.0,0.0,0.0,0.0,0.0,0.0,0.0,0.0,0.0,0.0,0.0,0.0,0.0,0.9919,1.036,1.0447,1.046,1.0396,0.9905,0.971,0.0,0.0,0.0,0.0,0.0,0.0,0.0,0.0,0.0,0.0,0.0,0.0,0.0,0.0,0.0,0.0,0.0,0.0,0.0,0.0,0.0,0.0,0.0,0.0,0.0,0.0,0.0,0.0,0.0,0.0,0.0,0.0,0.0,0.0,0.0,0.0,0.0,0.0,0.0,0.0,0.0,0.0,0.0,0.0,0.0,0.0,0.0,0.0,0.0,0.0,0.0,0.0,0.0,0.0,0.0,0.0,0.0,0.0,0.0,0.0,0.0,0.0,0.0,0.0,0.0,0.0,0.0,0.0,0.0,0.0,0.0,0.0,0.0,0.0,0.0,0.0,0.0,0.0,0.0,0.0,0.0,0.0,0.0,0.0,0.0,0.0,0.0,0.0,0.0,0.0,0.0,0.0,0.0,0.0,0.0,0.0,0.0,0.0,0.0,0.0,0.0,0.0,0.0,0.0,0.0,0.0,0.0,0.0,0.0,1.0021,1.0594,1.0873,1.0811,1.0436,1.021,0.0,0.0,0.0,0.0,0.0,0.0,0.0,0.0,0.0,0.0,0.0,0.0,0.0,0.0,0.0,0.0,0.0,0.0,0.0,0.0,0.0,0.0,0.0,0.0,0.0,0.0,0.0,0.0,0.0,0.0,0.0,0.0,0.0,0.0,0.0,0.0,0.0,0.0,0.0,0.0,0.0,0.0,0.0,0.0,0.0,0.0,0.0,0.0,0.0,0.0,0.0,0.0,0.0,0.0,0.0,0.0,0.0,0.0,0.0,0.0,0.0,0.0,0.0,0.0,0.0,0.0,0.0,0.0,0.0,0.0,0.0,0.0,0.0,0.0,0.0,0.0,0.0,0.0,0.0,0.0,0.0,0.0,0.0,0.0,0.0,0.0,0.0,0.0,0.0,0.0,0.0,0.0,0.0,0.0,0.0,0.0,0.0,0.0,0.0,0.0,0.0,0.0,0.0,0.0,0.0,0.0,0.0,0.0,0.0,1.0987,1.137,1.1566,1.148,1.108,1.0709,1.0407,0.0,0.0,0.0,0.0,0.0,0.0,0.0,0.0,0.0,0.0,0.0,0.0,0.0,0.0,0.0,0.0,0.0,0.0,0.0,0.0,0.0,0.0,0.0,0.0,0.0,0.0,0.0,0.0,0.0,0.0,0.0,0.0,0.0,0.0,0.0,0.0,0.0,0.0,0.0,0.0,0.0,0.0,0.0,0.0,0.0,0.0,0.0,0.0,0.0,0.0,0.0,0.0,0.0,0.0,0.0,0.0,0.0,0.0,0.0,0.0,0.0,0.0,0.0,0.0,0.0,0.0,0.0,0.0,0.0,0.0,0.0,0.0,0.0,0.0,0.0,0.0,0.0,0.0,0.0,0.0,0.0,0.0,0.0,0.0,0.0,0.0,0.0,0.0,0.0,0.0,0.0,0.0,0.0,0.0,0.0,0.0,0.0,0.0,0.0,0.0,0.0,0.0,0.0,0.0,0.0,0.0,0.0,0.0,1.2978,1.2713,1.2527,1.24,1.1846,1.1213,0.0,0.0,0.0,0.0,0.0,0.0,0.0,0.0,0.0,0.0,0.0,0.0,0.0,0.0,0.0,0.0,0.0,0.0,0.0,0.0,0.0,0.0,0.0,0.0,0.0,0.0,0.0,0.0,0.0,0.0,0.0,0.0,0.0,0.0,0.0,0.0,0.0,0.0,0.0,0.0,0.0,0.0,0.0,0.0,0.0,0.0,0.0,0.0,0.0,0.0,0.0,0.0,0.0,0.0,0.0,0.0,0.0,0.0,0.0,0.0,0.0,0.0,0.0,0.0,0.0,0.0,0.0,0.0,0.0,0.0,0.0,0.0,0.0,0.0,0.0,0.0,0.0,0.0,0.0,0.0,0.0,0.0,0.0,0.0,0.0,0.0,0.0,0.0,0.0,0.0,0.0,0.0,0.0,0.0,0.0,0.0,0.0,0.0,0.0,0.0,0.0,0.0,0.0,0.0,0.0,0.0,0.0,0.0,0.0,1.4,1.4498,1.4344,1.3426,1.2545,1.1911,0.0,0.0,0.0,0.0,0.0,0.0,0.0,0.0,0.0,0.0,0.0,0.0,0.0,0.0,0.0,0.0,0.0,0.0,0.0,0.0,0.0,0.0,0.0,0.0,0.0,0.0,0.0,0.0,0.0,0.0,0.0,0.0,0.0,0.0,0.0,0.0,0.0,0.0,0.0,0.0,0.0,0.0,0.0,0.0,0.0,0.0,0.0,0.0,0.0,0.0,0.0,0.0,0.0,0.0,0.0,0.0,0.0,0.0,0.0,0.0,0.0,0.0,0.0,0.0,0.0,0.0,0.0,0.0,0.0,0.0,0.0,0.0,0.0,0.0,0.0,0.0,0.0,0.0,0.0,0.0,0.0,0.0,0.0,0.0,0.0,0.0,0.0,0.0,0.0,0.0,0.0,0.0,0.0,0.0,0.0,0.0,0.0,0.0,0.0,0.0,0.0,0.0,0.0,0.0,0.0,0.0,0.0,0.0,1.4043,1.4776,1.5861,1.6168,1.5624,1.385,1.2623,0.0,0.0,0.0,0.0,0.0,0.0,0.0,0.0,0.0,0.0,0.0,0.0,0.0,0.0,0.0,0.0,0.0,0.0,0.0,0.0,0.0,0.0,0.0,0.0,0.0,0.0,0.0,0.0,0.0,0.0,0.0,0.0,0.0,0.0,0.0,0.0,0.0,0.0,0.0,0.0,0.0,0.0,0.0,0.0,0.0,0.0,0.0,0.0,0.0,0.0,0.0,0.0,0.0,0.0,0.0,0.0,0.0,0.0,0.0,0.0,0.0,0.0,0.0,0.0,0.0,0.0,0.0,0.0,0.0,0.0,0.0,0.0,0.0,0.0,0.0,0.0,0.0,0.0,0.0,0.0,0.0,0.0,0.0,0.0,0.0,0.0,0.0,0.0,0.0,0.0,0.0,0.0,0.0,0.0,0.0,0.0,0.0,0.0,0.0,0.0,0.0,0.0,0.0,0.0,0.0,0.0,0.0,0.0,1.4857,1.5512,1.6907,1.7815,1.8156,1.5423,1.3506,0.0,0.0,0.0,0.0,0.0,0.0,0.0,0.0,0.0,0.0,0.0,0.0,0.0,0.0,0.0,0.0,0.0,0.0,0.0,0.0,0.0,0.0,0.0,0.0,0.0,0.0,0.0,0.0,0.0,0.0,0.0,0.0,0.0,0.0,0.0,0.0,0.0,0.0,0.0,0.0,0.0,0.0,0.0,0.0,0.0,0.0,0.0,0.0,0.0,0.0,0.0,0.0,0.0,0.0,0.0,0.0,0.0,0.0,0.0,0.0,0.0,0.0,0.0,0.0,0.0,0.0,0.0,0.0,0.0,0.0,0.0,0.0,0.0,0.0,0.0,0.0,0.0,0.0,0.0,0.0,0.0,0.0,0.0,0.0,0.0,0.0,0.0,0.0,0.0,0.0,0.0,0.0,0.0,0.0,0.0,0.0,0.0,0.0,0.0,0.0,0.0,0.0,0.0,0.0,0.0,0.0,0.0,0.0,1.5649,1.7001,1.7855,1.8583,1.9256,1.6616,1.5011,0.0,0.0,0.0,0.0,0.0,0.0,0.0,0.0,0.0,0.0,0.0,0.0,0.0,0.0,0.0,0.0,0.0,0.0,0.0,0.0,0.0,0.0,0.0,0.0,0.0,0.0,0.0,0.0,0.0,0.0,0.0,0.0,0.0,0.0,0.0,0.0,0.0,0.0,0.0,0.0,0.0,0.0,0.0,0.0,0.0,0.0,0.0,0.0,1.8244,0.0,0.0,0.0,0.0,0.0,0.0,0.0,0.0,0.0,0.0,0.0,0.0,0.0,0.0,0.0,0.0,0.0,0.0,0.0,0.0,0.0,0.0,0.0,0.0,0.0,0.0,0.0,0.0,0.0,0.0,0.0,0.0,0.0,0.0,0.0,0.0,0.0,0.0,0.0,0.0,0.0,0.0,0.0,0.0,0.0,0.0,0.0,0.0,0.0,0.0,0.0,0.0,0.0,0.0,0.0,0.0,0.0,0.0,0.0,1.7757,1.9194,1.9757,2.0406,2.104,1.9443,1.7613,0.0,0.0,0.0,0.0,0.0,0.0,0.0,0.0,0.0,0.0,0.0,0.0,0.0,0.0,0.0,0.0,0.0,0.0,0.0,0.0,0.0,0.0,0.0,0.0,0.0,0.0,0.0,0.0,0.0,0.0,0.0,0.0,0.0,0.0,0.0,0.0,0.0,0.0,0.0,0.0,0.0,0.0,0.0,0.0,0.0,0.0,0.0,0.0,0.0,0.0,0.0,0.0,0.0,0.0,0.0,0.0,0.0,0.0,0.0,0.0,0.0,0.0,0.0,0.0,0.0,0.0,0.0,0.0,0.0,0.0,0.0,0.0,0.0,0.0,0.0,0.0,0.0,0.0,0.0,0.0,0.0,0.0,0.0,0.0,0.0,0.0,0.0,0.0,0.0,0.0,0.0,0.0,0.0,0.0,0.0,0.0,0.0,0.0,0.0,0.0,0.0,0.0,0.0,0.0,0.0,0.0,0.0,1.8601,1.998,2.1448,2.1864,2.2372,2.3023,2.2405,2.0384,1.6933,0.0,0.0,0.0,0.0,0.0,0.0,0.0,0.0,0.0,0.0,0.0,0.0,0.0,0.0,0.0,0.0,0.0,0.0,0.0,0.0,0.0,0.0,0.0,0.0,0.0,0.0,0.0,0.0,0.0,0.0,0.0,0.0,0.0,0.0,0.0,0.0,0.0,0.0,1.6635,1.7015,0.0,0.0,0.0,0.0,0.0,0.0,0.0,0.0,1.822,0.0,0.0,0.0,0.0,0.0,0.0,0.0,0.0,0.0,0.0,0.0,0.0,0.0,0.0,0.0,0.0,0.0,0.0,0.0,0.0,0.0,0.0,0.0,0.0,0.0,0.0,0.0,0.0,0.0,0.0,0.0,0.0,0.0,0.0,0.0,0.0,0.0,0.0,0.0,0.0,0.0,0.0,0.0,0.0,0.0,0.0,0.0,0.0,0.0,0.0,0.0,0.0,0.0,0.0,0.0,0.0,2.0711,1.9536,2.02,2.2861,2.3034,2.3304,2.3768,2.3307,2.2038,1.9956,0.0,0.0,0.0,0.0,0.0,0.0,0.0,0.0,0.0,0.0,0.0,0.0,0.0,0.0,0.0,0.0,0.0,0.0,0.0,0.0,0.0,0.0,0.0,0.0,0.0,0.0,0.0,0.0,0.0,0.0,0.0,0.0,0.0,0.0,0.0,0.0,0.0,0.0,0.0,1.7213,1.7153,0.0,0.0,0.0,0.0,0.0,0.0,0.0,0.0,1.7395,0.0,0.0,0.0,0.0,0.0,0.0,0.0,0.0,0.0,0.0,0.0,0.0,0.0,0.0,0.0,0.0,0.0,0.0,0.0,0.0,0.0,0.0,0.0,0.0,0.0,0.0,0.0,0.0,0.0,0.0,0.0,0.0,0.0,0.0,0.0,0.0,0.0,0.0,0.0,0.0,0.0,0.0,0.0,0.0,0.0,0.0,0.0,0.0,0.0,0.0,0.0,0.0,0.0,0.0,0.0,2.2248,2.2548,2.3601,2.5429,2.5333,2.527,2.533,2.4774,2.3422,0.0,0.0,0.0,0.0,0.0,0.0,0.0,0.0,0.0,0.0,0.0,0.0,0.0,0.0,0.0,0.0,0.0,0.0,0.0,0.0,0.0,0.0,0.0,0.0,0.0,0.0,0.0,0.0,0.0,0.0,0.0,0.0,0.0,0.0,0.0,0.0,0.0,0.0,0.0,0.0,1.7106,1.7509,1.8171,0.0,0.0,0.0,0.0,0.0,0.0,1.7281,1.7264,0.0,0.0,0.0,0.0,0.0,0.0,0.0,0.0,0.0,0.0,0.0,0.0,0.0,0.0,0.0,0.0,0.0,0.0,0.0,0.0,0.0,0.0,0.0,0.0,0.0,0.0,0.0,0.0,0.0,0.0,0.0,0.0,0.0,0.0,0.0,0.0,0.0,0.0,0.0,0.0,0.0,0.0,0.0,0.0,0.0,0.0,0.0,0.0,0.0,0.0,0.0,0.0,0.0,0.0,0.0,2.3551,2.5118,2.6462,2.7512,2.7213,2.6908,2.6691,2.5813,2.4331,0.0,0.0,0.0,0.0,0.0,0.0,0.0,0.0,0.0,0.0,0.0,0.0,0.0,0.0,0.0,0.0,0.0,0.0,0.0,0.0,0.0,0.0,0.0,0.0,0.0,0.0,0.0,0.0,0.0,0.0,0.0,0.0,0.0,0.0,0.0,0.0,0.0,0.0,0.0,0.0,0.0,1.7747,1.8511,1.788,0.0,0.0,0.0,0.0,1.7173,1.7368,0.0,0.0,0.0,0.0,0.0,0.0,0.0,0.0,0.0,0.0,0.0,0.0,0.0,0.0,0.0,0.0,0.0,0.0,0.0,0.0,0.0,0.0,0.0,0.0,0.0,0.0,0.0,0.0,0.0,0.0,0.0,0.0,0.0,0.0,0.0,0.0,0.0,0.0,0.0,0.0,0.0,0.0,0.0,0.0,0.0,0.0,0.0,0.0,0.0,0.0,0.0,0.0,0.0,0.0,0.0,0.0,2.4935,2.4988,2.5819,2.7495,2.7276,2.7021,2.6923,2.5606,2.4368,0.0,0.0,0.0,0.0,0.0,0.0,0.0,0.0,0.0,0.0,0.0,0.0,0.0,0.0,0.0,0.0,0.0,0.0,0.0,0.0,0.0,0.0,0.0,0.0,0.0,0.0,0.0,0.0,0.0,0.0,0.0,0.0,0.0,0.0,0.0,0.0,0.0,0.0,0.0,0.0,0.0,1.7272,1.7925,1.7083,1.6558,0.0,0.0,1.7255,1.778,1.8359,0.0,0.0,0.0,0.0,0.0,0.0,0.0,0.0,0.0,0.0,0.0,0.0,0.0,0.0,0.0,0.0,0.0,0.0,0.0,0.0,0.0,0.0,0.0,0.0,0.0,0.0,0.0,0.0,0.0,0.0,0.0,0.0,0.0,0.0,0.0,0.0,0.0,0.0,0.0,0.0,0.0,0.0,0.0,0.0,0.0,0.0,0.0,0.0,0.0,0.0,0.0,0.0,0.0,0.0,0.0,2.4461,2.5464,2.6382,2.7225,2.7982,2.776,2.7522,2.7321,2.5704,2.4332,0.0,0.0,0.0,0.0,0.0,0.0,0.0,0.0,0.0,0.0,0.0,0.0,0.0,0.0,0.0,0.0,0.0,0.0,0.0,0.0,0.0,0.0,0.0,0.0,0.0,0.0,0.0,0.0,0.0,0.0,0.0,0.0,0.0,0.0,0.0,0.0,0.0,0.0,0.0,0.0,0.0,0.0,1.7855,1.735,0.0,0.0,0.0,1.672,1.6621,0.0,0.0,0.0,0.0,0.0,0.0,0.0,0.0,0.0,0.0,0.0,0.0,0.0,0.0,0.0,0.0,0.0,0.0,0.0,0.0,0.0,0.0,0.0,0.0,0.0,0.0,0.0,0.0,0.0,0.0,0.0,0.0,0.0,0.0,0.0,0.0,0.0,0.0,0.0,0.0,0.0,0.0,0.0,0.0,0.0,0.0,0.0,0.0,0.0,0.0,0.0,0.0,0.0,0.0,0.0,0.0,0.0,2.5649,2.7397,2.8353,2.838,2.8081,2.7836,2.7683,2.6009,0.0,0.0,0.0,0.0,0.0,0.0,0.0,0.0,0.0,0.0,0.0,0.0,0.0,0.0,0.0,0.0,0.0,0.0,0.0,0.0,0.0,0.0,0.0,0.0,0.0,0.0,0.0,1.4341,0.0,0.0,0.0,0.0,0.0,0.0,0.0,0.0,0.0,0.0,0.0,0.0,0.0,0.0,1.7231,1.7879,1.7749,1.7762,0.0,0.0,1.6596,1.6451,1.7221,1.7209,0.0,0.0,0.0,0.0,0.0,0.0,0.0,0.0,0.0,0.0,0.0,0.0,0.0,0.0,0.0,0.0,0.0,0.0,0.0,0.0,0.0,0.0,0.0,0.0,0.0,0.0,0.0,0.0,0.0,0.0,0.0,0.0,0.0,0.0,0.0,0.0,0.0,0.0,0.0,0.0,0.0,0.0,0.0,0.0,0.0,0.0,0.0,0.0,0.0,0.0,0.0,0.0,0.0,0.0,2.5709,2.5762,2.7308,2.8219,2.838,2.7979,2.7789,2.795,2.6708,2.5446,0.0,0.0,0.0,0.0,0.0,0.0,0.0,0.0,0.0,0.0,0.0,0.0,0.0,0.0,0.0,0.0,0.0,0.0,0.0,0.0,0.0,0.0,0.0,0.0,0.0,0.0,0.0,0.0,0.0,0.0,0.0,0.0,0.0,0.0,0.0,0.0,0.0,0.0,0.0,0.0,0.0,1.7327,1.7927,1.8069,1.8494,0.0,1.8251,1.7483,1.8499,1.8788,1.8318,1.6653,0.0,0.0,0.0,0.0,0.0,0.0,0.0,0.0,0.0,0.0,0.0,0.0,0.0,0.0,0.0,0.0,0.0,0.0,0.0,0.0,0.0,0.0,0.0,0.0,0.0,0.0,0.0,0.0,0.0,0.0,0.0,0.0,0.0,0.0,0.0,0.0,0.0,0.0,0.0,0.0,0.0,0.0,0.0,0.0,0.0,0.0,0.0,0.0,0.0,0.0,0.0,0.0,0.0,2.5924,2.5709,2.7536,2.8474,2.851,2.8164,2.7979,2.8136,2.6784,2.5605,0.0,0.0,0.0,0.0,0.0,0.0,0.0,0.0,0.0,0.0,0.0,0.0,0.0,0.0,0.0,0.0,0.0,0.0,0.0,0.0,0.0,0.0,0.0,0.0,0.0,0.0,0.0,0.0,1.5538,1.5626,1.5423,0.0,0.0,0.0,0.0,0.0,0.0,0.0,0.0,0.0,0.0,1.7787,1.8448,1.8643,0.0,0.0,1.84,1.7482,1.7934,1.7702,1.6987,1.5709,1.5444,0.0,0.0,0.0,0.0,0.0,0.0,0.0,0.0,0.0,0.0,0.0,0.0,0.0,0.0,0.0,0.0,0.0,0.0,0.0,0.0,0.0,0.0,0.0,0.0,0.0,0.0,0.0,0.0,0.0,0.0,0.0,0.0,0.0,0.0,0.0,0.0,0.0,0.0,0.0,0.0,0.0,0.0,0.0,0.0,0.0,0.0,0.0,0.0,0.0,0.0,0.0,0.0,2.6191,2.5793,2.768,2.8612,2.851,2.8174,2.8025,2.8017,2.7028,2.6027,0.0,0.0,0.0,0.0,0.0,0.0,0.0,0.0,0.0,0.0,0.0,0.0,0.0,0.0,0.0,0.0,0.0,0.0,0.0,0.0,0.0,0.0,0.0,0.0,0.0,0.0,0.0,0.0,1.6098,1.6138,1.5519,0.0,0.0,0.0,0.0,0.0,0.0,0.0,0.0,0.0,0.0,1.8561,1.8839,1.8925,1.9022,1.9227,1.7945,1.6981,1.7107,1.6786,1.6273,1.5499,0.0,0.0,0.0,0.0,0.0,0.0,0.0,0.0,0.0,0.0,0.0,0.0,0.0,0.0,0.0,0.0,0.0,0.0,0.0,0.0,0.0,0.0,0.0,0.0,0.0,0.0,0.0,-0.5389,0.0,0.0,-0.3094,0.0,0.0,0.0,0.0,0.0,0.0,0.0,0.0,0.0,0.0,0.0,0.0,0.0,0.0,0.0,0.0,0.0,0.0,0.0,0.0,0.0,0.0,2.6341,2.6021,2.7662,2.844,2.8327,2.7989,2.7789,2.773,2.7478,2.6837,2.5749,0.0,0.0,0.0,0.0,0.0,0.0,0.0,0.0,0.0,0.0,0.0,0.0,0.0,0.0,0.0,0.0,0.0,0.0,0.0,0.0,0.0,0.0,0.0,0.0,0.0,0.0,1.5855,1.5811,1.5724,0.0,0.0,0.0,0.0,0.0,0.0,0.0,0.0,0.0,1.7505,1.8957,1.9681,1.9002,1.8727,1.8554,1.8166,1.6812,1.6038,1.652,1.655,1.65,0.0,0.0,0.0,0.0,0.0,0.0,0.0,0.0,0.0,0.0,0.0,0.0,0.0,0.0,0.0,0.0,0.0,0.0,0.0,0.0,0.0,0.0,0.0,0.0,0.0,0.0,0.0,-0.2908,-0.4696,0.0,0.0,0.0,0.0,0.0,0.0,0.0,0.0,0.0,0.0,0.0,2.7566,2.7696,0.0,0.0,0.0,0.0,0.0,0.0,0.0,0.0,0.0,0.0,0.0,0.0,2.6709,2.6291,2.7858,2.8669,2.8562,2.8,2.776,2.7777,2.7276,2.65,2.5428,0.0,0.0,0.0,0.0,0.0,0.0,0.0,0.0,0.0,0.0,0.0,0.0,0.0,0.0,0.0,0.0,0.0,0.0,0.0,0.0,0.0,0.0,0.0,0.0,0.0,1.5892,0.0,0.0,0.0,0.0,0.0,0.0,0.0,0.0,0.0,0.0,1.7042,1.7708,1.8715,1.8839,1.8843,1.8989,1.9061,1.9134,0.0,0.0,0.0,0.0,0.0,0.0,0.0,0.0,0.0,0.0,0.0,0.0,0.0,0.0,2.2227,2.182,2.2259,2.3049,2.4373,0.0,0.0,0.0,0.0,0.0,0.0,0.0,0.0,0.0,0.0,0.0,0.0,0.0,0.0,0.0495,-0.1397,0.426,0.0,0.0,0.0,0.0,0.0,0.0,0.0,0.0,2.2422,2.5156,2.8415,2.845,2.854,2.8599,2.8335,2.7519,0.0,0.0,0.0,0.0,0.0,0.0,0.0,0.0,2.7037,2.6618,2.8095,2.8803,2.8558,2.8065,2.776,2.7659,2.7068,2.6371,2.5529,2.4023,2.2927,0.0,0.0,0.0,0.0,0.0,0.0,0.0,0.0,0.0,0.0,0.0,0.0,0.0,0.0,0.0,0.0,0.0,0.0,0.0,0.0,0.0,0.0,0.0,1.6987,0.0,0.0,0.0,0.0,0.0,0.0,0.0,0.0,0.0,1.79,1.8403,1.9195,1.9997,1.9867,1.9607,1.9423,0.0,0.0,0.0,0.0,0.0,0.0,0.0,1.6845,1.7569,1.7727,1.8029,1.8785,2.0552,2.1903,2.1961,0.0,0.0,2.404,2.4187,2.4724,2.591,2.6243,2.6272,2.6272,2.6466,2.6658,0.0,0.0,0.0,0.0,-0.7152,0.0,0.0,0.0,0.1807,0.4042,0.0,1.0585,0.0,0.0,0.0,0.0,0.7154,1.6446,0.0,0.0,2.714,2.9762,2.9145,2.9077,2.9168,2.9382,2.8534,2.8149,2.817,2.8112,0.0,0.0,0.0,0.0,0.0,0.0,2.7346,2.7009,2.8376,2.8865,2.835,2.8102,2.7771,2.7376,2.6908,2.6454,2.6071,2.498,2.402,2.3209,2.1335,0.0,0.0,0.0,0.0,0.0,0.0,0.0,0.0,0.0,0.0,0.0,0.0,0.0,0.0,0.0,0.0,0.0,0.0,0.0,0.0,1.8083,0.0,0.0,0.0,0.0,0.0,0.0,0.0,0.0,0.0,2.0301,1.9266,2.0239,2.1125,2.1153,0.0,0.0,0.0,0.0,1.9858,1.8661,1.7642,1.7191,1.7606,1.7956,1.8655,1.9762,0.0,0.0,2.0838,2.2075,2.2972,2.2376,2.4123,2.5596,2.5998,2.5785,2.5785,2.6516,2.6842,2.6879,2.6907,2.7354,2.7766,0.0277,0.0,0.0,0.0,0.0,0.0317,0.3114,0.7154,0.9528,1.0818,1.1542,1.7426,0.0,0.0,0.0,0.0,0.0,0.0,2.3046,2.6505,2.8382,2.9448,2.9896,2.991,3.0007,3.015,2.9908,2.9829,2.9967,2.9945,2.882,2.6715,0.0,0.0,0.0,0.0,2.7737,2.8014,2.8817,2.9114,2.8865,2.821,2.7465,2.6708,2.6297,2.5997,2.5888,2.5022,2.4171,2.3367,2.247,0.0,0.0,0.0,0.0,0.0,0.0,0.0,0.0,0.0,0.0,0.0,0.0,0.0,0.0,0.0,0.0,0.0,0.0,0.0,1.8166,1.838,1.8293,0.0,0.0,0.0,0.0,0.0,0.0,0.0,0.0,0.0,2.2261,2.1931,2.1583,0.0,0.0,2.0316,1.9456,1.9919,2.0193,1.9731,1.9757,0.0,1.9797,1.9544,1.9799,2.0849,2.2326,2.346,2.3699,2.4724,2.5459,2.5246,2.6294,2.7255,2.7491,2.7494,2.7607,2.8186,2.8415,2.846,2.846,2.8611,2.8761,0.3579,0.2013,0.2145,0.2485,0.2971,0.3563,0.583,0.9341,1.2241,1.3539,1.4124,2.229,2.3726,2.0044,1.9954,0.0,0.0,0.0,2.5936,2.9212,2.9205,2.9521,3.0099,3.0095,3.0184,3.037,3.0323,3.0423,3.06,3.0311,2.9379,2.7897,0.0,2.7026,2.6956,2.7832,2.8402,2.8558,2.912,2.9338,2.9104,2.8183,2.7361,2.6691,2.6262,2.6049,2.6049,2.5269,2.4595,2.4139,2.3243,2.2233,0.0,0.0,0.0,0.0,0.0,0.0,0.0,0.0,0.0,0.0,0.0,1.6429,1.5234,0.0,0.0,0.0,1.9195,1.9871,2.0699,2.0166,0.0,0.0,0.0,0.0,0.0,0.0,0.0,2.1713,2.3112,2.4204,2.465,2.4319,2.3744,2.2975,2.248,2.1909,2.1274,0.0,2.1843,2.157,2.1392,2.1316,2.1454,2.1148,2.1345,2.2656,2.3933,2.4845,2.5264,2.604,2.6549,2.6669,2.7399,2.811,2.8334,2.8527,2.8716,2.9029,2.9183,2.9289,2.938,2.938,2.947,0.9154,1.2955,0.6897,0.4821,0.5394,0.4988,0.5732,0.7532,1.2457,1.4246,1.479,2.5634,2.9755,2.8329,2.8039,0.0,2.2988,2.6899,2.9017,2.9683,2.9737,2.9841,2.9956,2.9792,2.9876,3.0155,3.0047,3.0152,3.041,2.9738,2.9421,2.9473,2.9547,2.9035,2.8008,2.8683,2.8989,2.8793,2.9225,2.9359,2.9089,2.8235,2.7608,2.7259,2.6792,2.6567,2.6516,2.581,2.539,2.5374,2.4002,2.3147,2.2914,0.0,0.0,0.0,0.0,0.0,0.0,0.0,0.0,0.0,0.0,0.0,0.0,0.0,0.0,0.0,2.1723,0.0,2.4048,2.2872,0.0,0.0,0.0,2.1695,2.2204,2.3565,2.4537,2.4774,0.0,0.0,2.6557,2.6969,2.691,2.6031,2.5808,2.5336,2.4383,2.4225,2.4173,2.3634,2.2724,2.2179,2.2612,2.2631,2.3158,2.472,2.5536,2.5863,2.5957,2.6375,2.6736,2.6788,2.7665,2.8448,2.8654,2.9088,2.9438,2.9213,2.935,2.956,2.9633,2.9722,2.9881,1.2377,1.3731,1.6271,1.7496,1.7364,1.3107,1.6336,2.4063,2.1393,2.2393,2.6426,2.9118,3.0064,2.9638,2.9583,2.9027,2.8195,2.9033,2.953,2.9683,2.9608,2.9645,2.977,2.9738,2.9771,2.9883,2.9921,3.0052,3.026,3.0181,2.9865,2.9406,3.0014,2.9568,2.8112,2.8008,2.8207,2.8641,2.8518,2.8669,2.9107,2.9101,2.8936,2.854,2.8163,2.7923,2.7923,2.7447,2.717,2.7154,2.6522,2.5841,2.5242,2.3215,0.0,0.0,0.0,0.0,0.0,0.0,0.0,0.0,0.0,1.8979,1.7648,0.0,2.0808,0.0,2.4025,2.4983,2.4606,2.4074,0.0,0.0,2.3673,2.3761,2.5153,2.5954,2.6437,2.6495,2.7166,2.7778,2.8169,2.8313,2.8506,2.8726,2.6965,2.528,2.4312,2.462,2.4763,2.4254,2.4218,2.4169,2.3804,2.4089,2.4801,2.6054,2.6404,2.6602,2.71,2.7255,2.7408,2.7458,2.8222,2.8779,2.8732,2.9512,2.9941,2.956,2.9486,2.9425,2.9289,2.9544,2.9837,1.7642,1.8253,2.1205,2.4114,2.6326,2.0,2.0864,2.6305,2.3418,2.3863,2.691,2.9193,3.0117,2.9973,2.9965,2.9886,2.9786,2.9698,2.9589,2.951,2.9491,2.9492,2.957,2.9645,2.9682,2.9753,2.9789,2.9104,2.7936,2.9805,2.8868,2.5215,2.7885,2.7625,2.4635,2.7399,2.9098,2.9432,2.8855,2.8761,2.9162,2.887,2.8421,2.7902,2.7657,2.7432,2.7212,2.6828,2.6519,2.6423,2.5989,2.5571,2.513,2.3712,2.2742,0.0,0.0,0.0,0.0,0.0,0.0,0.0,0.0,0.0,0.0,0.0,2.2601,2.3457,2.5347,2.6255,2.5555,2.5422,2.5589,2.6209,2.5893,2.6168,2.7619,2.8189,2.843,2.8302,2.8796,2.9167,2.9253,2.944,2.9613,2.9805,2.8453,2.7119,2.6198,2.6176,2.6023,2.5449,2.5382,2.5329,2.4854,2.5342,2.5974,2.6563,2.7122,2.753,2.7879,2.814,2.8286,2.8334,2.8889,2.9393,2.9257,2.9881,3.0342,3.0097,2.9984,2.9897,2.9766,2.9924,3.0182,2.3699,2.4362,2.4096,2.7257,3.1962,2.5748,2.317,2.327,2.3384,2.3411,2.3683,2.832,3.0219,2.9963,2.9923,2.9756,2.9533,2.9533,2.9454,2.9326,2.937,2.9372,2.9372,2.9511,2.9381,2.8998,2.9564,2.7846,2.4204,2.851,2.6926,2.0177,2.4436,2.4446,2.0264,2.6374,2.9596,2.9448,2.8957,2.8781,2.8937,2.796,2.7163,2.6582,2.6606,2.6409,2.5994,2.5619,2.5346,2.51,2.4725,2.4495,2.4475,2.3679,2.3131,0.0,2.2116,0.0,0.0,0.0,0.0,0.0,0.0,0.0,0.0,2.3876,2.4348,2.4557,2.6193,2.7095,2.6847,2.6818,2.7172,2.7976,2.8084,2.8424,2.9281,2.9897,3.0146,2.9881,3.0258,3.0342,3.0038,3.03,3.0342,3.0054,2.9832,2.9323,2.8623,2.7954,2.7475,2.7071,2.652,2.6212,2.6172,2.6558,2.6901,2.7108,2.775,2.84,2.84,2.8779,2.909,2.912,2.9438,2.975,2.9793,3.0156,3.0493,3.0559,3.0493,3.0452,3.0477,3.0502,3.0845,2.839,2.8576,2.8667,2.9405,3.0469,2.9851,2.9956,3.0501,3.0525,3.0441,3.0336,3.1013,3.1108,3.0677,3.0514,3.0141,2.9644,2.9394,2.933,2.9453,2.9307,2.9222,2.916,2.9411,2.7962,2.5437,2.8815,2.7059,2.0416,2.4995,2.446,1.9273,2.142,2.1754,2.0335,0.0,0.0,0.0,2.5659,2.676,2.7081,2.663,2.6561,2.6882,2.7121,0.0,2.7404,2.7371,2.7331,2.7275,2.6707,0.0,0.0,0.0,0.0,0.0,0.0,0.0,0.0,0.0,0.0,0.0,2.494,2.4594,2.4417,2.5546,2.6349,2.6504,2.7357,2.8081,2.8588,2.8619,2.859,2.8561,2.8946,2.9265,2.9406,2.9897,3.0231,3.0359,3.0468,3.0568,3.0716,3.0651,3.0609,3.0716,3.0551,3.0156,2.9617,2.9058,2.8764,2.8638,2.8048,2.7743,2.7743,2.7807,2.8033,2.8512,2.8732,2.8935,2.8982,2.9028,2.9136,2.9136,2.9483,2.9793,2.9793,3.0156,3.0551,3.0584,3.0584,3.0584,3.0584,3.0788,3.1044,2.6453,2.469,2.7299,2.9438,0.0,3.1473,3.1824,3.217,3.2354,3.2184,3.1755,3.135,3.1134,3.0946,3.0946,3.082,3.0583,3.0623,3.0581,3.0494,3.0535,3.0424,3.0152,2.8364,2.6515,2.4655,2.4916,2.2167,1.7126,2.1562,2.0502,1.4024,1.8009,1.8786,1.6406,1.9182,2.2006,2.4649,2.5118,2.5952,2.7145,2.6339,2.599,2.6351,2.6505,0.0,0.0,0.0,0.0,0.0,0.0,0.0,0.0,2.623,0.0,2.6027,2.603,2.6047,2.6213,2.6596,2.7114,2.7756,2.7472,2.6888,2.6075,2.716,2.7857,2.786,2.8262,2.8635,2.9044,2.9091,2.9029,2.8936,2.9167,2.9335,2.9483,2.9766,3.0087,3.0316,3.0426,3.0651,3.0935,3.0838,3.0814,3.0975,3.0855,3.0593,3.0215,2.9766,2.9393,2.912,2.8857,2.8639,2.8639,2.8639,2.8717,2.9074,2.9303,2.9438,2.9438,2.9617,2.981,2.981,2.9984,3.0156,3.0199,3.0468,3.0814,3.1021,3.1227,3.1363,3.1359,3.1278,3.124,2.182,1.893,2.3756,2.7844,3.0976,3.0907,3.1219,3.1771,3.2164,0.0,0.0,3.1238,3.1147,3.1168,3.1331,3.144,3.1458,3.179,3.179,3.1525,3.1691,3.1621,3.114,2.7321,2.5044,2.4128,2.1043,1.7279,1.3406,1.826,1.6705,1.0058,1.4604,1.5766,1.2862,1.5661,2.0001,2.5105,2.4347,2.4664,2.6544,2.5399,2.487,2.5242,2.5293,2.5313,2.5269,2.5301,2.5491,2.5925,2.5986,2.6123,2.6486,2.6534,2.6582,2.6737,2.7224,2.7739,2.8234,2.8634,2.9135,2.9761,2.9438,2.8774,2.7656,2.8389,2.8873,2.8825,2.895,2.9044,2.9075,2.9091,2.9091,2.9091,2.9167,2.9335,2.9515,2.9766,3.0087,3.0258,3.0568,3.0757,3.1134,3.1213,3.1173,3.1134,3.1078,3.0958,3.0609,3.0199,2.9837,2.9528,2.9438,2.9377,2.9348,2.9393,2.9348,2.9438,2.9705,2.9897,2.9984,3.0258,3.0468,3.051,3.0609,3.0609,3.0675,3.0878,3.1213,3.1504,3.1897,3.2264,3.2249,3.1949,3.175,1.6785,1.6564,2.0714,2.3933,2.6426,2.7115,2.8999,3.1533,3.1839,3.2036,3.2165,3.2351,3.2146,3.1693,3.1827,3.1619,3.1166,3.1272,3.1409,3.1584,3.1384,3.1224,3.0921,2.7155,2.3678,2.0827,2.0662,1.7015,1.1222,1.5164,1.4998,1.0548,1.1544,1.2677,1.3317,1.4641,1.6547,1.9071,1.9688,2.057,2.1724,2.1391,2.1975,2.3478,2.3816,2.4319,2.511,2.5206,2.5444,2.571,2.5804,2.6178,2.6926,2.6949,2.7347,2.8271,2.8825,2.9255,2.9675,2.988,2.9946,2.9793,2.975,2.93,2.837,2.8873,2.9106,2.8857,2.9196,2.9364,2.9167,2.9137,2.9137,2.9137,2.9454,2.9722,2.9722,3.013,3.0443,3.0692,3.1038,3.1257,3.1596,3.1748,3.1714,3.1579,3.1393,3.1201,3.0878,3.0609,3.0468,3.0426,3.0384,3.0316,3.0284,3.03,3.0258,3.03,3.03,3.0342,3.0342,3.0468,3.0593,3.0855,3.0935,3.1055,3.1235,3.1406,3.1542,3.1785,3.2127,3.2417,3.257,3.2716,3.2795,1.0651,1.1032,1.4681,1.7777,2.0354,2.2735,2.5315,2.7795,2.8407,2.9955,3.1985,3.1826,3.1899,3.221,3.2082,3.2065,3.218,3.2347,3.2501,3.2544,3.094,2.9775,2.8555,2.3431,1.9704,1.749,1.5721,1.2952,0.9723,1.1917,1.1764,0.9357,1.0708,1.1951,1.275,1.3932,1.4767,1.5295,1.758,1.9457,2.0819,2.1104,2.1805,2.2985,2.3379,2.4014,2.4875,2.4927,2.5397,2.6322,2.6377,2.6847,2.7734,2.7764,2.7994,2.8526,2.9053,2.9528,2.9892,3.0535,3.0675,3.0123,3.014,2.9881,2.9182,2.9409,2.9422,2.9116,2.9316,2.9409,2.938,2.9152,2.9152,2.9454,2.9677,2.9661,2.9544,2.9957,3.03,3.0384,3.0788,3.1261,3.1691,3.2003,3.2179,3.202,3.1714,3.13,3.0998,3.0982,3.0988,3.1044,3.0998,3.0958,3.1083,3.0902,3.0797,3.0773,3.0609,3.051,3.051,3.0634,3.0814,3.0975,3.1134,3.1329,3.1504,3.1617,3.1765,3.1894,3.2317,3.2601,3.2763,3.3154,3.3332,0.3461,0.3601,0.7831,1.1622,1.5111,1.8544,2.1409,2.383,2.4713,2.7117,3.0253,3.0656,3.1324,3.2179,3.1922,3.1723,3.1814,3.2766,3.2465,3.1026,2.9627,2.8046,2.5834,1.9813,1.6431,1.5307,1.1875,0.976,0.9306,0.9765,0.9614,0.9008,1.0473,1.1501,1.2024,1.3135,1.3491,1.3245,1.5852,1.8178,1.9997,2.0812,2.1616,2.2384,2.2955,2.361,2.4323,2.4567,2.5231,2.6428,2.6659,2.7152,2.8,2.8088,2.8217,2.8401,2.895,2.9528,3.0021,3.0821,3.0998,3.0452,3.0559,3.0535,3.0182,3.0097,2.9935,2.9532,2.9569,2.9677,2.9705,2.9348,2.9303,2.9881,2.9968,2.9853,2.947,2.9973,3.0258,3.0097,3.0616,3.1287,3.1733,3.2283,3.2519,3.2317,3.1842,3.1376,3.1157,3.124,3.1393,3.1565,3.1487,3.1449,3.1657,3.147,3.1235,3.1134,3.0958,3.0821,3.0821,3.0958,3.1179,3.1334,3.1545,3.1748,3.1785,3.1949,3.2091,3.2162,3.2453,3.2795,3.2965,3.3458,3.377,-0.5306,-0.4433,0.08,0.6718,1.1952,1.4647,1.7737,2.0997,2.2058,2.3919,2.6557,2.9295,3.0746,3.1281,3.1133,2.9764,2.8052,3.1115,2.9532,2.4745,2.664,2.6369,2.3141,1.8423,1.6253,1.5663,1.226,1.0212,0.969,1.0137,1.0137,0.9841,1.0137,1.0657,1.1397,1.1768,1.2218,1.2886,1.336,1.4852,1.7323,1.8843,2.0074,2.1204,2.1904,2.264,2.3382,2.4137,2.4781,2.5342,2.5906,2.6433,2.6989,2.7255,2.7695,2.8299,2.8997,2.9689,3.0326,3.0526,3.0634,3.0692,3.0935,3.1095,3.1072,3.1072,3.074,3.0166,3.0342,3.041,3.0225,2.9793,2.9733,3.0225,3.0351,3.0351,3.0087,3.0493,3.0723,3.0651,3.1055,3.1681,3.2074,3.2719,3.2912,3.2299,3.1878,3.1507,3.1252,3.1291,3.1562,3.2003,3.2039,3.1896,3.1823,3.1842,3.1714,3.1524,3.1524,3.147,3.1372,3.1428,3.16,3.1914,3.2248,3.2334,3.2486,3.2651,3.2651,3.2537,3.2702,3.2876,3.3325,3.3778,3.4005,-1.1686,-1.0899,-0.6888,-0.175,0.3677,0.6058,1.0007,1.4789,1.5258,1.8057,2.2626,2.5531,2.816,3.0398,2.8985,2.8486,2.8998,2.7489,2.6328,2.4977,2.3361,2.1093,1.8789,1.5901,1.3772,1.2477,1.154,1.0438,0.9236,0.8856,0.8618,0.8537,0.8927,0.9231,0.9372,1.0196,1.0732,1.0992,1.2131,1.3491,1.4942,1.7042,1.87,1.9803,2.0666,2.1404,2.2003,2.2688,2.3361,2.404,2.4754,2.5605,2.6573,2.6886,2.7464,2.8414,2.9104,2.9496,2.9467,3.0218,3.0747,3.0828,3.11,3.1312,3.1466,3.1329,3.1055,3.0797,3.0617,3.0477,3.0225,3.0011,2.9951,3.0097,3.0293,3.0267,2.9605,2.9984,3.0225,3.041,3.0834,3.1422,3.1986,3.257,3.2621,3.2056,3.1787,3.1582,3.1291,3.1562,3.1932,3.2231,3.2368,3.2519,3.2468,3.2317,3.2214,3.2039,3.1932,3.1823,3.1731,3.1932,3.2162,3.2316,3.2568,3.2749,3.288,3.2943,3.2943,3.288,3.3081,3.3321,3.3541,3.3842,3.4049,-1.6238,-1.5214,-1.2546,-0.8477,-0.3802,-0.174,0.2217,0.7108,0.8137,1.1342,1.6124,1.94,2.3067,2.6391,2.6208,2.694,2.7456,2.4405,2.2758,2.2862,1.9657,1.7055,1.4677,1.3442,1.1632,0.9986,1.0559,0.9895,0.8012,0.7399,0.7242,0.754,0.8089,0.8399,0.8389,0.9291,0.9695,0.9878,1.1135,1.2218,1.3201,1.498,1.6678,1.7852,1.8926,1.964,2.0213,2.098,2.1806,2.2651,2.3526,2.4443,2.5479,2.6144,2.7063,2.824,2.8748,2.8965,2.8841,2.9972,3.073,3.0851,3.11,3.1334,3.1487,3.1428,3.1368,3.1312,3.1021,3.0788,3.0584,3.0485,3.0444,3.0335,3.0543,3.0293,2.9694,2.9853,3.0182,3.0258,3.0851,3.1363,3.1968,3.2317,3.2283,3.1823,3.1677,3.16,3.1329,3.162,3.1967,3.2109,3.2316,3.2619,3.2975,3.2766,3.2553,3.2519,3.2385,3.2265,3.2056,3.2385,3.255,3.2568,3.283,3.288,3.2784,3.2848,3.2943,3.3006,3.322,3.3484,3.3484,3.377,3.3947,-1.8623,-1.7752,-1.5002,-1.2074,-0.8944,-0.6972,-0.4252,-0.0838,0.1503,0.3818,0.6451,1.0679,1.4784,1.9125,2.301,2.3915,2.2142,2.2637,1.9621,1.4768,1.6493,1.5387,1.1253,1.152,1.0875,0.9216,0.9432,0.859,0.6696,0.6395,0.67,0.7464,0.8016,0.8699,0.9145,0.9074,0.9377,0.9997,1.0078,1.0732,1.1916,1.2688,1.3842,1.5209,1.6365,1.7387,1.815,1.9194,2.0245,2.1129,2.2151,2.293,2.3546,2.4925,2.6328,2.756,2.7605,2.7936,2.8902,2.9641,3.0225,3.0617,3.0918,3.1173,3.1269,3.1449,3.1603,3.1677,3.1623,3.1565,3.147,3.1304,3.1304,3.124,3.11,3.0764,3.0468,3.0576,3.0683,3.0584,3.1111,3.1716,3.2231,3.2231,3.195,3.1677,3.162,3.1562,3.1291,3.1252,3.1466,3.1694,3.186,3.2074,3.2848,3.2894,3.2798,3.2848,3.288,3.2912,3.2802,3.2722,3.2734,3.2699,3.2766,3.2719,3.2537,3.2537,3.2603,3.2798,3.3124,3.3332,3.3379,3.3716,3.3895,-2.1822,-2.1088,-1.838,-1.6806,-1.6035,-1.3685,-1.083,-0.7761,-0.5489,-0.2698,0.0702,0.5078,1.0232,1.5664,1.7578,2.0216,2.263,2.0262,1.7358,1.4916,1.4689,1.287,1.0239,1.1093,1.0024,0.7668,0.8358,0.8053,0.6458,0.6244,0.6251,0.6325,0.6942,0.7476,0.7778,0.7859,0.8322,0.916,0.918,0.9781,1.0956,1.1353,1.1942,1.2778,1.4688,1.6175,1.7257,1.8093,1.9038,2.0096,2.0974,2.1992,2.3119,2.4646,2.5793,2.6328,2.6813,2.7339,2.7902,2.8965,2.9657,2.9751,3.0302,3.0773,3.1099,3.1329,3.1571,3.1934,3.2092,3.2039,3.186,3.1677,3.13,3.0723,3.0804,3.0868,3.0592,3.0567,3.0625,3.0874,3.1283,3.149,3.1545,3.1507,3.1411,3.1196,3.1179,3.1157,3.1134,3.1235,3.1449,3.149,3.164,3.1878,3.2316,3.2699,3.2862,3.3086,3.3165,3.2993,3.2884,3.2866,3.2844,3.2749,3.2702,3.283,3.2749,3.2702,3.2702,3.2781,3.3105,3.3273,3.3302,3.3662,3.3815,-2.3644,-2.305,-2.0951,-2.0422,-2.0717,-1.8201,-1.6142,-1.4287,-1.219,-0.9984,-0.7151,-0.2245,0.3013,0.7563,1.0114,1.4653,2.0091,1.7771,1.5579,1.358,1.238,1.045,0.8415,0.9637,0.8722,0.6056,0.6827,0.6831,0.5687,0.547,0.5398,0.5321,0.5938,0.6321,0.6553,0.7022,0.7718,0.8408,0.8727,0.9256,1.0073,1.0351,1.0726,1.1329,1.2837,1.449,1.6088,1.6757,1.7658,1.8988,1.9814,2.098,2.259,2.3761,2.4603,2.501,2.5725,2.6261,2.6538,2.7614,2.8498,2.8928,2.9396,3.0005,3.075,3.1179,3.1556,3.1917,3.2229,3.2248,3.2074,3.1785,3.1295,3.0723,3.0908,3.1072,3.1021,3.0999,3.1172,3.1418,3.1278,3.1117,3.1055,3.1112,3.1072,3.0912,3.0952,3.0992,3.1072,3.1252,3.1449,3.1372,3.1432,3.1657,3.195,3.2213,3.2417,3.2651,3.2993,3.293,3.2848,3.2894,3.2894,3.2749,3.2813,3.297,3.3001,3.2925,3.2925,3.2908,3.3063,3.3262,3.3408,3.3606,3.377,-2.3935,-2.3755,-2.2493,-2.2323,-2.2566,-2.0325,-1.9971,-2.0313,-1.8287,-1.7331,-1.6638,-1.157,-0.6954,-0.4267,0.1033,0.6936,1.2179,1.4145,1.2941,0.9308,0.9856,0.8374,0.5195,0.711,0.6889,0.4448,0.4841,0.4766,0.4222,0.407,0.4226,0.4688,0.5154,0.5386,0.5622,0.663,0.7484,0.7944,0.8408,0.8937,0.9327,0.969,1.0212,1.0738,1.1031,1.2271,1.4522,1.5021,1.6079,1.7716,1.8576,1.9879,2.1475,2.2091,2.2591,2.3495,2.4089,2.4576,2.5122,2.5838,2.6899,2.7931,2.8373,2.89,2.9881,3.0824,3.124,3.1116,3.1757,3.2229,3.2091,3.179,3.1603,3.1785,3.1493,3.1439,3.1825,3.2162,3.2335,3.2056,3.1355,3.0878,3.1032,3.0992,3.0814,3.0831,3.0952,3.1015,3.0992,3.1112,3.119,3.119,3.1252,3.1428,3.1582,3.1696,3.1897,3.2109,3.2519,3.2719,3.2651,3.2666,3.2713,3.2681,3.2965,3.3118,3.3087,3.3045,3.2983,3.2996,3.3154,3.3302,3.3504,3.3725,3.3858,-2.5036,-2.457,-2.3696,-2.3768,-2.4315,-2.3065,-2.3157,-2.3856,-2.1765,-2.1113,-2.0731,-1.7698,-1.3358,-0.9299,-0.7144,-0.3497,0.2228,0.3279,0.5788,0.9531,0.8949,0.6627,0.4411,0.5416,0.5197,0.3513,0.3519,0.3679,0.36,0.3368,0.3754,0.4533,0.4533,0.4613,0.4768,0.5309,0.5851,0.6542,0.6747,0.7283,0.8237,0.8908,0.9588,1.0137,1.0743,1.1761,1.315,1.3658,1.4585,1.6,1.6982,1.8325,1.9825,2.0643,2.1215,2.1844,2.2396,2.3339,2.4493,2.5039,2.5745,2.674,2.7294,2.775,2.8299,2.8898,2.9255,2.9448,3.0717,3.1582,3.1315,3.1509,3.1723,3.2092,3.1878,3.1752,3.2057,3.1986,3.1787,3.162,3.1157,3.0952,3.0855,3.0692,3.0443,3.0443,3.0485,3.0526,3.0568,3.0814,3.1032,3.0992,3.1112,3.1055,3.1083,3.1244,3.1493,3.1826,3.2282,3.2634,3.2565,3.2727,3.2741,3.2898,3.3189,3.3277,3.3201,3.3171,3.3189,3.3219,3.3364,3.3524,3.368,3.3813,3.3968,-2.6096,-2.5673,-2.5246,-2.5342,-2.5835,-2.5314,-2.5437,-2.5873,-2.4833,-2.4477,-2.4314,-2.2525,-1.9576,-1.641,-1.6003,-1.2436,-0.7199,-0.8485,-0.4112,0.4352,0.5206,0.3355,0.2016,0.2869,0.3189,0.2501,0.2423,0.2581,0.2898,0.2503,0.2735,0.3519,0.3677,0.3599,0.3677,0.4375,0.4996,0.5375,0.5748,0.6367,0.7157,0.7927,0.8613,0.9155,0.9981,1.0801,1.1613,1.2271,1.3368,1.472,1.6,1.7179,1.8065,1.9145,1.9944,2.0171,2.0894,2.1808,2.3009,2.3313,2.4169,2.519,2.5753,2.5941,2.6179,2.6549,2.6952,2.7175,2.8148,2.9529,3.0368,3.082,3.161,3.2931,3.2126,3.1933,3.2127,3.1968,3.1623,3.1376,3.0965,3.0699,3.0384,3.0215,2.9957,2.9973,3.0,3.0044,3.013,3.0326,3.0452,3.051,3.051,3.0493,3.0535,3.0788,3.1072,3.1554,3.2092,3.2413,3.2592,3.3094,3.3335,3.3487,3.3742,3.3768,3.3742,3.3634,3.3607,3.3616,3.3625,3.3784,3.3956,3.3949,3.4074,-2.7078,-2.7026,-2.7063,-2.7004,-2.7004,-2.6886,-2.7039,-2.7315,-2.7433,-2.7773,-2.7919,-2.6317,-2.5624,-2.5575,-2.3983,-2.0198,-1.5906,-1.8316,-1.5208,-0.7554,-0.3868,-0.2238,-0.0698,-0.0388,0.0078,0.1016,0.1014,0.1248,0.1485,0.086,0.1017,0.2115,0.2504,0.2504,0.2503,0.375,0.4215,0.4208,0.4988,0.5535,0.5928,0.6721,0.7269,0.7702,0.8761,0.9528,0.9981,1.0881,1.2278,1.4083,1.5342,1.5974,1.641,1.7804,1.8489,1.8566,1.9441,2.0322,2.091,2.1581,2.2225,2.3755,2.3916,2.378,2.397,2.4121,2.4218,2.4175,2.5009,2.6519,2.8657,2.9482,3.0699,3.3086,3.2196,3.1846,3.2385,3.2127,3.1476,3.1021,3.0657,3.0293,2.9777,2.9556,2.9483,2.9467,2.9512,2.9406,2.948,2.9524,2.9733,2.9821,2.9951,3.0326,3.0477,3.0309,3.0657,3.1391,3.1775,3.1952,3.2506,3.3087,3.3255,3.3497,3.3843,3.3981,3.3981,3.3695,3.3802,3.3968,3.4049,3.4152,3.4104,3.4025,3.4,-2.8012,-2.7715,-2.8079,-2.8079,-2.7898,-2.8179,-2.8418,-2.8639,-2.8854,-2.9127,-2.9141,-2.8949,-2.8897,-2.9321,-2.9994,-2.7921,-2.5045,-2.6039,-2.3332,-1.6607,-1.4563,-0.9326,-0.441,-0.3469,-0.317,-0.2177,-0.1632,-0.1319,-0.1086,-0.117,-0.0391,0.1173,0.1253,0.1254,0.1411,0.2036,0.2268,0.219,0.2506,0.3052,0.3748,0.5065,0.5912,0.6294,0.7757,0.8609,0.8917,0.9755,1.1248,1.3215,1.3663,1.4664,1.5737,1.6149,1.6655,1.7451,1.8162,1.9104,2.0256,2.1055,2.2003,2.2857,2.2469,2.2311,2.2298,2.1534,2.1242,2.1451,2.2811,2.3858,2.4038,2.5454,2.7486,2.9471,3.0589,3.162,3.1969,3.1408,3.0599,2.9805,3.0294,3.01,2.9476,2.8887,2.867,2.8607,2.8355,2.8051,2.8181,2.8607,2.8747,2.9342,2.9641,3.0149,3.0393,3.014,3.0352,3.1151,3.1379,3.1271,3.1985,3.276,3.2572,3.2402,3.2998,3.3259,3.3278,3.3148,3.3603,3.3894,3.3869,3.3692,3.3854,3.3858,3.3858,-2.8591,-2.8352,-2.8919,-2.8996,-2.8904,-2.9512,-2.9661,-2.9601,-3.0185,-3.0361,-3.0286,-3.0813,-3.1264,-3.1725,-3.2828,-3.2445,-3.085,-3.1688,-2.8946,-2.4036,-2.0727,-1.476,-0.836,-0.6314,-0.5399,-0.465,-0.4264,-0.3567,-0.2873,-0.2884,-0.1874,-0.0391,0.0078,0.0157,0.0,0.0784,0.1019,0.0863,0.1178,0.1805,0.2192,0.3902,0.4675,0.5295,0.6839,0.8003,0.8542,0.9382,1.0582,1.1755,1.2531,1.3404,1.4314,1.4966,1.5401,1.614,1.6922,1.7978,1.8864,1.9738,2.0384,2.0744,2.0508,2.0061,1.9544,1.8792,1.8405,1.8395,1.978,2.0535,2.1388,2.3174,2.5002,2.635,2.768,2.9597,3.1945,3.1987,3.121,3.056,3.0187,3.0002,2.9051,2.8245,2.7709,2.736,2.7056,2.6784,2.6666,2.7285,2.7847,2.8404,2.8529,2.87,2.9143,2.9085,2.9416,3.0236,3.0757,3.0645,3.1495,3.2269,3.198,3.1807,3.2246,3.2619,3.2792,3.2857,3.2816,3.3034,3.3099,3.3257,3.3368,3.376,3.3733,-2.912,-2.9074,-2.9705,-2.9881,-2.9924,-3.0658,-3.0576,-3.0293,-3.1287,-3.1551,-3.1405,-3.2196,-3.2677,-3.3296,-3.3688,-3.4211,-3.4561,-3.4578,-3.2697,-2.8627,-2.4462,-1.8529,-1.287,-0.9812,-0.8094,-0.6851,-0.6576,-0.5733,-0.4886,-0.474,-0.3585,-0.211,-0.1017,-0.0861,-0.0862,-0.0078,0.0078,-0.0079,0.0629,0.1099,0.149,0.2741,0.3679,0.4217,0.5925,0.7318,0.8165,0.9155,0.9916,1.0062,1.1539,1.2432,1.2673,1.4258,1.4824,1.5117,1.6105,1.6982,1.7366,1.7968,1.8315,1.8742,1.8665,1.7948,1.7483,1.7073,1.6582,1.6417,1.6175,1.7775,1.9505,2.1915,2.2935,2.3459,2.3385,2.6416,3.0282,3.219,3.2035,3.1215,2.9733,2.9695,2.8327,2.7538,2.6657,2.6872,2.6366,2.5779,2.5656,2.5991,2.6652,2.7379,2.7275,2.6931,2.7435,2.7941,2.8498,2.9106,2.976,3.0104,3.1042,3.1568,3.1393,3.1429,3.1918,3.2389,3.2816,3.2727,3.2478,3.2834,3.3369,3.3099,3.2841,3.3405,3.3615,-3.0584,-3.0081,-3.0788,-3.0642,-3.0054,-3.0942,-3.1157,-3.0861,-3.1898,-3.2161,-3.2144,-3.2763,-3.3306,-3.3755,-3.4062,-3.4524,-3.5154,-3.492,-3.3236,-3.0705,-2.7763,-2.4243,-1.9746,-1.5878,-1.2332,-1.0307,-0.9557,-0.8878,-0.7884,-0.674,-0.5594,-0.3513,-0.2734,-0.2111,-0.141,-0.1019,-0.0706,-0.0942,-0.0393,0.0,0.0235,0.1334,0.243,0.3129,0.4924,0.6015,0.6707,0.8089,0.8932,0.9377,1.0507,1.1793,1.2728,1.3046,1.3608,1.4721,1.5525,1.6253,1.6738,1.7483,1.8295,1.8247,1.7833,1.792,1.823,1.6498,1.6088,1.6079,1.6,1.6165,1.7016,1.8431,1.9307,2.0004,2.142,2.285,2.4462,2.7044,2.7255,2.5909,2.7913,2.9873,2.6241,2.6488,2.622,2.6356,2.5655,2.4885,2.4801,2.4859,2.5852,2.6819,2.7021,2.6965,2.7195,2.7573,2.775,2.7977,2.842,2.8697,2.9657,2.9977,2.9432,3.0299,3.1668,3.2119,3.2611,3.2611,3.2357,3.3013,3.3469,3.3154,3.299,3.335,3.356,-3.1257,-3.0925,-3.1351,-3.114,-3.0788,-3.147,-3.1637,-3.1545,-3.2299,-3.2634,-3.2699,-3.3105,-3.3625,-3.4209,-3.4316,-3.4782,-3.5281,-3.5018,-3.3849,-3.1989,-2.9926,-2.7378,-2.4135,-2.0756,-1.7167,-1.3558,-1.2204,-1.1249,-0.9916,-0.8505,-0.6908,-0.522,-0.4448,-0.3673,-0.2815,-0.2192,-0.1881,-0.1649,-0.1021,-0.0629,-0.0393,0.0628,0.2116,0.3205,0.4455,0.5237,0.6012,0.7322,0.7931,0.8313,0.9301,1.0743,1.2055,1.2244,1.2746,1.3484,1.4394,1.4854,1.5421,1.5974,1.6453,1.6826,1.641,1.6498,1.6585,1.5613,1.5188,1.5188,1.5046,1.4974,1.4807,1.4965,1.5662,1.5796,1.7184,1.7938,1.8243,2.1652,2.4248,2.2359,2.4053,2.4352,2.3702,2.3555,2.2477,2.1236,2.3385,2.2859,2.3742,2.4119,2.5643,2.6593,2.7016,2.7229,2.7323,2.7334,2.7155,2.7069,2.6916,2.6937,2.7205,2.7226,2.7044,2.833,2.9668,3.1756,3.2249,3.2249,3.1438,3.2232,3.2455,3.2787,3.2001,3.011,3.1274,-3.1596,-3.1542,-3.1654,-3.1617,-3.16,-3.2073,-3.2127,-3.1932,-3.2654,-3.3001,-3.31,-3.3354,-3.3931,-3.447,-3.4572,-3.4971,-3.5364,-3.5247,-3.4304,-3.3215,-3.2081,-2.942,-2.6356,-2.4095,-2.1476,-1.7254,-1.4944,-1.3179,-1.1249,-0.9782,-0.8509,-0.6988,-0.5922,-0.4996,-0.445,-0.3675,-0.2896,-0.2586,-0.1649,-0.0943,-0.0707,0.0314,0.1801,0.3203,0.3904,0.4453,0.5309,0.6391,0.7165,0.7157,0.8084,0.9382,1.0588,1.1477,1.2003,1.215,1.3164,1.36,1.3962,1.425,1.4545,1.4561,1.4848,1.4991,1.5125,1.5188,1.4832,1.4553,1.4418,1.4201,1.363,1.3201,1.2635,1.2364,1.2458,1.2111,1.2606,1.6416,1.8333,1.9551,2.0263,2.0882,1.961,1.8785,1.7412,1.6788,1.9098,2.0712,2.1403,2.1706,2.218,2.1951,2.1364,2.0501,2.0472,2.3716,2.3935,2.2035,2.2498,2.2549,2.2481,2.1912,2.1846,2.5589,2.7547,2.8285,2.7772,2.5903,2.6373,2.9391,2.9076,2.6863,2.6149,2.6056,2.7656,-3.209,-3.1875,-3.2249,-3.2127,-3.1841,-3.2454,-3.2603,-3.2435,-3.3045,-3.3332,-3.34,-3.3707,-3.4223,-3.4639,-3.4636,-3.4982,-3.5458,-3.5349,-3.4913,-3.4185,-3.324,-3.1235,-2.8974,-2.7016,-2.4908,-2.2122,-1.8486,-1.5039,-1.3027,-1.1883,-1.0162,-0.8134,-0.7306,-0.6461,-0.5303,-0.43,-0.3986,-0.3597,-0.2508,-0.1884,-0.149,-0.0706,0.0549,0.1955,0.2657,0.3283,0.3906,0.522,0.6224,0.6454,0.7846,0.8932,0.976,1.0421,1.1391,1.2298,1.2673,1.2886,1.3112,1.3542,1.4178,1.4744,1.5037,1.5683,1.5886,1.5658,1.5037,1.4903,1.4338,1.3833,1.376,1.2519,1.1781,1.1477,1.118,1.0565,0.982,1.0761,1.2289,1.3305,1.5641,1.7716,1.6075,1.4919,1.4488,1.3918,1.4887,1.5752,1.5918,1.5638,1.5235,1.4667,1.3865,1.2859,1.2017,1.6642,1.8834,1.485,1.4223,1.4567,1.4577,1.4693,1.61,1.6938,1.8709,1.9481,1.8918,1.8995,1.9456,2.1074,2.0511,1.9856,1.9777,1.9745,1.9577,-3.2489,-3.2472,-3.2672,-3.2636,-3.2568,-3.2939,-3.3154,-3.3148,-3.3514,-3.3778,-3.3884,-3.4087,-3.4445,-3.4832,-3.4927,-3.5245,-3.5572,-3.5585,-3.5261,-3.4718,-3.3889,-3.2547,-3.0467,-2.8634,-2.6367,-2.3817,-2.0677,-1.7783,-1.5275,-1.3186,-1.1723,-1.0392,-0.92,-0.8067,-0.6992,-0.6069,-0.5455,-0.4833,-0.3675,-0.282,-0.266,-0.188,-0.0861,0.0548,0.1251,0.1955,0.3049,0.3744,0.4441,0.4675,0.5449,0.6364,0.7431,0.8656,0.9943,1.1465,1.2003,1.2157,1.2378,1.2739,1.3091,1.3745,1.4178,1.4394,1.4752,1.4537,1.4681,1.4466,1.4274,1.3404,1.2732,1.1996,1.1558,1.126,1.0887,1.0051,0.9221,0.8998,0.8812,0.8618,1.061,1.2312,1.2214,1.1527,1.1556,1.1471,1.1259,1.0957,1.0605,1.0068,0.9403,0.8775,0.8048,0.6621,0.5705,0.8361,1.0601,0.7268,0.549,0.5862,0.5734,0.5493,0.4457,0.413,0.6267,0.9756,1.3455,1.4552,1.3704,1.2666,1.3233,1.352,1.3478,1.3351,1.2681,-3.277,-3.2916,-3.2948,-3.3068,-3.3243,-3.339,-3.3588,-3.376,-3.3902,-3.4099,-3.4293,-3.4367,-3.4614,-3.5016,-3.5296,-3.554,-3.5885,-3.5749,-3.5441,-3.4907,-3.4228,-3.2983,-3.1199,-2.9231,-2.727,-2.5618,-2.3035,-2.0665,-1.7388,-1.5064,-1.3389,-1.1944,-1.0628,-0.9739,-0.9054,-0.7677,-0.6988,-0.5992,-0.483,-0.3822,-0.3281,-0.2815,-0.1955,-0.0234,0.0,0.0704,0.1957,0.2657,0.2891,0.3127,0.3437,0.4051,0.5043,0.6364,0.8134,0.9959,1.0726,1.1329,1.1706,1.2003,1.2372,1.2806,1.29,1.2973,1.3119,1.355,1.363,1.3397,1.3178,1.2893,1.2144,1.1558,1.126,1.1037,1.0732,1.0351,0.9528,0.8998,0.8309,0.8062,0.7613,0.7571,0.8098,0.8384,0.842,0.7163,0.6899,0.5857,0.5547,0.497,0.4303,0.3612,0.2581,0.0895,0.0,-0.0307,0.0061,-0.2709,-0.3735,-0.3613,-0.3906,-0.4333,-0.529,-0.5817,-0.3222,0.0567,0.5286,0.7349,0.3653,0.2493,0.5535,0.5831,0.3443,0.3439,0.3736,-3.2884,-3.2916,-3.3042,-3.3172,-3.339,-3.3597,-3.3788,-3.3979,-3.403,-3.4124,-3.4386,-3.4505,-3.4773,-3.5143,-3.556,-3.5745,-3.5798,-3.5763,-3.5449,-3.4862,-3.442,-3.3503,-3.2153,-3.0705,-2.8901,-2.7121,-2.4874,-2.1424,-1.8598,-1.7184,-1.5415,-1.3454,-1.2084,-1.0977,-1.0254,-0.9125,-0.8084,-0.7318,-0.6224,-0.4828,-0.3359,-0.2973,-0.2267,-0.1487,-0.1096,-0.0627,0.047,0.1096,0.1566,0.2036,0.281,0.3744,0.4768,0.5715,0.6696,0.8129,0.9643,1.1111,1.126,1.1409,1.1781,1.2077,1.2378,1.2826,1.2833,1.2826,1.2973,1.2973,1.2526,1.215,1.17,1.1111,1.0738,1.0507,1.0282,0.9825,0.9301,0.9003,0.8313,0.7855,0.7548,0.569,0.4889,0.5129,0.5203,0.3791,0.2462,0.1517,0.0,-0.0976,-0.3072,-0.4466,-0.4191,-0.5515,-0.7521,-0.7599,-0.8667,-1.1625,-1.2205,-1.2364,-1.2513,-1.2735,-1.3783,-1.3542,-1.1224,-1.0361,-0.8132,-0.7644,-0.9234,-0.7588,-0.4379,-0.5784,-0.8685,-0.7482,-0.4413,-3.3397,-3.3196,-3.3357,-3.3569,-3.377,-3.3972,-3.4227,-3.4461,-3.4505,-3.4569,-3.4714,-3.4851,-3.5098,-3.5399,-3.5726,-3.5854,-3.5845,-3.5801,-3.5432,-3.4885,-3.4483,-3.3696,-3.2269,-3.0946,-2.9613,-2.8169,-2.6246,-2.3848,-2.0802,-1.8241,-1.639,-1.5105,-1.3556,-1.2412,-1.1594,-1.0559,-0.9674,-0.8841,-0.7842,-0.6605,-0.5455,-0.4761,-0.4062,-0.2815,-0.2659,-0.2112,-0.133,-0.1017,-0.0235,0.0313,0.1016,0.1954,0.3366,0.4693,0.5918,0.6773,0.8604,0.983,1.0288,1.0288,1.0657,1.1186,1.1416,1.1422,1.2116,1.2325,1.2318,1.2358,1.1713,1.1397,1.1329,1.0663,1.0363,1.0062,1.0056,0.9604,0.9226,0.8927,0.847,0.8016,0.7326,0.5535,0.4139,0.46,0.4428,0.2556,0.0461,-0.1519,-0.4699,-0.8132,-1.0835,-1.4004,-1.3124,-1.2267,-1.4642,-1.604,-1.5927,-1.7936,-1.9261,-1.9565,-2.0128,-2.0745,-2.0575,-2.078,-1.9564,-1.9374,-2.0048,-1.7698,-1.4742,-1.4371,-1.4316,-1.4645,-1.4656,-1.2353,-0.9563,-3.3868,-3.3577,-3.3698,-3.3895,-3.4099,-3.4269,-3.4564,-3.4889,-3.4908,-3.4981,-3.5066,-3.52,-3.5412,-3.5663,-3.581,-3.5876,-3.584,-3.5793,-3.534,-3.4889,-3.4461,-3.3663,-3.2481,-3.1205,-3.0177,-2.8669,-2.7534,-2.565,-2.3205,-2.05,-1.8348,-1.6886,-1.5067,-1.4019,-1.323,-1.2198,-1.1162,-0.9895,-0.8978,-0.7914,-0.7007,-0.6395,-0.5464,-0.4453,-0.383,-0.3363,-0.2659,-0.2425,-0.18,-0.1252,-0.094,-0.0078,0.1254,0.2495,0.3887,0.4897,0.6517,0.7833,0.8685,0.9155,0.9458,0.9836,1.0137,1.0132,1.0789,1.1168,1.1323,1.1347,1.0974,1.0801,1.0881,1.0594,1.0519,1.0363,1.0207,0.9685,0.9155,0.8623,0.8394,0.8089,0.7314,0.6143,0.5134,0.5054,0.3956,0.1625,-0.1075,-0.4114,-0.8318,-1.2863,-1.5981,-1.8661,-1.8699,-1.7772,-1.9722,-2.1849,-2.2618,-2.316,-2.4426,-2.4789,-2.411,-2.4461,-2.4546,-2.5188,-2.5612,-2.5336,-2.4191,-2.1712,-1.9484,-1.9566,-1.9566,-1.9392,-1.8732,-1.6543,-1.4647,-3.413,-3.3972,-3.3972,-3.408,-3.4293,-3.4427,-3.4651,-3.4943,-3.5034,-3.5133,-3.5254,-3.5398,-3.5618,-3.5817,-3.5859,-3.5845,-3.5721,-3.5718,-3.5249,-3.4794,-3.4392,-3.3751,-3.2755,-3.1987,-3.1281,-3.0035,-2.8793,-2.7554,-2.5891,-2.2964,-2.0452,-1.82,-1.6531,-1.5711,-1.4657,-1.3513,-1.2191,-1.0926,-0.9943,-0.8812,-0.7761,-0.6927,-0.6076,-0.5146,-0.4292,-0.3441,-0.2659,-0.2893,-0.2735,-0.2423,-0.2116,-0.1648,-0.0548,0.039,0.171,0.3031,0.3887,0.528,0.6444,0.777,0.8623,0.8775,0.8922,0.9054,0.9456,0.92,0.9352,1.0168,1.0201,1.0507,1.0812,1.0962,1.0438,1.0212,0.976,0.9306,0.8775,0.8165,0.7936,0.8008,0.7065,0.5431,0.3793,0.3172,0.1777,-0.0541,-0.4458,-0.7603,-1.1307,-1.5599,-1.8687,-2.1187,-2.225,-2.2698,-2.3973,-2.4915,-2.475,-2.4984,-2.5891,-2.6093,-2.581,-2.6549,-2.7394,-2.7689,-2.7786,-2.8105,-2.7994,-2.5531,-2.4025,-2.4542,-2.4383,-2.3063,-2.2577,-2.1224,-1.943,-3.463,-3.4567,-3.4548,-3.452,-3.4431,-3.4649,-3.4907,-3.5111,-3.5193,-3.5372,-3.5554,-3.5623,-3.5718,-3.5851,-3.5845,-3.5801,-3.5704,-3.565,-3.5244,-3.4942,-3.4615,-3.3963,-3.3176,-3.2497,-3.1899,-3.059,-2.9648,-2.8389,-2.6497,-2.4708,-2.2824,-2.0452,-1.8265,-1.654,-1.5438,-1.4386,-1.3077,-1.2271,-1.1372,-1.0548,-0.9205,-0.8528,-0.7761,-0.6612,-0.6381,-0.5992,-0.5604,-0.5068,-0.4523,-0.3904,-0.3366,-0.2585,-0.1802,-0.1015,0.0,0.1168,0.1868,0.2721,0.3964,0.5443,0.6542,0.7383,0.7999,0.8604,0.8472,0.8983,0.9468,0.9846,0.976,1.0062,1.0812,1.0207,0.9458,0.9382,0.9155,0.8775,0.8156,0.7544,0.6923,0.6831,0.5499,0.3949,0.224,0.0694,-0.1004,-0.3013,-0.7182,-1.1109,-1.4563,-1.783,-2.0846,-2.2976,-2.3953,-2.4761,-2.5856,-2.6227,-2.6541,-2.6988,-2.7425,-2.7508,-2.7689,-2.8451,-2.9201,-2.956,-2.9632,-2.9512,-2.9214,-2.8653,-2.7801,-2.674,-2.604,-2.5368,-2.5175,-2.5241,-2.3619,-3.4927,-3.4908,-3.4963,-3.4851,-3.467,-3.487,-3.5117,-3.5331,-3.5399,-3.5554,-3.5803,-3.5766,-3.5807,-3.5864,-3.5828,-3.576,-3.5685,-3.5549,-3.5268,-3.4997,-3.4674,-3.4152,-3.3487,-3.2836,-3.2194,-3.1004,-3.0336,-2.923,-2.778,-2.6155,-2.4359,-2.2406,-2.0275,-1.8352,-1.6498,-1.51,-1.4106,-1.36,-1.3025,-1.2285,-1.0789,-0.9965,-0.9513,-0.8367,-0.791,-0.7528,-0.7298,-0.6762,-0.615,-0.561,-0.4993,-0.4064,-0.3046,-0.2186,-0.1482,-0.0623,0.0078,0.0389,0.1555,0.288,0.4603,0.5529,0.6615,0.7234,0.777,0.8389,0.8479,0.9027,0.917,0.9533,1.0276,0.9458,0.9008,0.9008,0.8546,0.8012,0.7226,0.6528,0.5979,0.5428,0.3635,0.1464,-0.1299,-0.328,-0.5439,-0.7476,-1.0947,-1.421,-1.6627,-1.972,-2.2655,-2.434,-2.5423,-2.6069,-2.6762,-2.7504,-2.831,-2.8637,-2.9035,-2.9351,-2.9708,-3.0243,-3.0575,-3.0704,-3.0744,-3.0697,-3.0484,-3.0137,-2.9045,-2.7771,-2.7478,-2.7429,-2.7722,-2.7649,-2.644,-3.4926,-3.4943,-3.5117,-3.5086,-3.4945,-3.5119,-3.5292,-3.5432,-3.5585,-3.5728,-3.5818,-3.586,-3.5879,-3.5886,-3.5815,-3.5749,-3.565,-3.5449,-3.5174,-3.4926,-3.473,-3.4203,-3.3671,-3.3087,-3.253,-3.1662,-3.092,-3.0168,-2.921,-2.7024,-2.5502,-2.4142,-2.2128,-2.0052,-1.825,-1.7088,-1.6026,-1.5084,-1.4171,-1.3222,-1.2124,-1.1081,-1.0559,-1.0034,-0.9271,-0.8893,-0.8746,-0.8219,-0.7685,-0.7302,-0.7011,-0.6483,-0.6112,-0.5761,-0.4665,-0.2965,-0.2413,-0.1243,0.0777,0.1869,0.265,0.3826,0.5146,0.5535,0.5535,0.6083,0.7173,0.8016,0.8089,0.8161,0.8466,0.8461,0.8143,0.7351,0.6659,0.6043,0.5029,0.4486,0.3633,0.2691,0.0691,-0.169,-0.4803,-0.7592,-0.9896,-1.2372,-1.5187,-1.7435,-1.9094,-2.1366,-2.4112,-2.5745,-2.6835,-2.7504,-2.8262,-2.9281,-3.0021,-3.0302,-3.0452,-3.0575,-3.0697,-3.0937,-3.1266,-3.1657,-3.164,-3.1456,-3.1603,-3.175,-3.057,-2.9599,-2.9626,-2.9702,-3.0084,-2.9778,-2.8358,-3.5216,-3.5258,-3.5345,-3.5359,-3.5316,-3.5378,-3.547,-3.5604,-3.5708,-3.5807,-3.5872,-3.5889,-3.5856,-3.582,-3.5758,-3.5698,-3.5591,-3.5359,-3.5088,-3.4889,-3.4689,-3.4197,-3.3734,-3.3321,-3.2777,-3.1897,-3.1155,-3.0476,-2.9467,-2.7667,-2.646,-2.5204,-2.3103,-2.0905,-1.9145,-1.7765,-1.6664,-1.5816,-1.5108,-1.4314,-1.3011,-1.2278,-1.1768,-1.1391,-1.0858,-1.0479,-1.0404,-0.9804,-0.9205,-0.8832,-0.8627,-0.8111,-0.7735,-0.7298,-0.659,-0.5366,-0.4974,-0.4206,-0.2955,-0.1946,-0.0389,0.1636,0.3357,0.4055,0.4913,0.5764,0.6615,0.7069,0.7138,0.7042,0.6775,0.5851,0.4999,0.314,0.2224,0.1845,0.1232,0.1001,0.0462,-0.0611,-0.229,-0.724,-1.1024,-1.2804,-1.4858,-1.606,-1.8539,-1.9369,-2.0703,-2.2794,-2.5259,-2.698,-2.8216,-2.8962,-2.9729,-3.0344,-3.069,-3.0801,-3.0999,-3.1227,-3.1397,-3.1568,-3.177,-3.2091,-3.2179,-3.2214,-3.2214,-3.2179,-3.2056,-3.1625,-3.127,-3.096,-3.092,-3.0623,-2.9815,-3.5388,-3.5405,-3.5526,-3.5562,-3.5562,-3.5562,-3.5637,-3.5757,-3.5807,-3.5853,-3.5897,-3.5885,-3.5851,-3.5798,-3.5725,-3.565,-3.5574,-3.5315,-3.5089,-3.4889,-3.4668,-3.4221,-3.3815,-3.3484,-3.2827,-3.2039,-3.1473,-3.0834,-2.9924,-2.8623,-2.717,-2.545,-2.3515,-2.2017,-2.047,-1.918,-1.7696,-1.6932,-1.6237,-1.5463,-1.4593,-1.4019,-1.3593,-1.315,-1.2705,-1.2345,-1.2124,-1.1533,-1.0795,-1.0271,-0.9825,-0.9311,-0.8922,-0.8599,-0.8263,-0.7799,-0.7419,-0.6579,-0.5496,-0.5032,-0.3467,-0.1991,0.0541,0.1942,0.2637,0.2863,0.3554,0.432,0.5478,0.4767,0.3524,0.2534,0.1607,-0.0306,-0.0762,-0.1147,-0.1599,-0.1675,-0.4027,-0.499,-0.7937,-1.2855,-1.6655,-1.8365,-1.9968,-2.0815,-2.1739,-2.2197,-2.2713,-2.4546,-2.6491,-2.817,-2.9415,-3.0079,-3.0573,-3.0999,-3.1232,-3.1329,-3.1534,-3.1771,-3.1986,-3.2144,-3.2317,-3.242,-3.2454,-3.2454,-3.2521,-3.247,-3.2403,-3.2335,-3.2162,-3.1897,-3.1733,-3.127,-3.0711,-3.5416,-3.5451,-3.5635,-3.5688,-3.5698,-3.5707,-3.5737,-3.5807,-3.5859,-3.5889,-3.588,-3.588,-3.5839,-3.5791,-3.5706,-3.5624,-3.5534,-3.5293,-3.5073,-3.485,-3.4607,-3.4179,-3.3797,-3.3437,-3.289,-3.2299,-3.1696,-3.1206,-3.0393,-2.9191,-2.7584,-2.5844,-2.4262,-2.3059,-2.1956,-2.061,-1.9145,-1.8277,-1.7522,-1.6826,-1.6123,-1.5799,-1.5305,-1.4791,-1.4291,-1.386,-1.3426,-1.2844,-1.2271,-1.1909,-1.1694,-1.154,-1.1328,-1.1228,-1.0605,-1.0027,-0.9494,-0.843,-0.7522,-0.7219,-0.7484,-0.6442,-0.4498,-0.2923,-0.1314,-0.0231,0.0771,0.0924,0.1384,0.0461,-0.0539,-0.092,-0.1375,-0.2207,-0.2802,-0.3246,-0.3828,-0.5478,-0.8487,-1.1142,-1.4516,-1.8259,-2.0581,-2.2566,-2.3807,-2.4799,-2.545,-2.6075,-2.6391,-2.6285,-2.8124,-2.9609,-3.065,-3.1117,-3.1539,-3.1792,-3.1737,-3.1792,-3.2004,-3.2228,-3.2482,-3.2601,-3.2716,-3.2734,-3.2687,-3.2687,-3.2687,-3.277,-3.2802,-3.2719,-3.257,-3.2504,-3.2214,-3.1932,-3.1405,-3.5618,-3.5621,-3.5717,-3.5765,-3.5765,-3.5765,-3.5795,-3.5859,-3.5883,-3.5884,-3.5891,-3.584,-3.5817,-3.5721,-3.5618,-3.5493,-3.5335,-3.5171,-3.4944,-3.4753,-3.4545,-3.4154,-3.3797,-3.3512,-3.3032,-3.2468,-3.1914,-3.1397,-3.0723,-2.9653,-2.8117,-2.6419,-2.5287,-2.4346,-2.3072,-2.188,-2.0864,-1.9846,-1.9027,-1.8295,-1.7552,-1.7005,-1.6609,-1.5992,-1.5579,-1.5147,-1.4934,-1.4585,-1.4155,-1.3867,-1.3361,-1.2966,-1.2365,-1.1887,-1.1224,-1.0697,-1.0599,-1.0416,-0.9952,-1.0302,-1.0777,-1.1095,-0.9952,-0.7248,-0.4938,-0.3132,-0.2297,-0.2595,-0.2741,-0.3343,-0.4603,-0.5262,-0.6205,-0.7208,-0.8038,-0.9111,-0.985,-1.1416,-1.4272,-1.6495,-2.0003,-2.1952,-2.4314,-2.5819,-2.701,-2.8233,-2.9048,-2.9371,-2.9497,-2.9127,-2.9469,-3.0946,-3.1578,-3.1952,-3.2309,-3.2592,-3.238,-3.2297,-3.2524,-3.2652,-3.266,-3.2809,-3.3001,-3.305,-3.2925,-3.288,-3.2866,-3.293,-3.3055,-3.2948,-3.2802,-3.2802,-3.2705,-3.2369,-3.2056,-3.5717,-3.5706,-3.5803,-3.585,-3.5807,-3.583,-3.5866,-3.5895,-3.588,-3.5882,-3.5857,-3.5859,-3.577,-3.566,-3.5559,-3.5454,-3.535,-3.5219,-3.5016,-3.4733,-3.4524,-3.4068,-3.3752,-3.3408,-3.2908,-3.2401,-3.1914,-3.1376,-3.0804,-2.9848,-2.8481,-2.7405,-2.6553,-2.5246,-2.4142,-2.3408,-2.2615,-2.1545,-2.0534,-1.9662,-1.8996,-1.8398,-1.7958,-1.7366,-1.6973,-1.6627,-1.641,-1.6289,-1.5596,-1.5234,-1.4585,-1.445,-1.4163,-1.3927,-1.366,-1.3487,-1.4032,-1.3993,-1.3678,-1.3693,-1.4222,-1.4568,-1.455,-1.2846,-1.0873,-0.9269,-0.8057,-0.7417,-0.697,-0.7036,-0.8554,-1.0067,-1.1636,-1.3207,-1.4655,-1.6092,-1.7145,-1.8239,-2.0021,-2.1831,-2.3852,-2.5747,-2.747,-2.8839,-2.9597,-2.9724,-2.9976,-3.0401,-3.0603,-3.0513,-3.0896,-3.1987,-3.2347,-3.2642,-3.2973,-3.3252,-3.3187,-3.3063,-3.3114,-3.3161,-3.3015,-3.2991,-3.3189,-3.3196,-3.316,-3.3099,-3.3055,-3.3178,-3.3238,-3.3117,-3.3042,-3.3024,-3.293,-3.2654,-3.2335,-3.5721,-3.5727,-3.5853,-3.5852,-3.5818,-3.5883,-3.5888,-3.5899,-3.5884,-3.5859,-3.5818,-3.5825,-3.5736,-3.5566,-3.5475,-3.5423,-3.5308,-3.5203,-3.4943,-3.4674,-3.4526,-3.4117,-3.357,-3.3045,-3.2827,-3.2317,-3.1804,-3.1452,-3.069,-2.9892,-2.9118,-2.8336,-2.7339,-2.6169,-2.5232,-2.4627,-2.3807,-2.2761,-2.1694,-2.0801,-2.0568,-2.0386,-2.0268,-1.9683,-1.887,-1.8045,-1.7707,-1.7033,-1.6018,-1.6088,-1.5948,-1.6079,-1.6191,-1.6428,-1.6356,-1.6519,-1.6707,-1.6707,-1.6396,-1.6327,-1.7378,-1.7581,-1.7482,-1.7243,-1.6075,-1.3982,-1.2479,-1.2297,-1.2026,-1.2355,-1.3601,-1.4829,-1.6309,-1.7661,-1.9087,-2.0128,-2.1067,-2.2344,-2.3987,-2.5535,-2.6544,-2.8232,-2.8668,-2.9789,-3.0442,-3.0606,-3.1009,-3.1465,-3.1688,-3.1777,-3.2108,-3.2822,-3.3039,-3.3259,-3.3487,-3.3758,-3.3907,-3.3895,-3.3833,-3.3681,-3.3506,-3.3432,-3.3413,-3.3393,-3.3419,-3.3309,-3.328,-3.3327,-3.3357,-3.3316,-3.3286,-3.3286,-3.3147,-3.2898,-3.2555,-3.5869,-3.586,-3.5887,-3.5893,-3.5874,-3.5899,-3.5893,-3.5898,-3.579,-3.5783,-3.5772,-3.5659,-3.5563,-3.5451,-3.5403,-3.5331,-3.5261,-3.5122,-3.4832,-3.4572,-3.4416,-3.4111,-3.3689,-3.3214,-3.2921,-3.2634,-3.2196,-3.149,-3.0788,-3.0149,-2.9601,-2.8919,-2.8033,-2.7193,-2.6144,-2.5535,-2.46,-2.3833,-2.2857,-2.193,-2.153,-2.1175,-2.0869,-2.0355,-1.9607,-1.953,-1.9201,-1.868,-1.8613,-1.8803,-1.7842,-1.7493,-1.726,-1.7398,-1.7243,-1.7135,-1.8188,-1.8445,-1.8491,-1.867,-1.9413,-2.0156,-2.031,-2.1088,-2.0511,-1.8189,-1.7074,-1.7199,-1.7406,-1.7779,-1.8475,-1.9576,-2.0701,-2.1995,-2.3171,-2.396,-2.4648,-2.6141,-2.7725,-2.8514,-2.9284,-2.9701,-3.0005,-3.0484,-3.1134,-3.1671,-3.2186,-3.2603,-3.2893,-3.299,-3.2805,-3.333,-3.3607,-3.3813,-3.4018,-3.4195,-3.4342,-3.4454,-3.4398,-3.4244,-3.4035,-3.3907,-3.3817,-3.375,-3.368,-3.3588,-3.3484,-3.3404,-3.3404,-3.3433,-3.3491,-3.3491,-3.3375,-3.3147,-3.2752,-3.5882,-3.5886,-3.589,-3.5891,-3.5894,-3.5898,-3.5898,-3.5868,-3.5719,-3.5663,-3.5702,-3.5572,-3.5456,-3.5359,-3.5324,-3.5277,-3.5193,-3.5018,-3.4774,-3.4526,-3.425,-3.3954,-3.3634,-3.3291,-3.2844,-3.2553,-3.1861,-3.1206,-3.0788,-3.0284,-2.9694,-2.9166,-2.8623,-2.8051,-2.7004,-2.6087,-2.5384,-2.4799,-2.3845,-2.3153,-2.2591,-2.2299,-2.1854,-2.1279,-2.0985,-2.091,-2.0344,-1.9901,-1.977,-2.0139,-1.9695,-1.99,-1.9932,-2.0231,-2.005,-2.0125,-2.0467,-2.0606,-2.0658,-2.0888,-2.1451,-2.2201,-2.3315,-2.4199,-2.465,-2.2685,-2.2178,-2.2242,-2.1614,-2.1836,-2.2877,-2.3987,-2.4794,-2.5908,-2.6604,-2.7261,-2.7544,-2.814,-2.9211,-2.9878,-3.0475,-3.0769,-3.1074,-3.1333,-3.1934,-3.2496,-3.3055,-3.3296,-3.366,-3.3997,-3.3863,-3.384,-3.412,-3.4265,-3.442,-3.4572,-3.4715,-3.4832,-3.4887,-3.4737,-3.4515,-3.4364,-3.4246,-3.4104,-3.3993,-3.3902,-3.3788,-3.3643,-3.3559,-3.3587,-3.3643,-3.3698,-3.353,-3.3357,-3.3099,-3.5898,-3.5898,-3.5898,-3.5898,-3.5898,-3.5894,-3.5888,-3.5854,-3.5687,-3.5611,-3.56,-3.5492,-3.5391,-3.5315,-3.5264,-3.5264,-3.5126,-3.4813,-3.4632,-3.4439,-3.4227,-3.3902,-3.3504,-3.3093,-3.2749,-3.2196,-3.1511,-3.1145,-3.0804,-3.0326,-2.9826,-2.9303,-2.8966,-2.8654,-2.7838,-2.7289,-2.6709,-2.5697,-2.49,-2.4323,-2.3935,-2.3554,-2.2845,-2.2408,-2.2298,-2.2027,-2.1467,-2.0858,-2.0473,-2.0782,-2.1318,-2.1694,-2.2041,-2.2237,-2.2506,-2.2506,-2.2554,-2.3,-2.3369,-2.3469,-2.405,-2.4817,-2.616,-2.6813,-2.7053,-2.7049,-2.6579,-2.6287,-2.5673,-2.5888,-2.6887,-2.7473,-2.8311,-2.8942,-2.9496,-2.9907,-2.9923,-2.9982,-3.0533,-3.1108,-3.1376,-3.167,-3.1969,-3.2209,-3.2701,-3.3286,-3.3673,-3.3855,-3.412,-3.4452,-3.4585,-3.4509,-3.4604,-3.4756,-3.4793,-3.4889,-3.4981,-3.4999,-3.5051,-3.5035,-3.4963,-3.4793,-3.4595,-3.4423,-3.433,-3.4232,-3.4105,-3.3972,-3.3868,-3.3762,-3.378,-3.378,-3.3652,-3.353,-3.3473,-3.5884,-3.59,-3.59,-3.5896,-3.5888,-3.588,-3.5895,-3.5875,-3.5706,-3.5618,-3.5543,-3.535,-3.5239,-3.5207,-3.5034,-3.4981,-3.4889,-3.4593,-3.4394,-3.4245,-3.4049,-3.3842,-3.3606,-3.3243,-3.2844,-3.2231,-3.1565,-3.1162,-3.0845,-3.0435,-3.0087,-2.9754,-2.9726,-2.9273,-2.8512,-2.7902,-2.7157,-2.6299,-2.5616,-2.4954,-2.4477,-2.3929,-2.3204,-2.3122,-2.3374,-2.342,-2.317,-2.2311,-2.22,-2.2408,-2.2713,-2.3125,-2.3437,-2.3649,-2.3715,-2.3923,-2.404,-2.4244,-2.4517,-2.4786,-2.5149,-2.6136,-2.7054,-2.7554,-2.7997,-2.8574,-2.8466,-2.877,-2.8519,-2.8812,-2.9529,-2.9529,-3.0086,-3.058,-3.1099,-3.1116,-3.1155,-3.1215,-3.1462,-3.1719,-3.1881,-3.2206,-3.2532,-3.2882,-3.3393,-3.3933,-3.4452,-3.4623,-3.4751,-3.5025,-3.521,-3.5172,-3.5097,-3.4973,-3.4889,-3.5051,-3.5155,-3.519,-3.519,-3.5174,-3.5157,-3.516,-3.5,-3.4774,-3.4655,-3.4569,-3.4439,-3.425,-3.4105,-3.3979,-3.3895,-3.3842,-3.3762,-3.3652,-3.3587]}]]